[[{"header":{"parameterUnit":"m.s-1","parameterCategory":1,"la1":30.6,"la2":29.2853,"lo1":-89.7004,"lo2":-87.6739,"dy":0.0162,"dx":0.0183,"nx":112,"ny":82,"refTime":"2024-05-11T06:00:00:Z","depth":0,"parameterNumber":2,"parameterNumberName":"U-component_of_WINDS"},"data":[0.0,0.0,0.0,0.0,0.0,0.0,0.0,0.0,0.0,0.0,0.0,0.0,0.0,0.0,0.0,0.0,0.0,0.0,0.0,0.0,0.0,0.0,0.0,0.0,0.0,0.0,0.0,0.0,0.0,0.0,0.0,0.0,0.0,0.0,0.0,0.0,0.0,0.0,0.0,0.0,0.0,0.0,0.0,0.0,0.0,0.0,0.0,0.0,0.0,0.0,0.0,0.0,0.0,0.0,0.0,0.0,0.0,0.0,0.0,0.0,0.0,0.0,0.0,0.0,0.0,0.0,0.0,0.0,0.0,0.0,0.0,0.0,0.0,0.0,0.0,0.0,0.0,0.0,0.0,0.0,0.0,0.0,0.0,0.0,0.0,0.0,0.0,0.0,0.0,0.0,-5.7997,-5.7997,-5.7997,-5.7703,-5.7042,-5.7005,-5.6675,-5.6014,0.0,0.0,0.0,0.0,0.0,0.0,0.0,0.0,0.0,0.0,0.0,0.0,0.0,0.0,0.0,0.0,0.0,0.0,0.0,0.0,0.0,0.0,0.0,0.0,0.0,0.0,0.0,0.0,0.0,0.0,0.0,0.0,0.0,0.0,0.0,0.0,0.0,0.0,0.0,0.0,0.0,0.0,0.0,0.0,0.0,0.0,0.0,0.0,0.0,0.0,0.0,0.0,0.0,0.0,0.0,0.0,0.0,0.0,0.0,0.0,0.0,0.0,0.0,0.0,0.0,0.0,0.0,0.0,0.0,0.0,0.0,0.0,0.0,0.0,0.0,0.0,0.0,0.0,0.0,0.0,0.0,0.0,0.0,0.0,0.0,0.0,0.0,0.0,0.0,0.0,0.0,0.0,0.0,0.0,0.0,0.0,0.0,0.0,0.0,0.0,0.0,0.0,0.0,0.0,-5.7997,-5.7997,-5.7997,-5.796,-5.7813,-5.7813,-5.7776,-5.7629,0.0,0.0,0.0,0.0,0.0,0.0,0.0,0.0,0.0,0.0,0.0,0.0,0.0,0.0,0.0,0.0,0.0,0.0,0.0,0.0,0.0,0.0,0.0,0.0,0.0,0.0,0.0,0.0,0.0,0.0,0.0,0.0,0.0,0.0,0.0,0.0,0.0,0.0,0.0,0.0,0.0,0.0,0.0,0.0,0.0,0.0,0.0,0.0,0.0,0.0,0.0,0.0,0.0,0.0,0.0,0.0,0.0,0.0,0.0,0.0,0.0,0.0,0.0,0.0,0.0,0.0,0.0,0.0,0.0,0.0,0.0,0.0,0.0,0.0,0.0,0.0,0.0,0.0,0.0,0.0,0.0,0.0,0.0,0.0,0.0,0.0,0.0,0.0,0.0,0.0,0.0,0.0,0.0,0.0,0.0,0.0,0.0,0.0,0.0,0.0,0.0,0.0,0.0,-5.7997,-5.7997,-5.7997,-5.7997,-5.7997,-5.7997,-5.7997,-5.7997,-5.7997,-5.7299,0.0,0.0,0.0,0.0,0.0,0.0,0.0,0.0,0.0,0.0,0.0,0.0,0.0,0.0,0.0,0.0,0.0,0.0,0.0,0.0,0.0,0.0,0.0,0.0,0.0,0.0,0.0,0.0,0.0,0.0,0.0,0.0,0.0,0.0,0.0,0.0,0.0,0.0,0.0,0.0,0.0,0.0,0.0,0.0,0.0,0.0,0.0,0.0,0.0,0.0,0.0,0.0,0.0,0.0,0.0,0.0,0.0,0.0,0.0,0.0,0.0,0.0,0.0,0.0,0.0,0.0,0.0,0.0,0.0,0.0,0.0,0.0,0.0,0.0,0.0,0.0,0.0,0.0,0.0,0.0,0.0,0.0,0.0,0.0,0.0,0.0,0.0,0.0,0.0,0.0,0.0,0.0,0.0,0.0,0.0,0.0,0.0,0.0,0.0,0.0,0.0,0.0,-5.7666,-5.7594,-5.7973,-5.7821,-5.7797,-5.7997,-5.7997,-5.7997,-5.7997,-5.7997,0.0,0.0,0.0,0.0,0.0,0.0,0.0,0.0,0.0,0.0,0.0,0.0,0.0,0.0,0.0,0.0,0.0,0.0,0.0,0.0,0.0,0.0,0.0,0.0,0.0,0.0,0.0,0.0,0.0,0.0,0.0,0.0,0.0,0.0,0.0,0.0,0.0,0.0,0.0,0.0,0.0,0.0,0.0,0.0,0.0,0.0,0.0,0.0,0.0,0.0,0.0,0.0,0.0,0.0,0.0,0.0,0.0,0.0,0.0,0.0,0.0,0.0,0.0,0.0,0.0,0.0,0.0,0.0,0.0,0.0,0.0,0.0,0.0,0.0,0.0,0.0,0.0,0.0,0.0,0.0,0.0,0.0,0.0,0.0,0.0,0.0,0.0,0.0,0.0,0.0,0.0,0.0,0.0,0.0,0.0,0.0,0.0,0.0,0.0,0.0,0.0,0.0,-5.6737,-5.6411,-5.7844,-5.7401,-5.7241,-5.795,-5.7997,-5.7997,-5.7997,-5.7997,0.0,0.0,0.0,0.0,0.0,0.0,0.0,0.0,0.0,0.0,0.0,0.0,0.0,0.0,0.0,0.0,0.0,0.0,0.0,0.0,0.0,0.0,0.0,0.0,0.0,0.0,0.0,0.0,0.0,0.0,0.0,0.0,0.0,0.0,0.0,0.0,0.0,0.0,0.0,0.0,0.0,0.0,0.0,0.0,0.0,0.0,0.0,0.0,0.0,0.0,0.0,0.0,0.0,0.0,0.0,0.0,0.0,0.0,0.0,0.0,0.0,0.0,0.0,0.0,0.0,0.0,0.0,0.0,0.0,0.0,0.0,0.0,0.0,0.0,0.0,0.0,0.0,0.0,0.0,0.0,0.0,0.0,0.0,0.0,0.0,0.0,0.0,0.0,0.0,0.0,0.0,0.0,0.0,0.0,0.0,0.0,0.0,0.0,0.0,0.0,0.0,0.0,-5.6394,-5.6114,-5.7191,-5.7065,-5.7227,-5.795,-5.7997,-5.7997,-5.7997,0.0,0.0,0.0,0.0,0.0,0.0,0.0,0.0,0.0,0.0,0.0,0.0,0.0,0.0,0.0,0.0,0.0,0.0,0.0,0.0,0.0,0.0,0.0,0.0,0.0,0.0,0.0,0.0,0.0,0.0,0.0,0.0,0.0,0.0,0.0,0.0,0.0,0.0,0.0,0.0,0.0,0.0,0.0,0.0,0.0,0.0,0.0,0.0,0.0,0.0,0.0,0.0,0.0,0.0,0.0,0.0,0.0,0.0,0.0,0.0,0.0,0.0,0.0,0.0,0.0,0.0,0.0,0.0,0.0,0.0,0.0,0.0,0.0,0.0,0.0,0.0,0.0,0.0,0.0,0.0,0.0,0.0,0.0,0.0,0.0,0.0,0.0,0.0,0.0,0.0,0.0,0.0,0.0,0.0,0.0,0.0,0.0,0.0,0.0,0.0,0.0,0.0,-5.6861,-5.5787,-5.5414,-5.6394,-5.6286,-5.6447,-5.7216,-5.729,-5.7364,-5.7655,0.0,0.0,0.0,0.0,0.0,0.0,0.0,0.0,0.0,0.0,0.0,0.0,0.0,0.0,0.0,0.0,0.0,0.0,0.0,0.0,0.0,0.0,0.0,0.0,0.0,0.0,0.0,0.0,0.0,0.0,0.0,0.0,0.0,0.0,0.0,0.0,0.0,0.0,0.0,0.0,0.0,0.0,0.0,0.0,0.0,0.0,0.0,0.0,0.0,0.0,0.0,0.0,0.0,0.0,0.0,0.0,0.0,0.0,0.0,0.0,0.0,0.0,0.0,0.0,0.0,0.0,0.0,0.0,0.0,0.0,0.0,0.0,0.0,0.0,0.0,0.0,0.0,0.0,0.0,0.0,0.0,0.0,0.0,0.0,0.0,0.0,0.0,0.0,0.0,0.0,0.0,0.0,0.0,0.0,0.0,0.0,0.0,0.0,0.0,0.0,0.0,0.0,-5.6773,-5.4883,-5.4042,-5.5524,-5.5059,-5.4909,-5.5638,-5.5724,-5.6031,0.0,0.0,0.0,0.0,0.0,0.0,0.0,0.0,0.0,0.0,0.0,0.0,0.0,0.0,0.0,0.0,0.0,0.0,0.0,0.0,0.0,0.0,0.0,0.0,0.0,0.0,0.0,0.0,0.0,0.0,0.0,0.0,0.0,0.0,0.0,0.0,0.0,0.0,0.0,0.0,0.0,0.0,0.0,0.0,0.0,0.0,0.0,0.0,0.0,0.0,0.0,0.0,0.0,0.0,0.0,0.0,0.0,0.0,0.0,0.0,0.0,0.0,0.0,0.0,0.0,0.0,0.0,0.0,0.0,0.0,0.0,0.0,0.0,0.0,0.0,0.0,0.0,0.0,0.0,0.0,0.0,0.0,0.0,0.0,0.0,0.0,0.0,0.0,0.0,0.0,0.0,0.0,0.0,0.0,0.0,0.0,0.0,0.0,0.0,0.0,0.0,0.0,0.0,-5.6004,-5.4579,-5.3848,-5.4818,-5.4726,-5.4909,-5.5638,-5.5724,-5.6031,-5.6861,0.0,0.0,0.0,0.0,0.0,0.0,0.0,0.0,0.0,0.0,0.0,0.0,0.0,0.0,0.0,0.0,0.0,0.0,0.0,0.0,0.0,0.0,0.0,0.0,0.0,0.0,0.0,0.0,0.0,0.0,0.0,0.0,0.0,0.0,0.0,0.0,0.0,0.0,0.0,0.0,0.0,0.0,0.0,0.0,0.0,0.0,0.0,0.0,0.0,0.0,0.0,0.0,0.0,0.0,0.0,0.0,0.0,0.0,0.0,0.0,0.0,0.0,0.0,0.0,0.0,0.0,0.0,0.0,0.0,0.0,0.0,0.0,0.0,0.0,0.0,0.0,0.0,0.0,0.0,0.0,0.0,0.0,0.0,0.0,0.0,0.0,0.0,0.0,0.0,0.0,0.0,0.0,0.0,0.0,0.0,0.0,0.0,0.0,0.0,0.0,0.0,0.0,-5.5262,-5.4235,-5.3651,-5.4106,-5.4171,-5.4328,-5.4757,-5.4818,-5.5149,-5.5928,0.0,0.0,0.0,0.0,0.0,0.0,0.0,0.0,0.0,0.0,0.0,0.0,0.0,0.0,0.0,0.0,0.0,0.0,0.0,0.0,0.0,0.0,0.0,0.0,0.0,0.0,0.0,0.0,0.0,0.0,0.0,0.0,0.0,0.0,0.0,0.0,0.0,0.0,0.0,0.0,0.0,0.0,0.0,0.0,0.0,0.0,0.0,0.0,0.0,0.0,0.0,0.0,0.0,0.0,0.0,0.0,0.0,0.0,0.0,0.0,0.0,0.0,0.0,0.0,0.0,0.0,0.0,0.0,0.0,0.0,0.0,0.0,0.0,0.0,0.0,0.0,0.0,0.0,0.0,0.0,0.0,0.0,0.0,0.0,0.0,0.0,0.0,0.0,0.0,0.0,0.0,0.0,0.0,0.0,0.0,0.0,0.0,0.0,0.0,0.0,0.0,0.0,-5.4606,-5.3979,-5.3518,-5.3518,-5.3518,-5.3518,-5.3518,-5.3518,-5.3782,-5.4575,0.0,0.0,0.0,0.0,0.0,0.0,0.0,0.0,0.0,0.0,0.0,0.0,0.0,0.0,0.0,0.0,0.0,0.0,0.0,0.0,0.0,0.0,0.0,0.0,0.0,0.0,0.0,0.0,0.0,0.0,0.0,0.0,0.0,0.0,0.0,0.0,0.0,0.0,0.0,0.0,0.0,0.0,0.0,0.0,0.0,0.0,0.0,0.0,0.0,0.0,0.0,0.0,0.0,0.0,0.0,0.0,0.0,0.0,0.0,0.0,-5.0368,-5.084,0.0,0.0,0.0,0.0,0.0,0.0,0.0,0.0,0.0,0.0,0.0,0.0,0.0,0.0,0.0,0.0,0.0,0.0,0.0,0.0,0.0,0.0,0.0,0.0,0.0,0.0,0.0,0.0,0.0,0.0,0.0,0.0,0.0,0.0,0.0,0.0,0.0,0.0,0.0,0.0,-5.4606,-5.3979,-5.3518,-5.3518,-5.3518,-5.3518,-5.3518,-5.3518,-5.3782,-5.4575,-5.4757,0.0,0.0,0.0,0.0,0.0,0.0,0.0,0.0,0.0,0.0,0.0,0.0,0.0,0.0,0.0,0.0,0.0,0.0,0.0,0.0,0.0,0.0,0.0,0.0,0.0,0.0,0.0,0.0,0.0,0.0,0.0,0.0,0.0,0.0,0.0,0.0,0.0,0.0,0.0,0.0,0.0,0.0,0.0,0.0,0.0,0.0,0.0,0.0,0.0,0.0,0.0,0.0,0.0,0.0,0.0,0.0,0.0,0.0,0.0,-5.0092,-5.0327,0.0,0.0,0.0,0.0,0.0,0.0,0.0,0.0,0.0,0.0,0.0,0.0,0.0,0.0,0.0,0.0,0.0,0.0,0.0,0.0,0.0,0.0,0.0,0.0,0.0,0.0,0.0,0.0,0.0,0.0,0.0,0.0,0.0,0.0,0.0,0.0,0.0,0.0,0.0,0.0,-5.4074,-5.375,-5.3518,-5.3518,-5.3518,-5.3518,-5.3518,-5.3518,-5.3651,-5.4042,-5.4388,0.0,0.0,0.0,0.0,0.0,0.0,0.0,0.0,0.0,0.0,0.0,0.0,0.0,0.0,0.0,0.0,0.0,0.0,0.0,0.0,0.0,0.0,0.0,0.0,0.0,0.0,0.0,0.0,0.0,0.0,0.0,0.0,0.0,0.0,0.0,0.0,0.0,0.0,0.0,0.0,0.0,0.0,0.0,0.0,0.0,0.0,0.0,0.0,0.0,0.0,0.0,0.0,0.0,-5.1229,-5.1229,-5.1229,-5.1229,-5.1229,-5.1169,-5.0062,-5.0093,-5.0882,-5.1098,0.0,0.0,0.0,0.0,0.0,0.0,0.0,0.0,0.0,0.0,0.0,0.0,0.0,0.0,0.0,0.0,0.0,0.0,0.0,0.0,0.0,0.0,-5.3518,-5.3518,-5.3518,-5.3685,-5.4264,0.0,0.0,0.0,0.0,0.0,0.0,0.0,0.0,0.0,0.0,0.0,-5.3518,-5.3518,-5.3518,-5.3518,-5.3518,-5.3518,-5.3518,-5.3518,-5.3518,-5.3518,-5.4074,-5.4451,0.0,0.0,0.0,0.0,0.0,0.0,0.0,0.0,0.0,0.0,0.0,0.0,0.0,0.0,0.0,0.0,0.0,0.0,0.0,0.0,0.0,0.0,0.0,0.0,0.0,0.0,0.0,0.0,0.0,0.0,0.0,0.0,-4.7863,-4.9193,0.0,0.0,0.0,0.0,0.0,0.0,0.0,0.0,0.0,0.0,0.0,0.0,0.0,-5.1229,-5.1229,-5.1229,-5.1229,-5.1229,-5.1229,-5.1229,-5.1229,-5.1229,-5.1229,-5.1199,-5.102,0.0,-5.1208,-5.2209,0.0,0.0,0.0,0.0,0.0,0.0,0.0,0.0,0.0,0.0,0.0,0.0,0.0,0.0,0.0,0.0,0.0,0.0,0.0,0.0,0.0,0.0,-5.3518,-5.3518,-5.3518,-5.3551,-5.3618,-5.3551,-5.3551,-5.375,-5.3651,-5.3517,0.0,0.0,0.0,0.0,0.0,0.0,-5.3518,-5.3518,-5.3518,-5.3518,-5.3518,-5.3518,-5.3518,-5.3518,-5.3518,-5.3518,-5.3584,-5.3946,-5.4575,-5.4606,0.0,0.0,0.0,0.0,0.0,0.0,0.0,0.0,0.0,0.0,0.0,0.0,0.0,0.0,0.0,0.0,0.0,0.0,0.0,0.0,0.0,0.0,0.0,0.0,0.0,0.0,0.0,0.0,0.0,-4.8467,-4.8631,-4.963,-4.9758,-5.0426,0.0,0.0,0.0,0.0,0.0,0.0,0.0,0.0,0.0,-5.2336,-5.2306,-5.2306,-5.2306,-5.2306,-5.2306,-5.2306,-5.2306,-5.2306,-5.2306,-5.1947,-5.1768,-5.1738,-5.1379,-5.1229,-5.1229,-5.1727,-5.2152,-5.2467,0.0,0.0,0.0,0.0,-5.2972,-5.2794,-5.1515,-5.1057,-5.1026,-5.0712,0.0,0.0,0.0,0.0,0.0,0.0,0.0,-5.3518,-5.3518,-5.3518,-5.3518,-5.3518,-5.3518,-5.3518,-5.3518,-5.3518,-5.3518,-5.3518,-5.3518,-5.3518,-5.3518,-5.3518,0.0,0.0,0.0,-5.3518,-5.3518,-5.3518,-5.3518,-5.3518,-5.3518,-5.3518,-5.3518,-5.3518,-5.3518,-5.3518,-5.3518,-5.3651,-5.3979,-5.3979,-5.4203,0.0,0.0,0.0,0.0,0.0,0.0,0.0,0.0,0.0,0.0,0.0,0.0,0.0,0.0,0.0,0.0,0.0,0.0,0.0,0.0,0.0,0.0,0.0,0.0,0.0,0.0,0.0,0.0,-4.8566,-4.8618,-4.9239,-4.9324,-5.0007,0.0,0.0,0.0,0.0,0.0,0.0,-5.0621,-5.1064,-5.1672,-5.2605,-5.3028,-5.3174,-5.3174,-5.3174,-5.3174,-5.3174,-5.3174,-5.3174,-5.3174,-5.2665,-5.2456,-5.2426,-5.1768,-5.1468,-5.1439,-5.1289,-5.1681,-5.2485,-5.2485,-5.2989,-5.3679,-5.309,-5.2901,-5.2679,-5.1166,-5.0616,-5.0616,-5.0475,-5.0248,-5.0248,-5.1311,0.0,0.0,0.0,0.0,-5.3345,-5.3144,-5.311,-5.3144,-5.3416,-5.3518,-5.3518,-5.3518,-5.3518,-5.3518,-5.3518,-5.3518,-5.3518,-5.3518,-5.3518,0.0,-5.3518,-5.3518,-5.3518,-5.3518,-5.3518,-5.3518,-5.3518,-5.3518,-5.3518,-5.3518,-5.3518,-5.3518,-5.3518,-5.3518,-5.3518,-5.3518,-5.3518,-5.375,-5.4328,0.0,0.0,0.0,0.0,0.0,0.0,0.0,0.0,0.0,0.0,0.0,0.0,0.0,0.0,0.0,0.0,0.0,0.0,0.0,0.0,0.0,0.0,0.0,0.0,0.0,0.0,0.0,0.0,0.0,-4.6824,-4.6877,0.0,0.0,0.0,0.0,-4.9774,-5.0298,-5.0354,-4.9801,-5.1141,-5.1696,-5.1142,-5.2507,-5.3174,-5.3174,-5.3174,-5.3174,-5.3174,-5.3174,-5.3174,-5.3174,-5.3144,-5.3144,-5.3084,-5.2426,-5.2157,-5.2097,-5.1468,-5.1199,-5.1293,-5.1293,-5.1293,-5.1386,-5.1309,-5.1309,-5.1189,-5.0483,-5.0228,-5.0138,-4.9554,-5.0009,-5.092,-5.1937,-5.3052,0.0,0.0,-5.2238,-5.2887,-5.2158,-5.1993,-5.2241,-5.328,-5.3518,-5.3518,-5.3518,-5.3518,-5.3518,-5.3518,-5.3518,-5.3518,-5.3518,0.0,-5.3518,-5.3518,-5.3518,-5.3518,-5.3518,-5.3518,-5.3518,-5.3518,-5.3518,-5.3518,-5.3518,-5.3518,-5.3518,-5.3518,-5.3518,-5.3518,-5.3518,-5.3518,-5.3551,-5.3551,-5.3551,0.0,0.0,0.0,0.0,0.0,0.0,0.0,0.0,0.0,0.0,0.0,0.0,0.0,0.0,0.0,0.0,0.0,0.0,0.0,0.0,0.0,0.0,0.0,0.0,0.0,0.0,0.0,0.0,-4.7291,-4.7344,0.0,-4.9886,-4.9357,-4.8929,-4.8929,-4.8284,-4.8221,-4.8873,-4.9437,-5.0545,-5.2248,-5.2768,-5.3545,-5.4461,-5.4461,-5.4461,-5.4461,-5.4461,-5.4461,-5.4461,-5.4042,-5.3832,-5.3803,-5.3114,-5.2815,-5.2785,-5.2127,-5.1588,-5.1229,-5.1229,-5.1229,-5.1229,-5.1229,-5.1229,-5.1199,-5.096,-5.0823,-5.075,-5.0092,-5.0125,-5.0543,-5.1149,-5.1621,-5.1969,-5.1997,-5.2259,-5.2657,-5.3114,-5.3235,-5.3526,-5.4661,-5.4938,-5.4938,-5.4938,-5.4532,-5.4194,-5.4194,-5.3822,-5.3518,-5.3518,-5.3518,-5.3518,-5.3518,-5.3518,-5.3518,-5.3518,-5.3518,-5.3518,-5.3518,-5.3518,-5.3518,-5.3518,-5.3518,-5.3518,-5.3518,-5.3518,-5.3518,-5.3518,-5.3518,-5.3518,-5.3518,-5.3518,-5.3518,0.0,0.0,0.0,0.0,0.0,0.0,0.0,0.0,0.0,0.0,0.0,0.0,0.0,0.0,0.0,0.0,0.0,0.0,0.0,0.0,0.0,0.0,0.0,0.0,0.0,-4.6942,-4.7009,-4.7236,-4.7256,-4.7765,-4.9083,-4.8358,-4.7769,-4.7769,-4.6874,-4.6755,-4.771,-4.8268,-4.9648,-5.2187,-5.2751,-5.3675,-5.5179,-5.5179,-5.5179,-5.5179,-5.5179,-5.5179,-5.5179,-5.473,-5.4551,-5.4491,-5.3832,-5.3533,-5.3473,-5.2815,-5.2276,-5.1828,-5.1379,-5.1229,-5.1229,-5.1229,-5.1229,-5.1229,-5.1229,-5.1229,-5.1139,-5.0674,-5.0524,-5.0619,-5.0845,-5.1221,-5.1549,-5.1568,-5.2175,-5.2765,-5.2867,-5.3498,-5.4212,-5.4974,-5.5435,-5.5681,-5.5681,-5.5344,-5.4972,-5.4972,-5.416,-5.3518,-5.3518,-5.3518,-5.3585,-5.3822,-5.3653,-5.3585,-5.3822,-5.3653,-5.3518,-5.3518,-5.3518,-5.3518,-5.3518,-5.3518,-5.3518,-5.3518,-5.3518,-5.3518,-5.3518,-5.3518,-5.3518,-5.3518,-5.3518,-5.3518,-5.3518,0.0,0.0,0.0,0.0,0.0,0.0,0.0,0.0,0.0,0.0,0.0,0.0,0.0,0.0,0.0,0.0,0.0,0.0,0.0,0.0,0.0,0.0,0.0,-4.7569,-4.7433,-4.7152,-4.6405,-4.6301,-4.6301,-4.6301,-4.6301,-4.6301,-4.6301,-4.6301,-4.6301,-4.6301,-4.771,-4.9194,-5.0657,-5.2187,-5.3675,-5.5179,-5.5179,-5.5179,-5.5179,-5.5179,-5.5179,-5.5179,-5.5179,-5.5179,-5.5149,-5.4521,-5.4251,-5.4192,-5.3503,-5.3204,-5.3084,-5.1768,-5.1259,-5.1259,-5.1229,-5.1229,-5.1229,-5.1229,-5.1229,-5.1229,-5.1229,-5.1229,-5.1229,-5.1229,-5.1972,-5.2466,-5.0788,-5.1865,-5.3159,-5.1412,-5.2581,-5.4166,-5.4128,-5.4968,-5.5749,-5.5749,-5.5749,-5.5715,-5.5715,-5.4566,-5.3585,-5.3585,-5.3585,-5.3822,-5.4532,-5.4025,0.0,-5.4499,-5.3957,-5.3518,-5.3551,-5.3518,-5.3518,-5.3551,-5.3518,-5.3518,-5.3518,-5.3518,-5.3518,-5.3518,-5.3518,-5.3518,-5.3518,-5.3518,-5.3518,-5.3518,0.0,0.0,0.0,0.0,0.0,0.0,0.0,0.0,0.0,0.0,0.0,0.0,0.0,0.0,0.0,0.0,0.0,0.0,0.0,0.0,0.0,-4.7756,-4.6858,-4.6645,-4.662,-4.6577,-4.6361,-4.6301,-4.6301,-4.6301,-4.6301,-4.6301,-4.6301,-4.6301,-4.6301,-4.6301,-4.771,-4.9194,-5.0657,-5.2187,-5.3675,-5.5179,-5.5179,-5.5179,-5.5179,-5.5179,-5.5179,-5.5179,-5.5179,-5.5179,-5.5179,-5.4999,-5.491,-5.488,-5.4192,-5.3922,-5.3803,-5.2456,-5.1947,-5.1887,-5.1379,-5.1229,-5.1229,-5.1229,-5.1229,-5.1229,-5.1229,-5.1229,-5.1229,-5.1229,-5.1433,-5.1743,-5.2046,-5.2622,-5.3341,-5.4422,-5.5149,-5.5836,-5.6657,-5.7091,-5.7306,-5.7306,-5.6867,-5.6494,-5.6494,-5.575,-5.5108,-5.5108,-5.5108,-5.5175,-5.5378,-5.4769,-5.4363,-5.4566,-5.3957,-5.3687,-5.4228,-5.3822,-5.3721,-5.4262,-5.3822,-5.3518,-5.3518,-5.3518,-5.3518,-5.3518,-5.3518,-5.3518,-5.3518,-5.3518,-5.3518,0.0,0.0,0.0,0.0,0.0,0.0,0.0,0.0,0.0,0.0,0.0,0.0,0.0,0.0,0.0,0.0,0.0,0.0,0.0,0.0,0.0,0.0,-4.7265,-4.6301,-4.6301,-4.6301,-4.6301,-4.6301,-4.6874,-4.6968,-4.6361,-4.6874,-4.6968,-4.6361,-4.6301,-4.6601,-4.7205,-4.8035,-4.9478,-5.1618,-5.2509,-5.3675,-5.5179,-5.5179,-5.5179,-5.5179,-5.5179,-5.5179,-5.5179,-5.5179,-5.5179,-5.5179,-5.5179,-5.5179,-5.5149,-5.479,-5.461,-5.4491,0.0,0.0,0.0,0.0,-5.1439,-5.1229,-5.1229,-5.1229,-5.1229,-5.1229,-5.1229,-5.1229,-5.1229,-5.1229,-5.1339,-5.2018,-5.2856,-5.3785,-5.4598,-5.5889,-5.6963,-5.7114,-5.7554,-5.7881,-5.7881,-5.7543,-5.7273,-5.7273,-5.69,0.0,-5.663,-5.6122,-5.5783,-5.6122,-5.5547,-5.5175,-5.548,-5.46,-5.4126,-5.4532,-5.3923,-5.3687,-5.4093,-5.3754,0.0,0.0,0.0,-5.3518,-5.3518,-5.3518,0.0,0.0,0.0,-5.3518,-5.3518,-5.3518,0.0,0.0,-5.3281,-5.3247,0.0,0.0,0.0,0.0,0.0,0.0,0.0,0.0,0.0,0.0,0.0,0.0,0.0,0.0,0.0,0.0,-4.7146,-4.6326,-4.6401,-4.6401,-4.6376,-4.6326,-4.7475,-4.7769,-4.6496,-4.7729,-4.8107,-4.6813,-4.6958,-4.7622,-4.889,-4.9121,0.0,0.0,0.0,-5.4088,-5.5299,-5.5299,-5.5269,-5.5179,-5.5179,-5.5179,-5.5179,-5.5179,-5.5179,-5.5179,-5.5179,-5.5179,-5.5179,-5.5179,-5.5179,-5.5059,-5.3803,-5.3264,-5.3114,-5.2456,-5.1828,-5.1319,-5.1259,0.0,0.0,-5.1229,-5.1229,-5.1229,-5.1229,-5.1229,-5.1246,-5.1526,-5.3033,-5.4421,-5.3656,-5.5691,-5.7628,-5.6624,-5.7151,-5.7881,-5.7881,-5.7881,-5.7881,-5.7881,-5.7881,-5.7881,-5.7881,-5.6799,-5.619,-5.6833,-5.6325,-5.6089,-5.6731,-5.5581,-5.4769,-5.4837,-5.4126,0.0,-5.3754,-5.3619,-5.3518,-5.3518,-5.3518,-5.3518,-5.3518,-5.3518,-5.3518,-5.3518,-5.3518,-5.3518,-5.3518,-5.3518,-5.3518,-5.3518,-5.3518,-5.3518,0.0,0.0,0.0,0.0,0.0,0.0,0.0,0.0,0.0,0.0,0.0,0.0,0.0,0.0,0.0,-4.6695,-4.6481,-4.6476,-4.6903,-4.6979,-4.6803,-4.6351,-4.6541,-4.6753,-4.6928,-4.8384,-4.937,-4.9487,-5.073,-5.1574,-5.1861,-5.2995,-5.3913,-5.4544,-5.5701,-5.6206,-5.5987,-5.5987,-5.5718,-5.5179,-5.5179,0.0,-5.5179,-5.5179,-5.5179,-5.5179,-5.5179,-5.5179,-5.5179,-5.5179,-5.5179,-5.5119,-5.4311,-5.3683,-5.3114,-5.2456,-5.2127,-5.1947,-5.1409,-5.1229,-5.1229,-5.1229,-5.1229,-5.1229,-5.1229,-5.1229,0.0,-5.3396,-5.4253,-5.4961,-5.6509,-5.7409,-5.7845,-5.7628,-5.7772,-5.7881,-5.7881,-5.7881,-5.7881,-5.7881,-5.7881,-5.7881,-5.7881,-5.7645,-5.7509,-5.7645,-5.707,-5.663,-5.6799,-5.6055,-5.5716,-5.6325,-5.5175,-5.4634,-5.5243,-5.4194,-5.3518,-5.3518,-5.3518,-5.3518,-5.3518,-5.3518,-5.3518,-5.3518,-5.3518,-5.3518,-5.3518,-5.3518,-5.3518,-5.3518,-5.3518,-5.3518,0.0,0.0,0.0,0.0,0.0,0.0,0.0,0.0,0.0,0.0,0.0,-4.7652,-4.8358,0.0,-4.6728,-4.6728,-4.6928,-4.7205,-4.7481,-4.8156,-4.8575,-4.8352,-4.893,-4.954,-4.9858,-5.1292,-5.2003,-5.1552,-5.2276,-5.302,-5.3754,-5.4505,-5.5246,-5.5977,-5.6697,-5.6944,-5.6645,-5.6368,-5.6017,-5.5688,-5.5359,-5.5179,-5.5179,-5.5179,-5.5179,-5.5179,-5.5179,-5.5179,-5.5179,-5.5179,-5.5179,-5.5149,-5.482,-5.4281,-5.3653,-5.3324,-5.2785,-5.2157,-5.1828,-5.1498,-5.1229,-5.1229,-5.1229,-5.1229,-5.1229,-5.1229,-5.1572,-5.3296,-5.3742,-5.4126,-5.581,-5.6624,-5.7039,-5.7039,-5.748,-5.7881,-5.7881,-5.7881,-5.7881,-5.7881,-5.7881,-5.7881,-5.7881,-5.7881,-5.7881,-5.7881,-5.7577,-5.734,-5.734,-5.6697,-5.6393,-5.6765,-5.548,-5.4735,-5.5108,-5.416,-5.3518,-5.3518,-5.3518,-5.3518,-5.3518,-5.3518,-5.3518,-5.3518,-5.3518,-5.3518,-5.3518,-5.3518,-5.3518,-5.3518,-5.3518,-5.3518,0.0,0.0,0.0,0.0,0.0,0.0,0.0,-5.192,-5.1265,-5.0934,-4.8885,-4.7539,-4.9049,-4.8171,-4.7464,-4.8084,-4.8284,-4.8528,-4.8938,-5.0104,-5.1088,-5.1492,-5.2154,-5.2621,-5.2816,-5.4232,-5.4623,-5.3583,-5.3753,-5.4458,-5.5678,-5.5732,-5.6251,-5.743,-5.7483,-5.7423,-5.7304,-5.6795,-5.6406,-5.6218,-5.5628,-5.5329,-5.5179,-5.5179,-5.5179,-5.5179,-5.5179,-5.5179,-5.5179,-5.5179,-5.5179,-5.5179,-5.5179,-5.488,-5.4371,-5.4251,-5.3533,-5.2546,-5.2306,-5.1858,-5.1379,-5.1259,-5.1229,-5.1229,-5.1229,-5.1339,-5.1773,-5.29,-5.3352,-5.3828,-5.4961,-5.5889,-5.6547,-5.6547,-5.726,-5.7881,-5.7881,-5.7881,-5.7881,-5.7881,-5.7881,-5.7881,-5.7881,-5.7881,-5.7881,-5.7881,-5.7881,-5.7881,-5.7881,-5.7374,-5.7002,-5.7002,-5.5818,-5.4905,-5.46,-5.3923,-5.3518,-5.3518,-5.3518,-5.3518,-5.3518,-5.3518,-5.3518,-5.3518,-5.3518,-5.3518,-5.3518,-5.3518,-5.3518,-5.3518,-5.3518,-5.3518,-5.5128,-5.5179,-5.4896,-5.3571,-5.4119,-5.4223,0.0,-5.2285,-5.32,-5.1878,-5.0663,-5.0359,-5.1941,-4.9816,-4.8743,-5.1588,-5.0907,-5.0731,-5.2638,-5.3072,-5.3849,-5.5737,-5.4005,-5.2872,-5.334,-5.4856,-5.59,-5.6221,-5.757,-5.8481,-5.8644,-5.8644,-5.8698,-5.889,-5.889,-5.859,-5.8022,-5.7932,-5.7334,-5.6218,-5.6107,-5.5748,-5.5179,-5.5179,-5.5179,-5.5179,-5.5179,-5.5179,-5.5179,-5.5179,-5.5179,-5.5179,-5.5179,-5.5149,-5.4999,-5.4431,-5.4132,-5.3832,-5.2606,-5.2157,-5.2007,-5.1409,-5.1229,-5.1229,-5.1229,-5.188,-5.2945,-5.4084,-5.5093,-5.6087,-5.7222,-5.7628,-5.7701,-5.7701,-5.7808,-5.7881,-5.7881,-5.7881,-5.7881,-5.7881,-5.7881,-5.7881,-5.7881,-5.7881,-5.7881,-5.7881,-5.7881,-5.7881,-5.7881,-5.7814,-5.778,-5.778,-5.7036,-5.6021,-5.4702,-5.3923,-5.3518,-5.3518,-5.3518,-5.3518,-5.3518,-5.3518,-5.3518,-5.3518,-5.3518,-5.3518,-5.3518,-5.3518,-5.3518,-5.3518,-5.3518,-5.3518,-5.4976,-5.4827,-5.4492,-5.4812,-5.4678,-5.4422,-5.4425,-5.4446,-5.4323,-5.3719,-5.2541,-5.1929,-5.2621,-5.1851,-5.1621,-5.2972,-5.2924,-5.3016,-5.3913,-5.4818,-5.5709,-5.6565,-5.6555,-5.652,-5.6725,-5.7394,-5.7871,-5.8081,-5.8743,-5.9099,-5.9099,-5.9099,-5.9099,-5.9099,-5.9099,-5.8979,-5.871,-5.8321,-5.7842,-5.7304,-5.6526,-5.6017,-5.5748,-5.5359,-5.5179,-5.5179,-5.5179,-5.5179,-5.5179,-5.5179,-5.5179,-5.5179,-5.5179,-5.5179,-5.5149,-5.488,-5.4551,-5.4132,-5.3563,-5.2845,-5.2157,-5.1887,-5.1528,-5.1229,-5.1229,-5.1496,-5.2154,-5.3296,-5.3439,-5.3538,-5.4681,-5.497,-5.497,-5.497,-5.5968,-5.6925,-5.6925,-5.7409,-5.7881,-5.7881,-5.7881,-5.7881,-5.7881,-5.7881,-5.7881,-5.7881,-5.7881,-5.7881,-5.7881,-5.7881,-5.7712,-5.7306,-5.6968,-5.619,-5.4702,-5.4329,-5.3957,-5.3518,-5.3518,-5.3518,-5.3518,-5.3518,-5.3518,-5.3518,-5.3518,-5.3518,-5.3518,-5.3518,-5.3518,-5.3518,-5.3518,-5.3518,-5.5432,-5.5233,-5.5031,-5.6199,-5.5617,-5.5201,-5.6765,-5.6391,-5.5779,-5.5779,-5.471,-5.3922,-5.4375,-5.4057,-5.4016,-5.4883,-5.5018,-5.5211,-5.5618,-5.6679,-5.7384,-5.7384,-5.8386,-5.9099,-5.9099,-5.9099,-5.9099,-5.9099,-5.9099,-5.9099,-5.9099,-5.9099,-5.9099,-5.9099,-5.9099,-5.9099,-5.9099,-5.862,-5.8291,-5.8112,-5.6974,-5.6346,-5.6188,-5.5478,-5.5179,-5.5179,-5.5179,-5.5179,-5.5179,-5.5179,-5.5179,-5.5179,-5.5179,-5.5179,-5.5179,-5.5179,-5.488,-5.4461,-5.4281,-5.3563,-5.2695,-5.2306,-5.1887,-5.1439,-5.1259,-5.1433,-5.1865,-5.2664,-5.253,-5.2305,-5.3165,-5.3352,-5.3439,-5.3742,-5.5052,-5.6282,-5.6624,-5.7335,-5.7881,-5.7881,-5.7881,-5.7881,-5.7881,-5.7881,-5.7881,-5.7881,-5.7881,-5.7881,-5.7881,-5.7881,-5.7679,-5.7171,-5.6934,-5.6292,-5.5006,-5.4702,-5.4296,-5.3551,-5.3518,-5.3518,-5.3518,-5.3518,-5.3518,-5.3518,-5.3518,-5.3518,-5.3518,-5.3518,-5.3518,-5.3518,-5.3518,-5.3518,-5.7034,-5.6982,-5.7012,-5.7064,-5.7064,-5.7012,-5.7094,-5.755,-5.7975,-5.7975,-5.7251,-5.7073,-5.8629,-5.6423,-5.5357,-5.8411,-5.7664,-5.7216,-5.8743,-5.8991,-5.9045,-5.9045,-5.9045,-5.9099,-5.9099,-5.9099,-5.9099,-5.9099,-5.9099,-5.9099,-5.9099,-5.9099,-5.9099,-5.9099,-5.9099,-5.9099,-5.9099,-5.9069,-5.874,-5.8112,-5.7393,-5.6765,-5.6188,-5.5478,-5.5179,-5.5179,-5.5179,-5.5179,-5.5179,-5.5179,-5.5179,-5.5179,-5.5179,-5.5179,-5.5179,-5.5179,-5.5179,-5.5059,-5.4431,-5.4192,-5.3922,-5.2636,-5.2187,-5.2067,-5.1409,-5.1972,-5.2856,-5.29,-5.3656,-5.4505,-5.4547,-5.4547,-5.4838,-5.5817,-5.6165,-5.6476,-5.7591,-5.7881,-5.7881,-5.7881,-5.7881,-5.7881,-5.7881,-5.7881,-5.7881,-5.7881,-5.7881,-5.7881,-5.7881,-5.7881,-5.7881,-5.7848,-5.7239,-5.6494,-5.575,-5.5006,-5.4296,-5.3551,-5.3518,-5.3518,-5.3518,-5.3518,-5.3518,-5.3518,-5.3518,-5.3518,-5.3518,-5.3518,-5.3518,-5.3518,-5.3518,-5.3518,-5.7214,-5.7423,-5.7782,-5.7782,-5.7782,-5.7902,-5.8321,-5.862,-5.877,-5.877,-5.854,-5.844,-5.8991,-5.8221,-5.786,-5.8936,-5.8634,-5.8495,-5.9045,-5.9099,-5.9099,-5.9099,-5.9099,-5.9099,-5.9099,-5.9099,-5.9099,-5.9099,-5.9099,-5.9099,-5.9099,-5.9099,-5.9099,-5.9099,-5.9099,-5.9099,-5.9099,-5.9099,-5.9009,-5.877,-5.7633,-5.6526,-5.5508,-5.5299,-5.5179,-5.5179,-5.5179,-5.5179,-5.5179,-5.5179,-5.5179,-5.5179,-5.5179,-5.5179,-5.5179,-5.5179,-5.5179,-5.5149,-5.494,-5.4581,-5.4132,-5.3683,-5.2935,-5.2157,-5.1947,-5.181,-5.1773,-5.1773,-5.262,-5.3483,-5.3483,-5.4041,-5.4713,-5.5052,-5.5658,-5.6321,-5.6701,-5.7372,-5.7881,-5.7881,-5.7881,-5.7881,-5.7881,-5.7881,-5.7881,-5.7881,-5.7881,-5.7881,-5.7881,-5.7881,-5.7881,-5.7881,-5.7679,-5.7036,-5.5783,-5.548,-5.4803,-5.3585,-5.3518,-5.3518,-5.3518,-5.3518,-5.3518,-5.3518,-5.3518,-5.3518,-5.3518,-5.3518,-5.3518,-5.3518,-5.3518,-5.3518,-5.7932,-5.8141,-5.8471,-5.8471,-5.8471,-5.859,-5.9009,-5.9099,-5.9099,-5.9099,-5.9099,-5.9099,-5.9099,-5.9099,-5.9099,-5.9099,-5.9099,-5.9099,-5.9099,-5.9099,-5.9099,-5.9099,-5.9099,-5.9099,-5.9099,-5.9099,-5.9099,-5.9099,-5.9099,-5.9099,-5.9099,-5.9099,-5.9099,-5.9099,-5.9099,-5.9099,-5.9099,-5.9099,-5.886,-5.8381,-5.7513,-5.6436,-5.5179,-5.5179,-5.5179,-5.5179,-5.5179,-5.5179,-5.5179,-5.5179,-5.5179,-5.5179,-5.5179,-5.5179,-5.5179,-5.5179,-5.5451,-5.5769,-5.5381,-5.491,-5.4521,-5.4281,-5.3443,-5.2582,-5.2739,-5.2038,-5.1293,-5.1681,-5.235,-5.29,-5.29,-5.3742,-5.4713,-5.5084,-5.573,-5.6321,-5.6701,-5.7372,-5.7881,-5.7881,-5.7881,-5.7881,-5.7881,-5.7881,-5.7881,-5.7881,-5.7881,-5.7881,-5.7881,-5.7881,-5.7881,-5.7881,-5.7881,-5.7306,-5.5852,-5.5681,-5.5074,-5.3585,-5.3518,-5.3518,-5.3518,-5.3518,-5.3518,-5.3518,-5.3518,-5.3518,-5.3518,-5.3518,-5.3518,-5.3518,-5.3518,-5.3518,-5.9099,-5.9099,-5.9099,-5.9099,-5.9099,-5.9099,-5.9099,-5.9099,-5.9099,-5.9099,-5.9099,-5.9099,-5.9099,-5.9099,-5.9099,-5.9099,-5.9099,-5.9099,-5.9099,-5.9099,-5.9099,-5.9099,-5.9099,-5.9099,-5.9099,-5.9099,-5.9099,-5.9099,-5.9099,-5.9099,-5.9099,-5.9099,-5.9099,-5.9099,-5.9099,-5.9099,-5.9099,-5.9099,-5.8441,-5.7094,-5.7094,-5.6436,-5.5179,-5.5179,-5.5179,-5.5179,-5.5179,-5.5179,-5.5179,-5.5179,-5.5179,-5.5179,-5.5179,-5.5179,-5.5179,-5.5179,-5.5967,-5.6848,-5.567,-5.533,-5.526,-5.456,-5.3871,-5.3363,-5.3837,-5.2704,-5.1496,-5.2664,-5.3033,-5.3077,-5.3077,-5.3913,-5.5043,-5.6047,-5.6282,-5.6586,-5.7665,-5.7881,-5.7881,-5.7881,-5.7881,-5.7881,-5.7881,-5.7881,-5.7881,-5.7881,-5.7881,-5.7881,-5.7881,-5.7881,-5.7881,-5.7881,-5.7881,-5.7306,-5.5886,-5.575,-5.5108,-5.3653,-5.3518,-5.3518,-5.3518,-5.3518,-5.3518,-5.3518,-5.3518,-5.3518,-5.3518,-5.3518,-5.3518,-5.3518,-5.3518,-5.3518,-5.9099,-5.9099,-5.9099,-5.9099,-5.9099,-5.9099,-5.9099,-5.9099,-5.9099,-5.9099,-5.9099,-5.9099,-5.9099,-5.9099,-5.9099,-5.9099,-5.9099,-5.9099,-5.9099,-5.9099,-5.9099,-5.9099,-5.9099,-5.9099,-5.9099,-5.9099,-5.9099,-5.9099,-5.9099,-5.9099,-5.9099,-5.9099,-5.9099,-5.9099,-5.9099,-5.9099,-5.9099,-5.9099,-5.8441,-5.7094,-5.7094,-5.6436,-5.5179,-5.5179,-5.5179,-5.5179,-5.5179,-5.5179,-5.5179,-5.5179,-5.5179,-5.5179,-5.5179,-5.5179,-5.5179,-5.5179,-5.5967,-5.6943,-5.6686,-5.7134,-5.7714,-5.6614,-5.5466,-5.4576,-5.4622,-5.362,-5.2678,-5.3828,-5.4723,-5.5377,-5.5377,-5.6204,-5.7147,-5.7372,-5.748,-5.7554,-5.7845,-5.7881,-5.7881,-5.7881,-5.7881,-5.7881,-5.7881,-5.7881,-5.7881,-5.7881,-5.7881,-5.7881,-5.7881,-5.7881,-5.7881,-5.7881,-5.7881,-5.7509,-5.6596,-5.6021,-5.531,-5.4363,-5.3788,-5.3518,-5.3518,-5.3518,-5.3518,-5.3518,-5.3518,-5.3518,-5.3518,-5.3518,-5.3518,-5.3518,-5.3518,-5.3518,-5.9099,-5.9099,-5.9099,-5.9099,-5.9099,-5.9099,-5.9099,-5.9099,-5.9099,-5.9099,-5.9099,-5.9099,-5.9099,-5.9099,-5.9099,-5.9099,-5.9099,-5.9099,-5.9099,-5.9099,-5.9099,-5.9099,-5.9099,-5.9099,-5.9099,-5.9099,-5.9099,-5.9099,-5.9099,-5.9099,-5.9099,-5.9099,-5.9099,-5.9099,-5.9099,-5.9099,-5.9099,-5.883,-5.8141,-5.7094,-5.6825,-5.6166,-5.5179,-5.5179,-5.5179,-5.5179,-5.5179,-5.5179,-5.5179,-5.5179,-5.5179,-5.5179,-5.5179,-5.5501,-5.5986,-5.5986,-5.7086,-5.8555,-5.8555,-5.939,-6.0118,-5.8328,-5.6864,-5.5821,-5.6264,-5.5106,-5.3871,-5.497,-5.577,-5.6204,-5.6204,-5.7039,-5.7881,-5.7881,-5.7881,-5.7881,-5.7881,-5.7881,-5.7881,-5.7881,-5.7881,-5.7881,-5.7881,-5.7881,-5.7881,-5.7881,-5.7881,-5.7881,-5.7881,-5.7881,-5.7881,-5.7881,-5.7881,-5.7577,-5.6867,-5.6122,-5.5412,-5.4634,-5.3923,-5.3518,-5.3518,-5.3518,-5.3518,-5.3518,-5.3518,-5.3518,-5.3518,-5.3518,-5.3518,-5.3518,-5.3518,-5.3518,-5.9099,-5.9099,-5.9099,-5.9099,-5.9099,-5.9099,-5.9099,-5.9099,-5.9099,-5.9099,-5.9099,-5.9099,-5.9099,-5.9099,-5.9099,-5.9099,-5.9099,-5.9099,-5.9099,-5.9099,-5.9099,-5.9099,-5.9099,-5.9099,-5.9099,-5.9099,-5.9099,-5.9099,-5.9099,-5.9099,-5.9099,-5.9099,-5.9099,-5.9099,-5.9099,-5.9099,-5.9099,-5.8471,-5.7782,-5.7094,-5.6466,-5.5837,-5.5179,-5.5179,-5.528,-5.5451,-5.5451,-5.5501,-5.57,-5.57,-5.57,-5.57,-5.57,-5.6329,-5.7245,-5.7245,-5.8645,-6.0586,-6.0586,-6.1399,-6.203,-5.974,-5.8073,-5.713,-5.8052,-5.667,-5.5043,-5.6126,-5.6398,-5.6398,-5.6398,-5.7185,-5.7881,-5.7881,-5.7881,-5.7881,-5.7881,-5.7881,-5.7881,-5.7881,-5.7881,-5.7881,-5.7881,-5.7881,-5.7881,-5.7881,-5.7881,-5.7881,-5.7881,-5.7881,-5.7881,-5.7881,-5.7881,-5.7645,-5.7002,-5.619,-5.5446,-5.4769,-5.3957,-5.3518,-5.3518,-5.3518,-5.3518,-5.3518,-5.3518,-5.3518,-5.3518,-5.3518,-5.3518,-5.3518,-5.3518,-5.3518,-5.9099,-5.9099,-5.9099,-5.9099,-5.9099,-5.9099,-5.9099,-5.9099,-5.9099,-5.9099,-5.9099,-5.9099,-5.9099,-5.9099,-5.9099,-5.9099,-5.9099,-5.9099,-5.9099,-5.9099,-5.9099,-5.9099,-5.9099,-5.9099,-5.9099,-5.9099,-5.9099,-5.9099,-5.9099,-5.9099,-5.9099,-5.9099,-5.9099,-5.9099,-5.9099,-5.9099,-5.9099,-5.8471,-5.7782,-5.7094,-5.6466,-5.5837,-5.5179,-5.5179,-5.572,-5.6656,-5.6656,-5.7276,-5.8177,-5.8177,-5.8177,-5.8177,-5.8177,-5.8314,-5.8496,-5.8496,-5.939,-6.0586,-6.0586,-6.1399,-6.2183,-6.0745,-5.9348,-5.8207,-5.8297,-5.7197,-5.6165,-5.7297,-5.7591,-5.7591,-5.7591,-5.7772,-5.7881,-5.7881,-5.7881,-5.7881,-5.7881,-5.7881,-5.7881,-5.7881,-5.7881,-5.7881,-5.7881,-5.7881,-5.7881,-5.7881,-5.7881,-5.7881,-5.7881,-5.7881,-5.7881,-5.7881,-5.7881,-5.7848,-5.7712,-5.6461,-5.5683,-5.5547,-5.4262,-5.3518,-5.3518,-5.3518,-5.3518,-5.3518,-5.3518,-5.3518,-5.3518,-5.3518,-5.3518,-5.3518,-5.3518,-5.3518,-5.9099,-5.9099,-5.9099,-5.9099,-5.9099,-5.9099,-5.9099,-5.9099,-5.9099,-5.9099,-5.9099,-5.9099,-5.9099,-5.9099,-5.9099,-5.9099,-5.9099,-5.9099,-5.9099,-5.9099,-5.9099,-5.9099,-5.9099,-5.9099,-5.9099,-5.9099,-5.9099,-5.9099,-5.9099,-5.9099,-5.9099,-5.9099,-5.9099,-5.9099,-5.9099,-5.8949,-5.859,-5.8555,-5.8217,-5.7547,-5.7536,-5.7349,-5.7039,-5.7039,-5.7418,-5.7946,-5.7946,-5.8268,-5.8812,-5.8812,-5.8812,-5.8812,-5.8812,-5.917,-5.974,-5.974,-6.0501,-6.1554,-6.1554,-6.1951,-6.2234,-6.1281,-6.0217,-5.9354,-5.9243,-5.8246,-5.7222,-5.7772,-5.7881,-5.7881,-5.7881,-5.7881,-5.7881,-5.7881,-5.7881,-5.7881,-5.7881,-5.7881,-5.7881,-5.7881,-5.7881,-5.7881,-5.7881,-5.7881,-5.7881,-5.7881,-5.7881,-5.7881,-5.7881,-5.7881,-5.7881,-5.7881,-5.7881,-5.7881,-5.7881,-5.6562,-5.5681,-5.5681,-5.4329,-5.3518,-5.3518,-5.3518,-5.3518,-5.3518,-5.3518,-5.3518,-5.3518,-5.3518,-5.3518,-5.3518,-5.3518,-5.3518,-5.9099,-5.9099,-5.9099,-5.9099,-5.9099,-5.9099,-5.9099,-5.9099,-5.9099,-5.9099,-5.9099,-5.9099,-5.9099,-5.9099,-5.9099,-5.9099,-5.9099,-5.9099,-5.9099,-5.9099,-5.9099,-5.9099,-5.9099,-5.9099,-5.9099,-5.9099,-5.9099,-5.9099,-5.9099,-5.9099,-5.9099,-5.9099,-5.9099,-5.9099,-5.9099,-5.8877,-5.8505,-5.8776,-5.8714,-5.84,-5.8663,-5.8812,-5.8812,-5.8812,-5.8947,-5.917,-5.917,-5.9346,-5.9566,-5.9566,-5.9566,-5.9566,-5.9566,-6.0161,-6.0995,-6.0995,-6.1595,-6.2381,-6.2381,-6.2381,-6.2279,-6.1535,-6.0757,-6.008,-5.9911,-5.893,-5.7881,-5.7881,-5.7881,-5.7881,-5.7881,-5.7881,-5.7881,-5.7881,-5.7881,-5.7881,-5.7881,-5.7881,-5.7881,-5.7881,-5.7881,-5.7881,-5.7881,-5.7881,-5.7881,-5.7881,-5.7881,-5.7881,-5.7881,-5.7881,-5.7881,-5.7881,-5.7881,-5.7881,-5.7881,-5.6697,-5.5886,-5.5681,-5.4465,-5.3653,-5.3518,-5.3518,-5.3518,-5.3518,-5.3518,-5.3518,-5.3518,-5.3518,-5.3518,-5.3518,-5.3518,-5.3518,-5.9099,-5.9099,-5.9099,-5.9099,-5.9099,-5.9099,-5.9099,-5.9099,-5.9099,-5.9099,-5.9099,-5.9099,-5.9099,-5.9099,-5.9099,-5.9099,-5.9099,-5.9099,-5.9099,-5.9099,-5.9099,-5.9099,-5.9099,-5.9099,-5.9099,-5.9099,-5.9099,-5.9099,-5.9099,-5.9099,-5.9099,-5.9099,-5.9099,-5.9099,-5.9099,-5.9297,-5.9725,-5.9197,-5.9121,-5.9639,-5.9074,-5.8812,-5.8812,-5.8812,-5.939,-6.0417,-6.0417,-6.1036,-6.207,-6.207,-6.207,-6.207,-6.207,-6.211,-6.2263,-6.2263,-6.2302,-6.2381,-6.2381,-6.2381,-6.2279,-6.1535,-6.0757,-5.9979,-5.9302,-5.8524,-5.7881,-5.7881,-5.7881,-5.7881,-5.7881,-5.7881,-5.7881,-5.7881,-5.7881,-5.7881,-5.7881,-5.7881,-5.7881,-5.7881,-5.7881,-5.7881,-5.7881,-5.7881,-5.7881,-5.7881,-5.7881,-5.7881,-5.7881,-5.7881,-5.7881,-5.7881,-5.7881,-5.7881,-5.7881,-5.7171,-5.6427,-5.575,-5.4938,-5.4194,-5.3551,-5.3518,-5.3518,-5.3518,-5.3518,-5.3518,-5.3518,-5.3518,-5.3518,-5.3518,-5.3518,-5.3518,-5.9099,-5.9099,-5.9099,-5.9099,-5.9099,-5.9099,-5.9099,-5.9099,-5.9099,-5.9099,-5.9099,-5.9099,-5.9099,-5.9099,-5.9099,-5.9099,-5.9099,-5.9099,-5.9099,-5.9099,-5.9099,-5.9099,-5.9099,-5.9099,-5.9099,-5.9099,-5.9446,-6.0202,-6.0224,-6.0588,-6.1376,-6.0691,-6.0224,-6.0224,-6.0597,-6.0657,-6.0502,-6.0512,-6.0444,-6.0294,-6.075,-6.0953,-6.0953,-6.0953,-6.1235,-6.1676,-6.1676,-6.1951,-6.2381,-6.2381,-6.2381,-6.2381,-6.2381,-6.2381,-6.2381,-6.2381,-6.2381,-6.2381,-6.2381,-6.2381,-6.2178,-6.096,-6.0351,-5.9945,-5.9235,-5.849,-5.7881,-5.7881,-5.7881,-5.7881,-5.7881,-5.7881,-5.7881,-5.7881,-5.7881,-5.7881,-5.7881,-5.7881,-5.7881,-5.7881,-5.7881,-5.7881,-5.7881,-5.7881,-5.7881,-5.7881,-5.7881,-5.7881,-5.7881,-5.7881,-5.7881,-5.7881,-5.7881,-5.7881,-5.7881,-5.7205,-5.6494,-5.5749,-5.5006,-5.4262,-5.3551,-5.3518,-5.3518,-5.3518,-5.3518,-5.3518,-5.3518,-5.3518,-5.3518,-5.3518,-5.3518,-5.3518,-5.9207,-5.9099,-5.9099,-5.9099,-5.9392,-5.9683,-5.9683,-5.9683,-5.9683,-5.9683,-5.9339,-5.9099,-5.9099,-5.9099,-5.9099,-5.9099,-5.9099,-5.9099,-5.9099,-5.9099,-5.9099,-5.9099,-5.9099,-5.9099,-5.9099,-5.9446,-6.0202,-6.1496,-6.1596,-6.1901,-6.2668,-6.2121,-6.168,-6.1315,-6.1694,-6.1641,-6.1109,-6.1426,-6.1438,-6.1119,-6.1991,-6.2381,-6.2381,-6.2381,-6.2381,-6.2381,-6.2381,-6.2381,-6.2381,-6.2381,-6.2381,-6.2381,-6.2381,-6.2381,-6.2381,-6.2381,-6.2381,-6.2381,-6.2381,-6.2381,-6.2178,-6.0892,-6.0283,-5.9945,-5.9235,-5.849,-5.7881,-5.7881,-5.7881,-5.7881,-5.7881,-5.7881,-5.7881,-5.7881,-5.7881,-5.7881,-5.7881,-5.7881,-5.7881,-5.7881,-5.7881,-5.7881,-5.7881,-5.7881,-5.7881,-5.7881,-5.7881,-5.7881,-5.7881,-5.7881,-5.7881,-5.7881,-5.7881,-5.7881,-5.7881,-5.7408,-5.6731,-5.5784,-5.5209,-5.4499,-5.3551,-5.3518,-5.3518,-5.3518,-5.3518,-5.3518,-5.3518,-5.3518,-5.3518,-5.3518,-5.3518,-5.3518,-5.9446,-5.9099,-5.9099,-5.9099,-6.0045,-6.0989,-6.0989,-6.0989,-6.0989,-6.0989,-5.997,-5.9099,-5.9099,-5.9099,-5.9099,-5.9099,-5.9099,-5.9099,-5.9099,-5.9099,-5.9099,-5.9099,-5.9099,-5.9099,-5.9099,-6.0255,-6.1546,-6.2908,-6.3004,-6.2668,-6.1917,-6.3095,-6.3186,-6.1933,-6.1901,-6.1833,-6.162,-6.1587,-6.185,-6.2381,-6.2381,-6.2381,-6.2381,-6.2381,-6.2381,-6.2381,-6.2381,-6.2381,-6.2381,-6.2381,-6.2381,-6.2381,-6.2381,-6.2381,-6.2381,-6.2381,-6.2381,-6.2381,-6.2381,-6.2381,-6.2279,-6.1535,-6.0757,-5.9945,-5.9235,-5.849,-5.7881,-5.7881,-5.7881,-5.7881,-5.7881,-5.7881,-5.7881,-5.7881,-5.7881,-5.7881,-5.7881,-5.7881,-5.7881,-5.7881,-5.7881,-5.7881,-5.7881,-5.7881,-5.7881,-5.7881,-5.7881,-5.7881,-5.7881,-5.7881,-5.7881,-5.7881,-5.7881,-5.7881,-5.7881,-5.7881,-5.7273,-5.5818,-5.5681,-5.504,-5.3551,-5.3518,-5.3518,-5.3518,-5.3518,-5.3518,-5.3518,-5.3518,-5.3518,-5.3518,-5.3518,-5.3518,-6.1878,-6.1778,-6.1778,-6.1778,-6.2076,-6.239,-6.239,-6.239,-6.239,-6.239,-6.2076,-6.1778,-6.1778,-6.1778,-6.1778,-6.1778,-6.1778,-6.1778,-6.1778,-6.1778,-6.1778,-6.1778,-6.1778,-6.1778,-6.1778,-6.2094,-6.2684,-6.3499,-6.3558,-6.3624,-6.3753,-6.4103,-6.3762,-6.2468,-6.2802,-6.2966,-6.2904,-6.2401,-6.2226,-6.2381,-6.2381,-6.2381,-6.2381,-6.2381,-6.2381,-6.2381,-6.2381,-6.2381,-6.2381,-6.2381,-6.2381,-6.2381,-6.2381,-6.2381,-6.2381,-6.2381,-6.2381,-6.2381,-6.2381,-6.2381,-6.2279,-6.1535,-6.1129,-6.0689,-5.9404,-5.849,-5.7881,-5.7881,-5.7881,-5.7881,-5.7881,-5.7881,-5.7881,-5.7881,-5.7881,-5.7881,-5.7881,-5.7881,-5.7881,-5.7881,-5.7881,-5.7881,-5.7881,-5.7881,-5.7881,-5.7881,-5.7881,-5.7881,-5.7881,-5.7881,-5.7881,-5.7881,-5.7881,-5.7881,-5.7881,-5.7881,-5.7273,-5.5818,-5.5681,-5.504,-5.3551,-5.3518,-5.3518,-5.3518,-5.3518,-5.3518,-5.3518,-5.3518,-5.3518,-5.3518,-5.3518,-5.3518,-6.3292,-6.3004,-6.3004,-6.3004,-6.3387,-6.3685,-6.3685,-6.3685,-6.3685,-6.3685,-6.3307,-6.3004,-6.3004,-6.3004,-6.3004,-6.3004,-6.3004,-6.3004,-6.3004,-6.3004,-6.3004,-6.3004,-6.2748,-6.2779,-6.325,-6.3024,-6.3206,-6.4052,-6.4371,-6.4537,-6.4607,-6.485,-6.4521,-6.3472,-6.3504,-6.3396,-6.3091,-6.2618,-6.2381,-6.2381,-6.2381,-6.2381,-6.2381,-6.2381,-6.2381,-6.2381,-6.2381,-6.2381,0.0,-6.2381,-6.2381,-6.2381,-6.2381,-6.2381,-6.2381,-6.2381,-6.2381,-6.2381,-6.2381,-6.2381,-6.2313,-6.1873,-6.1332,-6.0622,-5.9404,-5.849,-5.7881,-5.7881,-5.7881,-5.7881,-5.7881,-5.7881,-5.7881,-5.7881,-5.7881,-5.7881,-5.7881,-5.7881,-5.7881,-5.7881,-5.7881,-5.7881,-5.7881,-5.7881,-5.7881,-5.7881,-5.7881,-5.7881,-5.7881,-5.7881,-5.7881,-5.7881,-5.7881,-5.7881,-5.7881,-5.7881,-5.7273,-5.5818,-5.5681,-5.504,-5.3551,-5.3518,-5.3518,-5.3518,-5.3518,-5.3518,-5.3518,-5.3518,-5.3518,-5.3518,-5.3518,-5.3518,0.0,-6.3292,-6.3292,-6.3292,-6.4184,-6.5036,-6.5036,-6.5036,0.0,-6.5036,-6.4091,-6.3292,-6.3292,-6.3292,-6.3292,-6.3292,-6.3227,-6.3195,-6.3195,-6.3163,-6.3131,-6.3131,-6.2505,-6.2553,-6.3748,-6.3243,-6.3311,-6.4498,-6.5222,-6.5324,-6.4647,-6.5256,-6.529,-6.4613,-6.3937,-6.326,-6.255,-6.255,-6.255,-6.255,-6.255,-6.2516,-6.2482,-6.2482,-6.2448,-6.2381,-6.2381,-6.2381,-6.2381,-6.2381,-6.2381,-6.2381,-6.2381,-6.2381,-6.2381,-6.2381,-6.2381,-6.2381,-6.2381,-6.2381,-6.2381,-6.2381,-6.14,-6.0047,-5.9302,-5.8524,-5.7881,-5.7881,-5.7881,-5.7881,-5.7881,-5.7881,-5.7881,-5.7881,-5.7881,-5.7881,-5.7881,-5.7881,-5.7881,-5.7881,-5.7881,-5.7881,-5.7881,-5.7881,-5.7881,-5.7881,-5.7881,-5.7881,-5.7881,-5.7881,-5.7881,-5.7881,-5.7881,-5.7881,-5.7881,-5.7881,-5.7273,-5.5886,-5.5715,-5.5074,-5.3653,-5.3551,-5.3518,-5.3518,-5.3518,-5.3518,-5.3518,-5.3518,-5.3518,-5.3518,-5.3518,-5.3518,-6.6062,0.0,-6.5898,-6.5898,-6.6148,-6.632,0.0,-6.632,-6.632,-6.632,-6.6105,-6.5898,-6.5898,-6.5898,-6.5898,-6.5898,-6.543,-6.5063,-6.5063,-6.4595,-6.4227,-6.4227,-6.4094,-6.4078,-6.4404,-6.4236,-6.4293,-6.4613,-6.4749,-6.4783,-6.4613,-6.4749,-6.4783,-6.4613,-6.4444,-6.4275,-6.4072,-6.4072,-6.4072,-6.4072,-6.4072,-6.3802,-6.326,-6.326,-6.2922,-6.2381,-6.2381,-6.2381,-6.2381,-6.2381,-6.2381,-6.2381,-6.2381,-6.2381,-6.2381,-6.2381,-6.2381,-6.2381,-6.2381,-6.2381,-6.2381,-6.2381,-6.1772,-6.0858,-6.008,-5.893,-5.7881,-5.7881,-5.7881,-5.7881,-5.7881,-5.7881,-5.7881,-5.7881,-5.7881,-5.7881,-5.7881,-5.7881,-5.7881,-5.7881,-5.7881,-5.7881,-5.7881,-5.7881,-5.7881,-5.7881,-5.7881,-5.7881,-5.7881,-5.7881,-5.7881,-5.7881,-5.7881,-5.7881,-5.7881,-5.7881,-5.7509,-5.6596,-5.6021,-5.531,-5.4363,-5.3788,-5.3518,-5.3518,-5.3518,-5.3518,-5.3518,-5.3518,-5.3518,-5.3518,-5.3518,-5.3518,-6.6305,-6.6542,-6.6812,-6.6812,-6.6812,-6.6812,-6.6812,-6.6812,-6.6812,-6.6812,-6.6542,-6.6305,-6.6305,-6.6034,-6.5797,-6.5797,-6.5459,-6.5189,-6.5189,-6.485,-6.4613,-6.4613,-6.4309,-6.4106,-6.4106,-6.4106,-6.4106,-6.4106,-6.4715,-6.5087,-6.5087,-6.5425,-6.5628,-6.5628,-6.5628,-6.529,-6.4613,-6.4613,-6.4613,-6.4613,-6.4613,-6.441,-6.4005,-6.4005,-6.3599,-6.2888,-6.2888,-6.2719,-6.2381,-6.2381,-6.2381,-6.2381,-6.2381,-6.2381,-6.2381,-6.2381,-6.2381,-6.2381,-6.2381,-6.2381,-6.2381,-6.2381,-6.1907,-6.1231,-6.0791,-5.9607,-5.8321,-5.7983,-5.7881,-5.7881,-5.7881,-5.7881,-5.7881,-5.7881,-5.7881,-5.7881,-5.7881,-5.7881,-5.7881,-5.7881,-5.7881,-5.7881,-5.7881,-5.7881,-5.7881,-5.7881,-5.7881,-5.7881,-5.7881,-5.7881,-5.7881,-5.7881,-5.7881,-5.7881,-5.7881,-5.7881,-5.7577,-5.6867,-5.6122,-5.5378,-5.4634,-5.389,-5.3518,-5.3518,-5.3518,-5.3518,-5.3518,-5.3518,-5.3518,-5.3518,-5.3518,-5.3518,-6.5527,-6.6,-6.6474,-6.6474,-6.6474,-6.6474,-6.6474,-6.6474,-6.6474,-6.6474,-6.5967,-6.5527,-6.5527,-6.5019,-6.4613,-6.4613,-6.4512,-6.4377,-6.4275,-6.4275,-6.4275,-6.4275,-6.3734,-6.3396,-6.3497,-6.3531,-6.3599,-6.3835,-6.4986,-6.573,-6.5865,-6.6474,-6.6812,-6.6812,-6.6812,-6.6203,-6.4952,-6.4952,-6.4952,-6.4952,-6.4952,-6.4884,-6.4783,-6.4783,-6.4309,-6.3531,-6.3531,-6.3091,-6.2381,-6.2381,-6.2381,-6.2381,-6.2381,-6.2381,-6.2381,-6.2381,-6.2381,-6.2381,-6.2381,-6.2381,-6.2381,-6.2381,-6.1975,-6.1467,-6.1332,-6.0317,-5.9032,-5.8287,-5.7983,-5.7881,-5.7881,-5.7881,-5.7881,-5.7881,-5.7881,-5.7881,-5.7881,-5.7881,-5.7881,-5.7881,-5.7881,-5.7881,-5.7881,-5.7881,-5.7881,-5.7881,-5.7881,-5.7881,-5.7881,-5.7881,-5.7881,-5.7881,-5.7881,-5.7881,-5.7881,-5.7881,-5.7611,-5.7002,-5.6292,-5.548,-5.4634,-5.389,-5.3518,-5.3518,-5.3518,-5.3518,-5.3518,-5.3518,-5.3518,-5.3518,-5.3518,-5.3518,-6.4783,-6.485,-6.4952,-6.4952,-6.4952,-6.4952,-6.4952,-6.4952,-6.4952,-6.4952,-6.485,-6.4783,-6.4783,-6.4681,-6.4613,-6.4613,-6.4072,-6.3463,-6.2821,-6.2719,-6.2719,-6.2719,-6.2618,-6.2821,-6.3463,-6.3531,-6.4038,-6.5256,-6.5561,-6.5967,-6.6609,-6.6745,-6.6812,-6.6812,-6.6812,-6.6711,-6.6474,-6.6474,-6.6474,-6.6474,-6.6474,-6.6136,-6.5527,-6.5527,-6.4783,-6.3531,-6.3531,-6.3091,-6.2381,-6.2381,-6.2381,-6.2381,-6.2381,-6.2381,-6.2381,-6.2381,-6.2381,-6.2381,-6.2381,-6.2381,-6.2381,-6.2381,-6.2313,-6.211,-6.1501,-6.0655,-5.9776,-5.9066,-5.8389,-5.7881,-5.7881,-5.7881,-5.7881,-5.7881,-5.7881,-5.7881,-5.7881,-5.7881,-5.7881,-5.7881,-5.7881,-5.7881,-5.7881,-5.7881,-5.7881,-5.7881,-5.7881,-5.7881,-5.7881,-5.7881,-5.7881,-5.7881,-5.7881,-5.7881,-5.7881,-5.7881,-5.7848,-5.7712,-5.7036,-5.6021,-5.4634,-5.389,-5.3518,-5.3518,-5.3518,-5.3518,-5.3518,-5.3518,-5.3518,-5.3518,-5.3518,-5.3518,-6.4005,-6.37,-6.3396,-6.3396,-6.4005,-6.4613,-6.4613,-6.4613,-6.4613,-6.4613,-6.4275,-6.4005,-6.4005,-6.3666,-6.3396,-6.3396,-6.3125,-6.2787,-6.2448,-6.2381,-6.2381,-6.2381,-6.2381,-6.2685,-6.3429,-6.3869,-6.4546,-6.5595,-6.6068,-6.644,-6.6779,-6.6812,-6.6812,-6.6812,-6.6812,-6.6812,-6.6812,-6.6812,-6.6812,-6.6812,-6.7291,-6.741,-6.7067,-6.7623,-6.7266,-6.6227,-6.5773,-6.5111,-6.4383,-6.3486,-6.3087,-6.3049,-6.2581,-6.2381,-6.2381,-6.2381,-6.2381,-6.2381,-6.2381,-6.2381,-6.2381,-6.2381,-6.2381,-6.2347,-6.2009,-6.1061,-6.0047,-5.9708,-5.8761,-5.7881,-5.7881,-5.7881,-5.7881,-5.7881,-5.7881,-5.7881,-5.7881,-5.7881,-5.7881,-5.7881,-5.7881,-5.7881,-5.7881,-5.7881,-5.7881,-5.7881,-5.7881,-5.7881,-5.7881,-5.7881,-5.7881,-5.7881,-5.7881,-5.7881,-5.7881,-5.7881,-5.7712,-5.734,-5.663,-5.5716,-5.4634,-5.389,-5.3518,-5.3518,-5.3518,-5.3518,-5.3518,-5.3518,-5.3518,-5.3518,-5.3518,-5.3518,-6.3747,-6.3299,-6.274,-6.2935,-6.3548,-6.4072,-6.4072,-6.4072,-6.4072,-6.4072,-6.3632,-6.326,-6.326,-6.2787,-6.2381,-6.2381,-6.2381,-6.2381,-6.2381,-6.2381,-6.2381,-6.2381,-6.255,-6.2956,-6.37,-6.441,-6.5155,-6.5899,-6.6474,-6.6812,-6.6812,-6.6812,-6.6812,-6.6812,-6.6812,-6.6938,-6.712,-6.712,-6.712,-6.712,-6.7866,-6.8305,-6.8572,-6.935,-6.9318,-6.8538,-6.7654,-6.6875,-6.6098,-6.4603,-6.4007,-6.3936,-6.3277,-6.2893,-6.2697,-6.2697,-6.2581,-6.2381,-6.2381,-6.2381,-6.2381,-6.2381,-6.2381,-6.2381,-6.2381,-6.1434,-6.0351,-6.0148,-5.9167,-5.8118,-5.7915,-5.7881,-5.7881,-5.7881,-5.7881,-5.7881,-5.7881,-5.7881,-5.7881,-5.7881,-5.7881,-5.7881,-5.7881,-5.7881,-5.7881,-5.7881,-5.7881,-5.7881,-5.7881,-5.7881,-5.7881,-5.7881,-5.7881,-5.7881,-5.7881,-5.7881,-5.7645,-5.7103,-5.6224,-5.5446,-5.4871,-5.3991,-5.3518,-5.3518,-5.3518,-5.3518,-5.3518,-5.3518,-5.3518,-5.3518,-5.3518,-5.3518,-6.4462,-6.4253,-6.3793,-6.4597,-6.3679,-6.255,-6.255,-6.255,-6.255,-6.255,-6.2516,-6.2482,-6.2482,-6.2415,-6.2381,-6.2381,-6.2381,-6.2381,-6.2381,-6.2381,-6.2381,-6.2381,-6.299,-6.3734,-6.4444,-6.5189,-6.5933,-6.6677,-6.6779,-6.6812,-6.6812,-6.6812,-6.6812,-6.6812,-6.6812,-6.7243,-6.8107,-6.8107,-6.8107,-6.8107,-6.815,-6.8685,-6.9566,-6.9672,-6.9318,-6.8538,-6.7654,-6.6875,-6.613,-6.5251,-6.49,-6.49,-6.4833,-6.4323,-6.361,-6.361,-6.3087,-6.2381,-6.2381,-6.2381,-6.2381,-6.2381,-6.2381,-6.2381,-6.2381,-6.1839,-6.1061,-6.0317,-5.9539,-5.8761,-5.8084,-5.7881,-5.7881,-5.7881,-5.7881,-5.7881,-5.7881,-5.7881,-5.7881,-5.7881,-5.7881,-5.7881,-5.7881,-5.7881,-5.7881,-5.7881,-5.7881,-5.7881,-5.7881,-5.7881,-5.7881,-5.7881,-5.7881,-5.7881,-5.7881,-5.7881,-5.7881,-5.7814,-5.6494,-5.5683,-5.5649,-5.4262,-5.3518,-5.3518,-5.3518,-5.3518,-5.3518,-5.3518,-5.3518,-5.3518,-5.3518,-5.3518,-6.4833,-6.4766,-6.4598,-6.4933,-6.4494,-6.4042,-6.4042,-6.4042,-6.4042,-6.4042,-6.4042,-6.3864,-6.3314,-6.3237,-6.3011,-6.2498,-6.2381,-6.2381,-6.2381,-6.2381,-6.2381,-6.2381,-6.3057,-6.3802,-6.4546,-6.5256,-6.6,-6.6745,-6.6812,-6.7037,-6.7662,-6.7668,-6.7945,-6.8569,-6.8607,-6.8758,-6.9131,-6.9131,-6.9422,-6.9987,-6.9987,-7.0194,-7.0601,-7.1159,-7.1303,-7.0972,-6.96,-6.8875,-6.8482,-6.6629,-6.5873,-6.5811,-6.5229,-6.4461,-6.3719,-6.3719,-6.3162,-6.2381,-6.2381,-6.2381,-6.2381,-6.2381,-6.2381,-6.2381,-6.2381,-6.1873,-6.1129,-6.0317,-5.9573,-5.8829,-5.8084,-5.7881,-5.7881,-5.7881,-5.7881,-5.7881,-5.7881,-5.7881,-5.7881,-5.7881,-5.7881,-5.7881,-5.7881,-5.7881,-5.7881,-5.7881,-5.7881,-5.7881,-5.7881,-5.7881,-5.7881,-5.7881,-5.7881,-5.7881,-5.7881,-5.7881,-5.7881,-5.7881,-5.6934,-5.619,-5.575,-5.4735,-5.3957,-5.3518,-5.3518,-5.3518,-5.3518,-5.3518,-5.3518,-5.3518,-5.3518,-5.3518,-6.5712,-6.5649,-6.5522,-6.5775,-6.5868,-6.5868,-6.5868,-6.539,-6.4999,-6.4999,-6.4999,-6.4799,-6.4218,-6.4113,-6.3936,-6.3314,-6.2973,-6.2817,-6.2817,-6.2542,-6.2381,-6.2381,-6.326,-6.4072,-6.4546,-6.5493,-6.6271,-6.6779,-6.6812,-6.7078,-6.7708,-6.8029,-6.8496,-6.9205,-6.953,-6.9849,-7.0162,-7.0162,-7.0601,-7.1542,-7.1542,-7.1542,-7.1573,-7.2226,-7.2496,-7.2422,-7.0807,-7.011,-6.9935,-6.7745,-6.6823,-6.6765,-6.612,-6.5131,-6.4113,-6.4113,-6.3388,-6.2381,-6.2381,-6.2381,-6.2381,-6.2381,-6.2381,-6.2381,-6.2381,-6.2042,-6.1434,-6.0385,-5.9742,-5.9133,-5.8152,-5.7881,-5.7881,-5.7881,-5.7881,-5.7881,-5.7881,-5.7881,-5.7881,-5.7881,-5.7881,-5.7881,-5.7881,-5.7881,-5.7881,-5.7881,-5.7881,-5.7881,-5.7881,-5.7881,-5.7881,-5.7881,-5.7881,-5.7881,-5.7881,-5.7881,-5.7881,-5.7881,-5.7408,-5.6697,-5.575,-5.5006,-5.4262,-5.3518,-5.3518,-5.3518,-5.3518,-5.3518,-5.3518,-5.3518,-5.3518,-5.3518,-6.7193,-6.7089,-6.6612,-6.7488,-6.7687,-6.7687,-6.7687,-6.6301,-6.5032,-6.5032,-6.5032,-6.5032,-6.5032,-6.5032,-6.4999,-6.4999,-6.4253,-6.3719,-6.3719,-6.2973,-6.242,-6.242,-6.374,-6.4654,-6.4654,-6.5974,-6.6812,-6.6812,-6.6812,-6.6854,-6.6854,-6.7708,-6.8227,-6.8227,-6.9205,-7.0196,-7.1127,-7.1127,-7.1573,-7.2496,-7.2496,-7.2496,-7.2496,-7.2496,-7.2496,-7.2422,-7.0807,-7.011,-6.9963,-6.8348,-6.7687,-6.7687,-6.7687,-6.6605,-6.4999,-6.4999,-6.39,-6.242,-6.2381,-6.2381,-6.2381,-6.2381,-6.2381,-6.2381,-6.2381,-6.2381,-6.2042,-6.052,-6.008,-5.9742,-5.8287,-5.7881,-5.7881,-5.7881,-5.7881,-5.7881,-5.7881,-5.7881,-5.7881,-5.7881,-5.7881,-5.7881,-5.7881,-5.7881,-5.7881,-5.7881,-5.7881,-5.7881,-5.7881,-5.7881,-5.7881,-5.7881,-5.7881,-5.7881,-5.7881,-5.7881,-5.7881,-5.7881,-5.7881,-5.7239,-5.5784,-5.5006,-5.4262,-5.3518,-5.3518,-5.3518,-5.3518,-5.3518,-5.3518,-5.3518,-5.3518,-5.3518,-6.7542,-6.7515,-6.7378,-6.766,-6.7687,-6.7687,-6.7687,-6.7286,-6.6902,-6.6902,-6.6902,-6.6729,-6.6125,-6.5966,-6.5779,-6.5098,-6.4766,-6.4597,-6.4597,-6.4392,-6.4463,-6.4988,-6.5932,-6.6737,-6.7368,-6.8276,-6.8833,-6.8833,-6.8833,-6.9131,-6.9813,-7.0092,-7.0532,-7.1187,-7.1511,-7.1794,-7.2071,-7.2071,-7.2226,-7.2496,-7.2496,-7.2496,-7.2496,-7.2496,-7.2496,-7.2422,-7.0807,-7.011,-6.9963,-6.8348,-6.7687,-6.7687,-6.7687,-6.6996,-6.5904,-6.5229,-6.4288,-6.3237,-6.262,-6.2381,-6.2381,-6.2381,-6.2381,-6.2381,-6.2381,-6.2042,-6.14,-6.0385,-5.9742,-5.9099,-5.8152,-5.7881,-5.7881,-5.7881,-5.7881,-5.7881,-5.7881,-5.7881,-5.7881,-5.7881,-5.7881,-5.7881,-5.7881,-5.7881,-5.7881,-5.7881,-5.7881,-5.7881,-5.7881,-5.7881,-5.7881,-5.7881,-5.7881,-5.7881,-5.7881,-5.7881,-5.7881,-5.7881,-5.7881,-5.7239,-5.5784,-5.5513,-5.4803,-5.3518,-5.3518,-5.3518,-5.3518,-5.3518,-5.3518,-5.3518,-5.3518,-5.3518,-6.7687,-6.7687,-6.7687,-6.7687,-6.7687,-6.7687,-6.7687,-6.7687,-6.7687,-6.7687,-6.7687,-6.7515,-6.6996,-6.691,-6.6729,-6.6181,-6.5775,-6.5554,-6.5554,-6.5229,-6.5282,-6.6095,-6.684,-6.7619,-6.8503,-6.9283,-6.9708,-6.9708,-6.9708,-6.9954,-7.0535,-7.0898,-7.135,-7.1951,-7.2285,-7.2496,-7.2496,-7.2496,-7.2496,-7.2496,-7.2496,-7.2496,-7.2496,-7.2496,-7.2349,-7.1945,-7.033,-6.9449,-6.9045,-6.8091,-6.7687,-6.7687,-6.7687,-6.6967,-6.5779,-6.5196,-6.4218,-6.3124,-6.2581,-6.2381,-6.2381,-6.2381,-6.2381,-6.2381,-6.2381,-6.1873,-6.1129,-6.0317,-5.9573,-5.8829,-5.8084,-5.7881,-5.7881,-5.7881,-5.7881,-5.7881,-5.7881,-5.7881,-5.7881,-5.7881,-5.7881,-5.7881,-5.7881,-5.7881,-5.7881,-5.7881,-5.7881,-5.7881,-5.7881,-5.7881,-5.7881,-5.7881,-5.7881,-5.7881,-5.7881,-5.7881,-5.7881,-5.7881,-5.7881,-5.7239,-5.5784,-5.5681,-5.5006,-5.3551,-5.3518,-5.3518,-5.3518,-5.3518,-5.3518,-5.3518,-5.3518,-5.3518,-6.7687,-6.7687,-6.7687,-6.7687,-6.7687,-6.7687,-6.7687,-6.7687,-6.7687,-6.7687,-6.7687,-6.7687,-6.7687,-6.7687,-6.7687,-6.7687,-6.7061,-6.6523,-6.6523,-6.5775,-6.5581,-6.6434,-6.7181,-6.7927,-6.885,-6.9562,-6.9954,-6.9954,-6.9954,-6.9954,-6.9954,-7.0767,-7.1223,-7.1223,-7.2041,-7.2496,-7.2496,-7.2496,-7.2496,-7.2496,-7.2496,-7.2496,-7.2496,-7.2496,-7.2018,-7.1138,-6.9596,-6.8458,-6.7687,-6.7687,-6.7687,-6.7687,-6.7687,-6.6693,-6.5229,-6.5065,-6.4007,-6.262,-6.2459,-6.2381,-6.2381,-6.2381,-6.2381,-6.2381,-6.2381,-6.1839,-6.1028,-6.0317,-5.9539,-5.8761,-5.8051,-5.7881,-5.7881,-5.7881,-5.7881,-5.7881,-5.7881,-5.7881,-5.7881,-5.7881,-5.7881,-5.7881,-5.7881,-5.7881,-5.7881,-5.7881,-5.7881,-5.7881,-5.7881,-5.7881,-5.7881,-5.7881,-5.7881,-5.7881,-5.7881,-5.7881,-5.7881,-5.7881,-5.7881,-5.7239,-5.5784,-5.5681,-5.5006,-5.3551,-5.3518,-5.3518,-5.3518,-5.3518,-5.3518,-5.3518,-5.3518,-5.3518,-6.7687,-6.7687,-6.7687,-6.7687,-6.7687,-6.7687,-6.7687,-6.7687,-6.7687,-6.7687,-6.7687,-6.7687,-6.7687,-6.7687,-6.7687,-6.7687,-6.7542,-6.7433,-6.7433,-6.7258,-6.7656,-6.9078,-6.9406,-7.0062,-7.152,-7.1812,-7.1921,-7.1921,-7.1921,-7.1921,-7.1921,-7.2071,-7.2197,-7.2197,-7.2409,-7.2496,-7.2496,-7.2496,-7.2496,-7.2496,-7.2496,-7.2496,-7.2496,-7.2496,-7.1725,-7.0293,-6.9339,-6.8458,-6.7687,-6.7687,-6.7687,-6.7687,-6.7687,-6.746,-6.6931,-6.5518,-6.4766,-6.4253,-6.2893,-6.2381,-6.2381,-6.2381,-6.2381,-6.2381,-6.2381,-6.1434,-6.0317,-6.0148,-5.9133,-5.8084,-5.7915,-5.7881,-5.7881,-5.7881,-5.7881,-5.7881,-5.7881,-5.7881,-5.7881,-5.7881,-5.7881,-5.7881,-5.7881,-5.7881,-5.7881,-5.7881,-5.7881,-5.7881,-5.7881,-5.7881,-5.7881,-5.7881,-5.7881,-5.7881,-5.7881,-5.7881,-5.7881,-5.7881,-5.7881,-5.7239,-5.5784,-5.5681,-5.5006,-5.3551,-5.3518,-5.3518,-5.3518,-5.3518,-5.3518,-5.3518,-5.3518,-5.3518,-6.7687,-6.7687,-6.7687,-6.7687,-6.7687,-6.7687,-6.7687,-6.7687,-6.7687,-6.7687,-6.7687,-6.7687,-6.7687,-6.7687,-6.7687,-6.7687,-6.7687,-6.7687,-6.7687,-6.8017,-6.8715,-6.9963,-7.044,-7.1174,-7.2386,-7.2496,-7.2496,-7.2496,-7.2496,-7.2496,-7.2496,-7.2496,-7.2496,-7.2496,-7.2496,-7.2496,-7.2496,-7.2496,-7.2496,-7.2496,-7.2496,-7.2312,-7.1908,-7.1541,-7.0697,-6.9486,-6.8678,-6.8091,-6.7687,-6.7687,-6.7687,-6.7687,-6.7687,-6.746,-6.691,-6.5486,-6.4732,-6.4183,-6.2855,-6.2381,-6.2381,-6.2381,-6.2381,-6.2313,-6.1975,-6.1028,-6.0047,-5.9674,-5.8761,-5.7881,-5.7881,-5.7881,-5.7881,-5.7881,-5.7881,-5.7881,-5.7881,-5.7881,-5.7881,-5.7881,-5.7881,-5.7881,-5.7881,-5.7881,-5.7881,-5.7881,-5.7881,-5.7881,-5.7881,-5.7881,-5.7881,-5.7881,-5.7881,-5.7881,-5.7881,-5.7881,-5.7881,-5.7881,-5.7881,-5.7239,-5.5784,-5.5681,-5.5006,-5.3551,-5.3518,-5.3518,-5.3518,-5.3518,-5.3518,-5.3518,-5.3518,-5.3518,-6.7687,-6.7687,-6.7687,-6.7687,-6.7687,-6.7687,-6.7687,-6.7687,-6.7687,-6.7687,-6.7687,-6.7687,-6.7687,-6.7687,-6.7687,-6.7687,-6.7687,-6.7724,-6.7871,-6.8495,-6.9265,-7.0183,-7.0881,-7.1651,-7.2422,-7.2496,-7.2496,-7.2496,-7.2496,-7.2496,-7.2496,-7.2496,-7.2496,-7.2496,-7.2496,-7.2496,-7.2496,-7.2496,-7.2496,-7.2496,-7.2349,-7.1872,-7.1064,-7.0257,-6.9522,-6.8862,-6.8054,-6.7687,-6.7687,-6.7687,-6.7687,-6.7687,-6.7687,-6.7258,-6.6523,-6.5586,-6.47,-6.3793,-6.2931,-6.2537,-6.2381,-6.2381,-6.2313,-6.2076,-6.1501,-6.0655,-5.9776,-5.9167,-5.8457,-5.7881,-5.7881,-5.7881,-5.7881,-5.7881,-5.7881,-5.7881,-5.7881,-5.7881,-5.7881,-5.7881,-5.7881,-5.7881,-5.7881,-5.7881,-5.7881,-5.7881,-5.7881,-5.7881,-5.7881,-5.7881,-5.7881,-5.7881,-5.7881,-5.7881,-5.7881,-5.7881,-5.7881,-5.7881,-5.7881,-5.7239,-5.5784,-5.5681,-5.5006,-5.3551,-5.3518,-5.3518,-5.3518,-5.3518,-5.3518,-5.3518,-5.3518,-5.3518,-6.7687,-6.7687,-6.7687,-6.7687,-6.7687,-6.7687,-6.7687,-6.7687,-6.7687,-6.7687,-6.7687,-6.7687,-6.7687,-6.7687,-6.7687,-6.7687,-6.7687,-6.7944,-6.8641,-6.8825,-6.9486,-7.0991,-7.1219,-7.1651,-7.2422,-7.2496,-7.2496,-7.2496,-7.2496,-7.2496,-7.2496,-7.2496,-7.2496,-7.2496,-7.2496,-7.2496,-7.2496,-7.2496,-7.2496,-7.2496,-7.1798,-7.1064,-7.022,-6.9449,-6.9009,-6.8862,-6.8054,-6.7687,-6.7687,-6.7687,-6.7687,-6.7687,-6.7687,-6.7633,-6.7433,-6.6553,-6.5617,-6.4698,-6.3829,-6.3011,-6.2381,-6.2381,-6.1975,-6.1434,-6.1332,-6.0283,-5.9133,-5.9032,-5.8457,-5.7881,-5.7881,-5.7881,-5.7881,-5.7881,-5.7881,-5.7881,-5.7881,-5.7881,-5.7881,-5.7881,-5.7881,-5.7881,-5.7881,-5.7881,-5.7881,-5.7881,-5.7881,-5.7881,-5.7881,-5.7881,-5.7881,-5.7881,-5.7881,-5.7881,-5.7881,-5.7881,-5.7881,-5.7881,-5.7881,-5.7239,-5.5784,-5.5681,-5.5006,-5.3551,-5.3518,-5.3518,-5.3518,-5.3518,-5.3518,-5.3518,-5.3518,-5.3518,-6.7687,-6.7687,-6.7687,-6.7687,-6.7687,-6.7687,-6.7687,-6.7687,-6.7687,-6.7687,-6.7687,-6.7687,-6.7687,-6.7687,-6.7687,-6.7687,-6.7687,-6.7981,-6.8788,-6.9302,-7.0,-7.1146,-7.1725,-7.2129,-7.2459,-7.2496,-7.2496,-7.2496,-7.2496,-7.2496,-7.2496,-7.2496,-7.2496,-7.2496,-7.2496,-7.2496,-7.2496,-7.2496,-7.2275,-7.1835,-7.1027,-7.022,-6.9412,-6.8605,-6.8238,-6.8201,-6.7834,-6.7687,-6.7687,-6.7687,-6.7687,-6.7687,-6.7687,-6.7687,-6.7515,-6.612,-6.5326,-6.4799,-6.3427,-6.2736,-6.2381,-6.2381,-6.1907,-6.1231,-6.0757,-5.9877,-5.893,-5.849,-5.8152,-5.7881,-5.7881,-5.7881,-5.7881,-5.7881,-5.7881,-5.7881,-5.7881,-5.7881,-5.7881,-5.7881,-5.7881,-5.7881,-5.7881,-5.7881,-5.7881,-5.7881,-5.7881,-5.7881,-5.7881,-5.7881,-5.7881,-5.7881,-5.7881,-5.7881,-5.7881,-5.7881,-5.7881,-5.7881,-5.7881,-5.7239,-5.5784,-5.5681,-5.5006,-5.3551,-5.3518,-5.3518,-5.3518,-5.3518,-5.3518,-5.3518,-5.3518,-5.3518,-6.7687,-6.7687,-6.7687,-6.7687,-6.7687,-6.7687,-6.7687,-6.7687,-6.7687,-6.7687,-6.7687,-6.7687,-6.7687,-6.7687,-6.7687,-6.7687,-6.7687,-6.8054,-6.9045,-6.9706,-7.0477,-7.1505,-7.2129,-7.2496,-7.2496,-7.2496,-7.2496,-7.2496,-7.2496,-7.2496,-7.2496,-7.2496,-7.2496,-7.2496,-7.2496,-7.2496,-7.2496,-7.2312,-7.1908,-7.1293,-7.0293,-6.9486,-6.8862,-6.8054,-6.7687,-6.7687,-6.7687,-6.7687,-6.7687,-6.7687,-6.7687,-6.7687,-6.7687,-6.7687,-6.7515,-6.5966,-6.5196,-6.4766,-6.324,-6.2581,-6.2347,-6.2178,-6.1603,-6.0858,-6.0047,-5.9302,-5.8626,-5.8051,-5.7881,-5.7881,-5.7881,-5.7881,-5.7881,-5.7881,-5.7881,-5.7881,-5.7881,-5.7881,-5.7881,-5.7881,-5.7881,-5.7881,-5.7881,-5.7881,-5.7881,-5.7881,-5.7881,-5.7881,-5.7881,-5.7881,-5.7881,-5.7881,-5.7881,-5.7881,-5.7881,-5.7881,-5.7881,-5.7881,-5.7881,-5.7239,-5.5784,-5.5681,-5.5006,-5.3551,-5.3518,-5.3518,-5.3518,-5.3518,-5.3518,-5.3518,-5.3518,-5.3518,-6.7687,-6.7687,-6.7687,-6.7687,-6.7687,-6.7687,-6.7687,-6.7687,-6.7687,-6.7687,-6.7687,-6.7687,-6.7687,-6.7687,-6.7687,-6.7687,-6.7687,-6.8238,-6.9816,-7.0073,-7.066,-7.2239,-7.2459,-7.2496,-7.2496,-7.2496,-7.2496,-7.2496,-7.2496,-7.2496,-7.2496,-7.2496,-7.2496,-7.2496,-7.2496,-7.2496,-7.2496,-7.1762,-7.1329,-7.1256,-6.9706,-6.8935,-6.8862,-6.8054,-6.7687,-6.7687,-6.7687,-6.7687,-6.7687,-6.7687,-6.7687,-6.7687,-6.7687,-6.7687,-6.7606,-6.6671,-6.5779,-6.4866,-6.3936,-6.3087,-6.2279,-6.1569,-6.0825,-6.0013,-5.9302,-5.8558,-5.7949,-5.7915,-5.7881,-5.7881,-5.7881,-5.7881,-5.7881,-5.7881,-5.7881,-5.7881,-5.7881,-5.7881,-5.7881,-5.7881,-5.7881,-5.7881,-5.7881,-5.7881,-5.7881,-5.7881,-5.7881,-5.7881,-5.7881,-5.7881,-5.7881,-5.7881,-5.7881,-5.7881,-5.7881,-5.7881,-5.7881,-5.7881,-5.7881,-5.7239,-5.5784,-5.5681,-5.5006,-5.3551,-5.3518,-5.3518,-5.3518,-5.3518,-5.3518,-5.3518,-5.3518,-5.3518,-6.7687,-6.7956,-6.821,-6.821,-6.821,-6.821,-6.821,-6.7956,-6.7687,-6.7687,-6.7687,-6.7687,-6.7687,-6.7687,-6.7687,-6.7687,-6.7687,-6.8238,-6.9853,-7.011,-7.0697,-7.2312,-7.2496,-7.2496,-7.2496,-7.2496,-7.2496,-7.2496,-7.2496,-7.2496,-7.2496,-7.2496,-7.2496,-7.2496,-7.2496,-7.2275,-7.1725,-7.0917,-7.0257,-6.9743,-6.9192,-6.8641,-6.8128,-6.7834,-6.7687,-6.7687,-6.7687,-6.7687,-6.7687,-6.7687,-6.7687,-6.7687,-6.7687,-6.7687,-6.7569,-6.67,-6.5811,-6.4796,-6.3485,-6.2441,-6.1569,-6.0791,-6.0013,-5.9336,-5.9099,-5.849,-5.7881,-5.7881,-5.7881,-5.7881,-5.7881,-5.7881,-5.7881,-5.7881,-5.7881,-5.7881,-5.7881,-5.7881,-5.7881,-5.7881,-5.7881,-5.7881,-5.7881,-5.7881,-5.7881,-5.7881,-5.7881,-5.7881,-5.7881,-5.7881,-5.7881,-5.7881,-5.7881,-5.7881,-5.7881,-5.7881,-5.7881,-5.7881,-5.7881,-5.7239,-5.5784,-5.5681,-5.5006,-5.3551,-5.3518,-5.3518,-5.3518,-5.3518,-5.3518,-5.3518,-5.3518,-5.3518,-6.7904,-6.8235,-6.8521,-6.8728,-6.8773,-6.8728,-6.8558,-6.821,-6.7904,-6.7741,-6.7687,-6.7767,-6.793,-6.7982,-6.7982,-6.7982,-6.7982,-6.8535,-7.0132,-7.0238,-7.0697,-7.2312,-7.2496,-7.2496,-7.2496,-7.2496,-7.2496,-7.2496,-7.2496,-7.2496,-7.2496,-7.2496,-7.2386,-7.2129,-7.1835,-7.1431,-7.0917,-7.011,-6.9449,-6.8898,-6.8641,-6.8201,-6.7687,-6.7687,-6.7687,-6.7687,-6.7687,-6.7687,-6.7687,-6.7687,-6.7687,-6.7687,-6.7687,-6.7687,-6.7569,-6.67,-6.5632,-6.444,-6.3067,-6.1858,-6.0757,-5.9979,-5.9404,-5.8964,-5.8727,-5.8287,-5.7881,-5.7881,-5.7881,-5.7881,-5.7881,-5.7881,-5.7881,-5.7881,-5.7881,-5.7881,-5.7881,-5.7881,-5.7881,-5.7881,-5.7881,-5.7881,-5.7881,-5.7881,-5.7881,-5.7881,-5.7881,-5.7881,-5.7881,-5.7881,-5.7881,-5.7881,-5.7881,-5.7881,-5.7881,-5.7881,-5.7881,-5.7881,-5.7645,-5.6968,-5.5749,-5.548,-5.4769,-5.3518,-5.3518,-5.3518,-5.3518,-5.3518,-5.3518,-5.3518,-5.3518,-5.3518,0.0,0.0,0.0,-6.919,-6.9333,-6.919,-6.866,-6.8521,-6.8368,-6.7836,-6.7741,-6.7852,-6.8392,-6.8535,-6.8535,-6.8521,-6.8521,-6.9094,-7.0672,-7.0449,-7.0716,-7.2333,-7.2488,-7.2488,-7.2524,-7.2496,-7.2496,-7.2496,-7.2496,-7.2496,-7.2459,-7.2459,-7.2092,-7.1321,-7.0477,-7.0073,-7.0073,-6.9265,-6.8862,-6.8862,-6.8054,-6.7687,-6.7687,-6.7687,-6.7687,-6.7687,-6.7687,-6.7687,-6.7687,-6.7687,-6.7687,-6.7687,-6.7687,-6.7687,-6.7569,-6.6729,-6.534,-6.3768,-6.2857,-6.1483,-5.9945,-5.9235,-5.8998,-5.8829,-5.8118,-5.7881,-5.7881,-5.7881,-5.7881,-5.7881,-5.7881,-5.7881,-5.7881,-5.7881,-5.7881,-5.7881,-5.7881,-5.7881,-5.7881,-5.7881,-5.7881,-5.7881,-5.7881,-5.7881,-5.7881,-5.7881,-5.7881,-5.7881,-5.7881,-5.7881,-5.7881,-5.7881,-5.7881,-5.7881,-5.7881,-5.7881,-5.7881,-5.7881,-5.7205,-5.6461,-5.5715,-5.5006,-5.4262,-5.3518,-5.3518,-5.3518,-5.3518,-5.3518,-5.3518,-5.3518,-5.3518,-5.3518,-6.8913,0.0,0.0,0.0,0.0,0.0,-6.9701,-6.9373,-6.8913,-6.8368,-6.8284,-6.8296,-6.8487,-6.884,-6.921,-6.9607,-6.9353,-6.9439,-7.047,-7.0488,-7.0975,-7.266,-7.2472,-7.2451,-7.3071,-7.2733,-7.2496,-7.2496,-7.2496,-7.2275,-7.1688,-7.1101,-7.066,-7.044,-6.9669,-6.9229,-6.9229,-6.8421,-6.8017,-6.8017,-6.7797,-6.7687,-6.7687,-6.7687,-6.7687,-6.7687,-6.7687,-6.7687,-6.7687,-6.7687,-6.7687,-6.7687,-6.7687,-6.7687,-6.7614,-6.6774,-6.5357,-6.3689,-6.2367,-6.0739,-5.9201,-5.8457,-5.8186,-5.8152,-5.7949,-5.7881,-5.7881,-5.7881,-5.7881,-5.7881,-5.7881,-5.7881,-5.7881,-5.7881,-5.7881,-5.7881,-5.7881,-5.7881,-5.7881,-5.7881,-5.7881,-5.7881,-5.7881,-5.7881,-5.7881,-5.7881,-5.7881,-5.7881,-5.7881,-5.7881,-5.7881,-5.7881,-5.7881,-5.7881,-5.7881,-5.7881,-5.7881,-5.7881,-5.7205,-5.6461,-5.5715,-5.5006,-5.4262,-5.3518,-5.3518,-5.3518,-5.3518,-5.3518,-5.3518,-5.3518,-5.3518,-5.3518,-6.9492,-6.9847,-7.0145,-7.0362,0.0,0.0,-6.9865,-6.953,-6.9085,-6.8296,-6.832,-6.8544,-6.8795,-6.9292,-6.9793,-7.0346,-7.0162,-7.017,-7.0744,-7.0642,-7.0884,-7.1997,-7.1797,-7.1714,-7.2002,-7.1683,-7.1505,-7.1505,-7.1505,-7.1284,-7.0844,-7.0036,-6.9596,-6.9596,-6.8825,-6.8385,-6.8385,-6.7907,-6.7687,-6.7687,-6.7687,-6.7687,-6.7687,-6.7687,-6.7687,-6.7687,-6.7687,-6.7687,-6.7687,-6.7687,-6.7687,-6.765,-6.732,-6.7173,-6.71,-6.6292,-6.4693,-6.2801,-6.188,-6.0284,-5.8457,-5.8017,-5.7881,-5.7881,-5.7881,-5.7881,-5.7881,-5.7881,-5.7881,-5.7881,-5.7881,-5.7881,-5.7881,-5.7881,-5.7881,-5.7881,-5.7881,-5.7881,-5.7881,-5.7881,-5.7881,-5.7881,-5.7881,-5.7881,-5.7881,-5.7881,-5.7881,-5.7881,-5.7881,-5.7881,-5.7881,-5.7881,-5.7881,-5.7881,-5.7881,-5.7881,-5.7881,-5.7881,-5.6934,-5.6156,-5.575,-5.4702,-5.3923,-5.3518,-5.3518,-5.3518,-5.3518,-5.3518,-5.3518,-5.3518,-5.3518,-5.3518,-7.0044,-7.0179,-7.0314,-7.0777,-7.0898,0.0,-6.9701,-6.9492,-6.919,-6.8161,-6.8357,-6.8803,-6.9313,-6.9775,-7.0282,-7.0805,-7.0898,-7.0964,-7.1226,-7.0839,-7.0646,-7.0911,-7.0904,-7.0685,-7.0229,-7.0128,-7.011,-7.011,-7.0,-6.9963,-6.9963,-6.9192,-6.8788,-6.8788,-6.8054,-6.7687,-6.7687,-6.7687,-6.7687,-6.7687,-6.7687,-6.7687,-6.7687,-6.7687,-6.7687,-6.7687,-6.7687,-6.7677,-6.7577,-6.7577,-6.7577,-6.7504,-6.6769,-6.6439,-6.6256,-6.5485,-6.3643,-6.1561,-6.149,-5.9902,-5.7881,-5.7881,-5.7881,-5.7881,-5.7881,-5.7881,-5.7881,-5.7881,-5.7881,-5.7881,-5.7881,-5.7881,-5.7881,-5.7881,-5.7881,-5.7881,-5.7881,-5.7881,-5.7881,-5.7881,-5.7881,-5.7881,-5.7881,-5.7881,-5.7881,-5.7881,-5.7881,-5.7881,-5.7881,-5.7881,-5.7881,-5.7881,-5.7881,-5.7881,-5.7881,-5.7881,-5.7848,-5.778,-5.6461,-5.5647,-5.5581,-5.4262,-5.3518,-5.3518,-5.3518,-5.3518,-5.3518,-5.3518,-5.3518,-5.3518,-5.3518,-5.3518,-7.0478,-7.0748,-7.0777,-7.0885,-7.0898,0.0,-7.0637,-7.0593,-7.0416,-6.9775,-6.972,-6.9811,-6.9918,-7.0044,-7.0282,-7.0805,-7.0898,-7.0909,-7.0979,-7.0867,-7.0936,-7.1274,-7.0866,-7.0638,-7.0809,-7.0391,-7.011,-7.011,-6.9486,-6.9119,-6.9119,-6.8348,-6.7907,-6.7907,-6.776,-6.7687,-6.7687,-6.7687,-6.7687,-6.7687,-6.7687,-6.7687,-6.7687,-6.7687,-6.7687,-6.7687,-6.7687,-6.732,-6.6733,-6.6733,-6.6733,-6.6733,-6.6549,-6.6109,-6.5448,-6.464,-6.3173,-6.149,-6.0857,-5.9417,-5.7881,-5.7881,-5.7881,-5.7881,-5.7881,-5.7881,-5.7881,-5.7881,-5.7881,-5.7881,-5.7881,-5.7881,-5.7881,-5.7881,-5.7881,-5.7881,-5.7881,-5.7881,-5.7881,-5.7881,-5.7881,-5.7881,-5.7881,-5.7881,-5.7881,-5.7881,-5.7881,-5.7881,-5.7881,-5.7881,-5.7881,-5.7881,-5.7881,-5.7881,-5.7881,-5.7881,-5.7645,-5.7036,-5.619,-5.5446,-5.4837,-5.3957,-5.3518,-5.3518,-5.3518,-5.3518,-5.3518,-5.3518,-5.3518,-5.3518,-5.3518,-5.3518,-7.0666,-7.0898,-7.0898,-7.0898,-7.0898,0.0,0.0,-7.0494,-7.0346,-6.9811,-6.9901,-7.0112,-7.0112,-7.0314,-7.0608,-7.0871,-7.0666,-7.0608,-7.0871,-7.0898,-7.0647,-7.0019,-6.9916,-6.9766,-6.9408,-6.9104,-6.8898,-6.8898,-6.8531,-6.8311,-6.8311,-6.7907,-6.7687,-6.7687,-6.7687,-6.7687,-6.7687,-6.7687,-6.7687,-6.7687,-6.7687,-6.7687,-6.7687,-6.7687,-6.7687,-6.7677,-6.7283,-6.688,-6.6476,-6.6072,-6.5668,-6.5301,-6.5301,-6.5044,-6.4604,-6.3759,-6.2667,-6.1504,-6.0691,-5.9541,-5.8458,-5.8029,-5.7881,-5.7881,-5.7881,-5.7881,-5.7881,-5.7881,-5.7881,-5.7881,-5.7881,-5.7881,-5.7881,-5.7881,-5.7881,-5.7881,-5.7881,-5.7881,-5.7881,-5.7881,-5.7881,-5.7881,-5.7881,-5.7881,-5.7881,-5.7881,-5.7881,-5.7881,-5.7881,-5.7881,-5.7881,-5.7881,-5.7881,-5.7881,-5.7881,-5.7881,-5.7577,-5.6867,-5.6122,-5.5378,-5.4634,-5.389,-5.3518,-5.3518,-5.3518,-5.3518,-5.3518,-5.3518,-5.3518,-5.3518,-5.3518,-5.3518,-7.0734,-7.0898,-7.0898,-7.0898,-7.0898,-7.0777,0.0,0.0,0.0,-6.9701,-6.9936,-7.0266,-7.0266,-7.0622,-7.0898,-7.0898,-7.0524,-7.0362,-7.0681,-7.0819,-7.0362,-6.8978,-6.919,-6.9042,-6.7956,-6.7757,-6.7687,-6.7687,-6.7687,-6.7687,-6.7687,-6.7687,-6.7687,-6.7687,-6.7687,-6.7687,-6.7687,-6.7687,-6.7687,-6.7687,-6.7687,-6.7687,-6.7687,-6.754,-6.7467,-6.7393,-6.6623,-6.6182,-6.5999,-6.5338,-6.4604,-6.387,-6.4016,-6.398,-6.3759,-6.3062,-6.2219,-6.1257,-6.061,-5.9736,-5.8772,-5.8101,-5.7881,-5.7881,-5.7881,-5.7881,-5.7881,-5.7881,-5.7881,-5.7881,-5.7881,-5.7881,-5.7881,-5.7881,-5.7881,-5.7881,-5.7881,-5.7881,-5.7881,-5.7881,-5.7881,-5.7881,-5.7881,-5.7881,-5.7881,-5.7881,-5.7881,-5.7881,-5.7881,-5.7881,-5.7881,-5.7881,-5.7881,-5.7881,-5.7881,-5.7746,-5.7374,-5.663,-5.5919,-5.5175,-5.4397,-5.3822,-5.3518,-5.3518,-5.3518,-5.3518,-5.3518,-5.3518,-5.3518,-5.3518,-5.3518,-5.3518,-7.0622,-7.0898,-7.0898,-7.0898,-7.0898,-7.0885,-7.0805,0.0,-7.0791,-7.0748,0.0,-7.0805,-7.0805,0.0,0.0,-7.0898,-7.0871,-7.0652,-7.0266,-7.0608,-7.0652,-7.0009,-6.9954,-6.9607,-6.8497,-6.7982,-6.7687,-6.7687,-6.7687,-6.7687,-6.7687,-6.7687,-6.7687,-6.7687,-6.7687,-6.7687,-6.7687,-6.7687,-6.7687,-6.7687,-6.7687,-6.7687,-6.7677,-6.6953,-6.6623,-6.6586,-6.5778,-6.5044,-6.4347,-6.4273,-6.3723,-6.3025,-6.3796,-6.3613,-6.2952,-6.2842,-6.186,-6.0519,-6.0427,-5.9379,-5.8027,-5.7918,-5.7881,-5.7881,-5.7881,-5.7881,-5.7881,-5.7881,-5.7881,-5.7881,-5.7881,-5.7881,-5.7881,-5.7881,-5.7881,-5.7881,-5.7881,-5.7881,-5.7881,-5.7881,-5.7881,-5.7881,-5.7881,-5.7881,-5.7881,-5.7881,-5.7881,-5.7881,-5.7881,-5.7881,-5.7881,-5.7881,-5.7881,-5.7881,-5.7881,-5.7306,-5.663,-5.5886,-5.5141,-5.4397,-5.3653,-5.3551,-5.3518,-5.3518,-5.3518,-5.3518,-5.3518,-5.3518,-5.3518,-5.3518,-5.3518,-5.3518,-7.0834,-7.0898,-7.0898,-7.0898,-7.0898,-7.0898,-7.0898,-7.0898,-7.0898,-7.0898,0.0,0.0,0.0,0.0,0.0,0.0,-7.0637,-7.0478,-7.0539,-7.0494,-7.025,-6.9701,-6.9901,-6.9683,-6.859,-6.8308,-6.8021,-6.7741,-6.8007,-6.8021,-6.7714,-6.7687,-6.7687,-6.7687,-6.7687,-6.7687,-6.7687,-6.7687,-6.7687,-6.7687,-6.7687,-6.7467,-6.699,-6.6659,-6.6256,-6.5778,-6.4934,-6.442,-6.4053,-6.3539,-6.3135,-6.2842,-6.3209,-6.3135,-6.278,-6.278,-6.235,-6.1751,-6.1229,-6.0335,-5.9179,-5.8209,-5.7881,-5.7881,-5.7881,-5.7881,-5.7881,-5.7881,-5.7881,-5.7881,-5.7881,-5.7881,-5.7881,-5.7881,-5.7881,-5.7881,-5.7881,-5.7881,-5.7881,-5.7881,-5.7881,-5.7881,-5.7881,-5.7881,-5.7881,-5.7881,-5.7881,-5.7881,-5.7881,-5.7881,-5.7881,-5.7881,-5.7881,-5.7712,-5.7306,-5.6968,-5.6292,-5.5141,-5.4363,-5.3822,-5.3518,-5.3518,-5.3518,-5.3518,-5.3518,-5.3518,-5.3518,-5.3518,-5.3518,-5.3518,-5.3518,-5.3518,-7.103,-7.0858,-7.0772,-7.114,-7.1091,-7.0898,-7.0898,-7.0898,-7.0898,-7.0898,-7.0898,0.0,0.0,0.0,-7.0898,-7.0898,0.0,-7.0463,-7.0857,-7.0539,-7.0162,-6.9775,-6.9936,-6.9793,-6.9021,-6.8682,-6.8357,-6.7956,-6.8148,-6.8123,-6.7741,-6.7687,-6.7687,-6.7687,-6.7687,-6.7687,-6.7687,-6.7687,-6.7577,-6.7357,-6.7357,-6.6953,-6.6145,-6.5925,-6.5521,-6.4934,-6.409,-6.3723,-6.3686,-6.3062,-6.278,-6.278,-6.278,-6.278,-6.278,-6.278,-6.2679,-6.2376,-6.1797,-6.1055,-6.0149,-5.8703,-5.8244,-5.8209,-5.7954,-5.7881,-5.7881,-5.7881,-5.7881,-5.7881,-5.7881,-5.7881,-5.7881,-5.7881,-5.7881,-5.7881,-5.7881,-5.7881,-5.7881,-5.7881,-5.7881,-5.7991,-5.8209,-5.8029,-5.7881,-5.7881,-5.7881,-5.7881,-5.7881,-5.7881,-5.7881,-5.7881,-5.7712,-5.7374,-5.6833,-5.6427,-5.5649,-5.4363,-5.3788,-5.3518,-5.3518,-5.3518,-5.3518,-5.3518,-5.3518,-5.3518,-5.3518,-5.3518,-5.3518,-5.3518,-5.3518,-5.3518,-7.1084,-7.0777,-7.0457,-7.1814,-7.1514,-7.0898,-7.0898,-7.0898,-7.0898,-7.0898,-7.0898,-7.0898,-7.0898,-7.0898,-7.0898,-7.0898,-7.0885,0.0,0.0,-7.0885,-7.0871,-7.0871,-7.0432,-7.0095,-7.0061,-6.9127,-6.8511,-6.8487,-6.8033,-6.7714,-6.7687,-6.7687,-6.7687,-6.7687,-6.7687,-6.7687,-6.7687,-6.7687,-6.7283,-6.6549,-6.6549,-6.6109,-6.5301,-6.453,-6.4163,-6.409,-6.3209,-6.2842,-6.2842,-6.278,-6.278,-6.278,-6.278,-6.278,-6.278,-6.278,-6.2298,-6.1632,-6.1632,-6.1055,-6.0242,-5.9344,-5.9044,-5.8943,-5.8137,-5.7881,-5.7881,-5.7881,-5.7881,-5.7881,-5.7881,-5.7881,-5.7881,-5.7881,-5.7881,-5.7881,-5.7881,-5.7881,-5.7881,-5.7881,-5.7881,-5.8137,-5.8943,-5.8423,-5.7881,-5.7881,-5.7881,-5.7881,-5.7881,-5.7881,-5.7881,-5.7881,-5.7273,-5.6833,-5.6799,-5.548,-5.4329,-5.3585,-5.3518,-5.3518,-5.3518,-5.3518,-5.3518,-5.3518,-5.3518,-5.3518,-5.3518,-5.3518,-5.3518,-5.3518,-5.3518,-5.3518,-7.1645,-7.0988,-7.0555,-7.1417,-7.0997,-7.0463,-7.0805,-7.0898,-7.0898,-7.0898,-7.0898,-7.0898,-7.0898,-7.0898,-7.0898,-7.0898,-7.0898,-7.0898,0.0,-7.0437,-6.9898,-6.9321,-6.9245,-6.9485,-7.0019,-6.9472,-6.8869,-6.8535,-6.832,-6.8072,-6.7714,-6.7687,-6.7687,-6.7687,-6.7687,-6.743,-6.6916,-6.6916,-6.6512,-6.5705,-6.5705,-6.5301,-6.4494,-6.42,-6.3796,-6.3209,-6.2952,-6.278,-6.278,-6.278,-6.278,-6.278,-6.278,-6.278,-6.278,-6.278,-6.2298,-6.1548,-6.0997,-6.0967,-6.1055,-6.0242,-5.996,-5.98,-5.8943,-5.8668,-5.8599,-5.8029,-5.8281,-5.8668,-5.8668,-5.9112,-5.9576,-5.9576,-5.9112,-5.884,-5.9445,-5.9112,-5.884,-5.9445,-5.9576,-5.9639,-5.9896,-5.9736,-5.9576,-5.9576,-5.9078,-5.8668,-5.8668,-5.8244,-5.7712,-5.7205,-5.6934,-5.6393,-5.5412,-5.4431,-5.3754,-5.3518,-5.3518,-5.3518,-5.3518,-5.3518,-5.3518,-5.3518,-5.3518,-5.3518,-5.3518,-5.3518,-5.3518,-5.3518,-5.3518,-5.375,-7.1951,-7.1268,-7.0783,-7.1332,-7.0857,-7.0317,-7.057,-7.0622,-7.0622,-7.0622,-7.0762,-7.0857,-7.0652,-7.0777,-7.0898,-7.0898,-7.0898,-7.0783,0.0,-6.9475,-6.8667,-6.8436,-6.856,-6.8922,-6.9578,-6.9091,-6.8631,-6.8507,-6.8189,-6.7814,-6.73,-6.7247,-6.7136,-6.6843,-6.6843,-6.6586,-6.6072,-6.6072,-6.5668,-6.4861,-6.4861,-6.4457,-6.3649,-6.3649,-6.3319,-6.278,-6.278,-6.278,-6.278,-6.278,-6.278,-6.278,-6.278,-6.278,-6.2755,-6.249,-6.2049,-6.1548,-6.0997,-6.1142,-6.1484,-6.0997,-6.061,-6.0273,-5.9736,-5.9344,-5.9044,-5.8875,-5.8943,-5.9178,-5.9476,-5.9991,-6.0397,-6.0397,-5.996,-5.9736,-6.0273,-5.996,-5.9736,-6.0273,-6.0397,-6.0489,-6.076,-6.082,-6.061,-6.0023,-5.9476,-5.8976,-5.8703,-5.8006,-5.734,-5.6867,-5.6325,-5.5513,-5.4296,-5.4022,-5.3783,-5.3551,-5.375,-5.3783,-5.3518,-5.3518,-5.3518,-5.3518,-5.3518,-5.3651,-5.3881,-5.3881,-5.4044,-5.4264,-5.4264,-5.4699]},{"header":{"parameterUnit":"m.s-1","parameterCategory":1,"la1":30.6,"la2":29.2853,"lo1":-89.7004,"lo2":-87.6739,"dy":0.0162,"dx":0.0183,"nx":112,"ny":82,"refTime":"2024-05-11T06:00:00:Z","depth":0,"parameterNumber":3,"parameterNumberName":"V-component_of_WINDS"},"data":[0.0,0.0,0.0,0.0,0.0,0.0,0.0,0.0,0.0,0.0,0.0,0.0,0.0,0.0,0.0,0.0,0.0,0.0,0.0,0.0,0.0,0.0,0.0,0.0,0.0,0.0,0.0,0.0,0.0,0.0,0.0,0.0,0.0,0.0,0.0,0.0,0.0,0.0,0.0,0.0,0.0,0.0,0.0,0.0,0.0,0.0,0.0,0.0,0.0,0.0,0.0,0.0,0.0,0.0,0.0,0.0,0.0,0.0,0.0,0.0,0.0,0.0,0.0,0.0,0.0,0.0,0.0,0.0,0.0,0.0,0.0,0.0,0.0,0.0,0.0,0.0,0.0,0.0,0.0,0.0,0.0,0.0,0.0,0.0,0.0,0.0,0.0,0.0,0.0,0.0,2.1109,2.1109,2.1109,2.1002,2.0762,2.0748,2.0628,2.0388,0.0,0.0,0.0,0.0,0.0,0.0,0.0,0.0,0.0,0.0,0.0,0.0,0.0,0.0,0.0,0.0,0.0,0.0,0.0,0.0,0.0,0.0,0.0,0.0,0.0,0.0,0.0,0.0,0.0,0.0,0.0,0.0,0.0,0.0,0.0,0.0,0.0,0.0,0.0,0.0,0.0,0.0,0.0,0.0,0.0,0.0,0.0,0.0,0.0,0.0,0.0,0.0,0.0,0.0,0.0,0.0,0.0,0.0,0.0,0.0,0.0,0.0,0.0,0.0,0.0,0.0,0.0,0.0,0.0,0.0,0.0,0.0,0.0,0.0,0.0,0.0,0.0,0.0,0.0,0.0,0.0,0.0,0.0,0.0,0.0,0.0,0.0,0.0,0.0,0.0,0.0,0.0,0.0,0.0,0.0,0.0,0.0,0.0,0.0,0.0,0.0,0.0,0.0,0.0,2.1109,2.1109,2.1109,2.1096,2.1042,2.1042,2.1029,2.0975,0.0,0.0,0.0,0.0,0.0,0.0,0.0,0.0,0.0,0.0,0.0,0.0,0.0,0.0,0.0,0.0,0.0,0.0,0.0,0.0,0.0,0.0,0.0,0.0,0.0,0.0,0.0,0.0,0.0,0.0,0.0,0.0,0.0,0.0,0.0,0.0,0.0,0.0,0.0,0.0,0.0,0.0,0.0,0.0,0.0,0.0,0.0,0.0,0.0,0.0,0.0,0.0,0.0,0.0,0.0,0.0,0.0,0.0,0.0,0.0,0.0,0.0,0.0,0.0,0.0,0.0,0.0,0.0,0.0,0.0,0.0,0.0,0.0,0.0,0.0,0.0,0.0,0.0,0.0,0.0,0.0,0.0,0.0,0.0,0.0,0.0,0.0,0.0,0.0,0.0,0.0,0.0,0.0,0.0,0.0,0.0,0.0,0.0,0.0,0.0,0.0,0.0,0.0,2.1109,2.1109,2.1109,2.1109,2.1109,2.1109,2.1109,2.1109,2.1109,2.0855,0.0,0.0,0.0,0.0,0.0,0.0,0.0,0.0,0.0,0.0,0.0,0.0,0.0,0.0,0.0,0.0,0.0,0.0,0.0,0.0,0.0,0.0,0.0,0.0,0.0,0.0,0.0,0.0,0.0,0.0,0.0,0.0,0.0,0.0,0.0,0.0,0.0,0.0,0.0,0.0,0.0,0.0,0.0,0.0,0.0,0.0,0.0,0.0,0.0,0.0,0.0,0.0,0.0,0.0,0.0,0.0,0.0,0.0,0.0,0.0,0.0,0.0,0.0,0.0,0.0,0.0,0.0,0.0,0.0,0.0,0.0,0.0,0.0,0.0,0.0,0.0,0.0,0.0,0.0,0.0,0.0,0.0,0.0,0.0,0.0,0.0,0.0,0.0,0.0,0.0,0.0,0.0,0.0,0.0,0.0,0.0,0.0,0.0,0.0,0.0,0.0,0.0,2.1776,2.1964,2.1172,2.1475,2.1538,2.1109,2.1109,2.1109,2.1109,2.1109,0.0,0.0,0.0,0.0,0.0,0.0,0.0,0.0,0.0,0.0,0.0,0.0,0.0,0.0,0.0,0.0,0.0,0.0,0.0,0.0,0.0,0.0,0.0,0.0,0.0,0.0,0.0,0.0,0.0,0.0,0.0,0.0,0.0,0.0,0.0,0.0,0.0,0.0,0.0,0.0,0.0,0.0,0.0,0.0,0.0,0.0,0.0,0.0,0.0,0.0,0.0,0.0,0.0,0.0,0.0,0.0,0.0,0.0,0.0,0.0,0.0,0.0,0.0,0.0,0.0,0.0,0.0,0.0,0.0,0.0,0.0,0.0,0.0,0.0,0.0,0.0,0.0,0.0,0.0,0.0,0.0,0.0,0.0,0.0,0.0,0.0,0.0,0.0,0.0,0.0,0.0,0.0,0.0,0.0,0.0,0.0,0.0,0.0,0.0,0.0,0.0,0.0,2.3792,2.4455,2.1411,2.2466,2.2764,2.1235,2.1109,2.1109,2.1109,2.1109,0.0,0.0,0.0,0.0,0.0,0.0,0.0,0.0,0.0,0.0,0.0,0.0,0.0,0.0,0.0,0.0,0.0,0.0,0.0,0.0,0.0,0.0,0.0,0.0,0.0,0.0,0.0,0.0,0.0,0.0,0.0,0.0,0.0,0.0,0.0,0.0,0.0,0.0,0.0,0.0,0.0,0.0,0.0,0.0,0.0,0.0,0.0,0.0,0.0,0.0,0.0,0.0,0.0,0.0,0.0,0.0,0.0,0.0,0.0,0.0,0.0,0.0,0.0,0.0,0.0,0.0,0.0,0.0,0.0,0.0,0.0,0.0,0.0,0.0,0.0,0.0,0.0,0.0,0.0,0.0,0.0,0.0,0.0,0.0,0.0,0.0,0.0,0.0,0.0,0.0,0.0,0.0,0.0,0.0,0.0,0.0,0.0,0.0,0.0,0.0,0.0,0.0,2.4594,2.513,2.2889,2.3201,2.2904,2.1235,2.1109,2.1109,2.1109,0.0,0.0,0.0,0.0,0.0,0.0,0.0,0.0,0.0,0.0,0.0,0.0,0.0,0.0,0.0,0.0,0.0,0.0,0.0,0.0,0.0,0.0,0.0,0.0,0.0,0.0,0.0,0.0,0.0,0.0,0.0,0.0,0.0,0.0,0.0,0.0,0.0,0.0,0.0,0.0,0.0,0.0,0.0,0.0,0.0,0.0,0.0,0.0,0.0,0.0,0.0,0.0,0.0,0.0,0.0,0.0,0.0,0.0,0.0,0.0,0.0,0.0,0.0,0.0,0.0,0.0,0.0,0.0,0.0,0.0,0.0,0.0,0.0,0.0,0.0,0.0,0.0,0.0,0.0,0.0,0.0,0.0,0.0,0.0,0.0,0.0,0.0,0.0,0.0,0.0,0.0,0.0,0.0,0.0,0.0,0.0,0.0,0.0,0.0,0.0,0.0,0.0,2.3698,2.594,2.6729,2.4594,2.484,2.4471,2.2827,2.264,2.2452,2.1915,0.0,0.0,0.0,0.0,0.0,0.0,0.0,0.0,0.0,0.0,0.0,0.0,0.0,0.0,0.0,0.0,0.0,0.0,0.0,0.0,0.0,0.0,0.0,0.0,0.0,0.0,0.0,0.0,0.0,0.0,0.0,0.0,0.0,0.0,0.0,0.0,0.0,0.0,0.0,0.0,0.0,0.0,0.0,0.0,0.0,0.0,0.0,0.0,0.0,0.0,0.0,0.0,0.0,0.0,0.0,0.0,0.0,0.0,0.0,0.0,0.0,0.0,0.0,0.0,0.0,0.0,0.0,0.0,0.0,0.0,0.0,0.0,0.0,0.0,0.0,0.0,0.0,0.0,0.0,0.0,0.0,0.0,0.0,0.0,0.0,0.0,0.0,0.0,0.0,0.0,0.0,0.0,0.0,0.0,0.0,0.0,0.0,0.0,0.0,0.0,0.0,0.0,2.3807,2.7889,2.9648,2.6409,2.7452,2.7751,2.6167,2.5984,2.5314,0.0,0.0,0.0,0.0,0.0,0.0,0.0,0.0,0.0,0.0,0.0,0.0,0.0,0.0,0.0,0.0,0.0,0.0,0.0,0.0,0.0,0.0,0.0,0.0,0.0,0.0,0.0,0.0,0.0,0.0,0.0,0.0,0.0,0.0,0.0,0.0,0.0,0.0,0.0,0.0,0.0,0.0,0.0,0.0,0.0,0.0,0.0,0.0,0.0,0.0,0.0,0.0,0.0,0.0,0.0,0.0,0.0,0.0,0.0,0.0,0.0,0.0,0.0,0.0,0.0,0.0,0.0,0.0,0.0,0.0,0.0,0.0,0.0,0.0,0.0,0.0,0.0,0.0,0.0,0.0,0.0,0.0,0.0,0.0,0.0,0.0,0.0,0.0,0.0,0.0,0.0,0.0,0.0,0.0,0.0,0.0,0.0,0.0,0.0,0.0,0.0,0.0,0.0,2.5375,2.8564,3.0079,2.7931,2.811,2.7751,2.6167,2.5984,2.5314,2.3698,0.0,0.0,0.0,0.0,0.0,0.0,0.0,0.0,0.0,0.0,0.0,0.0,0.0,0.0,0.0,0.0,0.0,0.0,0.0,0.0,0.0,0.0,0.0,0.0,0.0,0.0,0.0,0.0,0.0,0.0,0.0,0.0,0.0,0.0,0.0,0.0,0.0,0.0,0.0,0.0,0.0,0.0,0.0,0.0,0.0,0.0,0.0,0.0,0.0,0.0,0.0,0.0,0.0,0.0,0.0,0.0,0.0,0.0,0.0,0.0,0.0,0.0,0.0,0.0,0.0,0.0,0.0,0.0,0.0,0.0,0.0,0.0,0.0,0.0,0.0,0.0,0.0,0.0,0.0,0.0,0.0,0.0,0.0,0.0,0.0,0.0,0.0,0.0,0.0,0.0,0.0,0.0,0.0,0.0,0.0,0.0,0.0,0.0,0.0,0.0,0.0,0.0,2.6953,2.9294,3.0509,2.953,2.9412,2.9039,2.8051,2.7931,2.7271,2.5635,0.0,0.0,0.0,0.0,0.0,0.0,0.0,0.0,0.0,0.0,0.0,0.0,0.0,0.0,0.0,0.0,0.0,0.0,0.0,0.0,0.0,0.0,0.0,0.0,0.0,0.0,0.0,0.0,0.0,0.0,0.0,0.0,0.0,0.0,0.0,0.0,0.0,0.0,0.0,0.0,0.0,0.0,0.0,0.0,0.0,0.0,0.0,0.0,0.0,0.0,0.0,0.0,0.0,0.0,0.0,0.0,0.0,0.0,0.0,0.0,0.0,0.0,0.0,0.0,0.0,0.0,0.0,0.0,0.0,0.0,0.0,0.0,0.0,0.0,0.0,0.0,0.0,0.0,0.0,0.0,0.0,0.0,0.0,0.0,0.0,0.0,0.0,0.0,0.0,0.0,0.0,0.0,0.0,0.0,0.0,0.0,0.0,0.0,0.0,0.0,0.0,0.0,2.8426,2.9844,3.0898,3.0898,3.0898,3.0898,3.0898,3.0898,3.0197,2.8486,0.0,0.0,0.0,0.0,0.0,0.0,0.0,0.0,0.0,0.0,0.0,0.0,0.0,0.0,0.0,0.0,0.0,0.0,0.0,0.0,0.0,0.0,0.0,0.0,0.0,0.0,0.0,0.0,0.0,0.0,0.0,0.0,0.0,0.0,0.0,0.0,0.0,0.0,0.0,0.0,0.0,0.0,0.0,0.0,0.0,0.0,0.0,0.0,0.0,0.0,0.0,0.0,0.0,0.0,0.0,0.0,0.0,0.0,0.0,0.0,3.8823,3.8137,0.0,0.0,0.0,0.0,0.0,0.0,0.0,0.0,0.0,0.0,0.0,0.0,0.0,0.0,0.0,0.0,0.0,0.0,0.0,0.0,0.0,0.0,0.0,0.0,0.0,0.0,0.0,0.0,0.0,0.0,0.0,0.0,0.0,0.0,0.0,0.0,0.0,0.0,0.0,0.0,2.8426,2.9844,3.0898,3.0898,3.0898,3.0898,3.0898,3.0898,3.0197,2.8486,2.8051,0.0,0.0,0.0,0.0,0.0,0.0,0.0,0.0,0.0,0.0,0.0,0.0,0.0,0.0,0.0,0.0,0.0,0.0,0.0,0.0,0.0,0.0,0.0,0.0,0.0,0.0,0.0,0.0,0.0,0.0,0.0,0.0,0.0,0.0,0.0,0.0,0.0,0.0,0.0,0.0,0.0,0.0,0.0,0.0,0.0,0.0,0.0,0.0,0.0,0.0,0.0,0.0,0.0,0.0,0.0,0.0,0.0,0.0,0.0,4.0745,3.9764,0.0,0.0,0.0,0.0,0.0,0.0,0.0,0.0,0.0,0.0,0.0,0.0,0.0,0.0,0.0,0.0,0.0,0.0,0.0,0.0,0.0,0.0,0.0,0.0,0.0,0.0,0.0,0.0,0.0,0.0,0.0,0.0,0.0,0.0,0.0,0.0,0.0,0.0,0.0,0.0,2.9589,3.0333,3.0898,3.0898,3.0898,3.0898,3.0898,3.0898,3.0509,2.9648,2.8842,0.0,0.0,0.0,0.0,0.0,0.0,0.0,0.0,0.0,0.0,0.0,0.0,0.0,0.0,0.0,0.0,0.0,0.0,0.0,0.0,0.0,0.0,0.0,0.0,0.0,0.0,0.0,0.0,0.0,0.0,0.0,0.0,0.0,0.0,0.0,0.0,0.0,0.0,0.0,0.0,0.0,0.0,0.0,0.0,0.0,0.0,0.0,0.0,0.0,0.0,0.0,0.0,0.0,4.2986,4.2986,4.2986,4.2986,4.2986,4.2936,4.2007,4.0928,3.9753,3.9475,0.0,0.0,0.0,0.0,0.0,0.0,0.0,0.0,0.0,0.0,0.0,0.0,0.0,0.0,0.0,0.0,0.0,0.0,0.0,0.0,0.0,0.0,3.0898,3.0898,3.0898,3.0528,2.9157,0.0,0.0,0.0,0.0,0.0,0.0,0.0,0.0,0.0,0.0,0.0,3.0898,3.0898,3.0898,3.0898,3.0898,3.0898,3.0898,3.0898,3.0898,3.0898,2.9589,2.8724,0.0,0.0,0.0,0.0,0.0,0.0,0.0,0.0,0.0,0.0,0.0,0.0,0.0,0.0,0.0,0.0,0.0,0.0,0.0,0.0,0.0,0.0,0.0,0.0,0.0,0.0,0.0,0.0,0.0,0.0,0.0,0.0,4.5919,4.4782,0.0,0.0,0.0,0.0,0.0,0.0,0.0,0.0,0.0,0.0,0.0,0.0,0.0,4.2986,4.2986,4.2986,4.2986,4.2986,4.2986,4.2986,4.2986,4.2986,4.2986,4.2961,4.2811,0.0,4.2401,4.0974,0.0,0.0,0.0,0.0,0.0,0.0,0.0,0.0,0.0,0.0,0.0,0.0,0.0,0.0,0.0,0.0,0.0,0.0,0.0,0.0,0.0,0.0,3.0898,3.0898,3.0898,3.084,3.0645,3.0762,3.0762,3.0333,3.0587,3.082,0.0,0.0,0.0,0.0,0.0,0.0,3.0898,3.0898,3.0898,3.0898,3.0898,3.0898,3.0898,3.0898,3.0898,3.0898,3.0704,2.9903,2.8486,2.8426,0.0,0.0,0.0,0.0,0.0,0.0,0.0,0.0,0.0,0.0,0.0,0.0,0.0,0.0,0.0,0.0,0.0,0.0,0.0,0.0,0.0,0.0,0.0,0.0,0.0,0.0,0.0,0.0,0.0,4.5395,4.5848,4.5577,4.5495,4.5106,0.0,0.0,0.0,0.0,0.0,0.0,0.0,0.0,0.0,4.3915,4.389,4.389,4.389,4.389,4.389,4.389,4.389,4.389,4.389,4.3589,4.3438,4.3413,4.3112,4.2986,4.2986,4.2263,4.1298,4.0259,0.0,0.0,0.0,0.0,3.7264,3.7311,3.7686,3.778,3.7757,3.7525,0.0,0.0,0.0,0.0,0.0,0.0,0.0,3.0898,3.0898,3.0898,3.0898,3.0898,3.0898,3.0898,3.0898,3.0898,3.0898,3.0898,3.0898,3.0898,3.0898,3.0898,0.0,0.0,0.0,3.0898,3.0898,3.0898,3.0898,3.0898,3.0898,3.0898,3.0898,3.0898,3.0898,3.0898,3.0898,3.0587,2.9844,2.9844,2.9353,0.0,0.0,0.0,0.0,0.0,0.0,0.0,0.0,0.0,0.0,0.0,0.0,0.0,0.0,0.0,0.0,0.0,0.0,0.0,0.0,0.0,0.0,0.0,0.0,0.0,0.0,0.0,0.0,4.6087,4.6542,4.7136,4.7217,4.6837,0.0,0.0,0.0,0.0,0.0,0.0,4.7724,4.7307,4.6525,4.5228,4.4792,4.4618,4.4618,4.4618,4.4618,4.4618,4.4618,4.4618,4.4618,4.4192,4.4016,4.3991,4.3438,4.3187,4.3162,4.3037,4.2319,4.1191,4.1191,4.0476,3.9359,3.9105,3.8966,3.9069,3.9706,3.9902,3.9902,3.9702,3.9169,3.8209,3.6769,0.0,0.0,0.0,0.0,3.158,3.146,3.1441,3.1383,3.0995,3.0898,3.0898,3.0898,3.0898,3.0898,3.0898,3.0898,3.0898,3.0898,3.0898,0.0,3.0898,3.0898,3.0898,3.0898,3.0898,3.0898,3.0898,3.0898,3.0898,3.0898,3.0898,3.0898,3.0898,3.0898,3.0898,3.0898,3.0898,3.0333,2.9039,0.0,0.0,0.0,0.0,0.0,0.0,0.0,0.0,0.0,0.0,0.0,0.0,0.0,0.0,0.0,0.0,0.0,0.0,0.0,0.0,0.0,0.0,0.0,0.0,0.0,0.0,0.0,0.0,0.0,5.0765,5.0823,0.0,0.0,0.0,0.0,4.9774,5.0298,5.0354,4.9801,4.8425,4.737,4.676,4.5342,4.4618,4.4618,4.4618,4.4618,4.4618,4.4618,4.4618,4.4618,4.4593,4.4593,4.4543,4.3991,4.3765,4.3714,4.3187,4.2961,4.2849,4.2849,4.2849,4.2737,4.2768,4.2768,4.2668,4.2173,4.2053,4.1978,4.1397,4.0226,3.8808,3.7303,3.57,0.0,0.0,3.4739,3.345,3.3069,3.2964,3.2644,3.1228,3.0898,3.0898,3.0898,3.0898,3.0898,3.0898,3.0898,3.0898,3.0898,0.0,3.0898,3.0898,3.0898,3.0898,3.0898,3.0898,3.0898,3.0898,3.0898,3.0898,3.0898,3.0898,3.0898,3.0898,3.0898,3.0898,3.0898,3.0898,3.084,3.0762,3.0762,0.0,0.0,0.0,0.0,0.0,0.0,0.0,0.0,0.0,0.0,0.0,0.0,0.0,0.0,0.0,0.0,0.0,0.0,0.0,0.0,0.0,0.0,0.0,0.0,0.0,0.0,0.0,0.0,5.1609,5.1667,0.0,5.0213,5.1222,5.19,5.19,5.2924,5.3087,5.1953,5.1417,5.0106,4.7982,4.7409,4.6649,4.5698,4.5698,4.5698,4.5698,4.5698,4.5698,4.5698,4.5347,4.5171,4.5146,4.4568,4.4317,4.4292,4.374,4.3288,4.2986,4.2986,4.2986,4.2986,4.2986,4.2986,4.2961,4.276,4.274,4.2585,4.2032,4.1504,4.0746,3.8895,3.7937,3.7326,3.6748,3.6169,3.5517,3.4328,3.3996,3.3609,3.2117,3.1719,3.1719,3.1719,3.1484,3.1289,3.1289,3.1074,3.0898,3.0898,3.0898,3.0898,3.0898,3.0898,3.0898,3.0898,3.0898,3.0898,3.0898,3.0898,3.0898,3.0898,3.0898,3.0898,3.0898,3.0898,3.0898,3.0898,3.0898,3.0898,3.0898,3.0898,3.0898,0.0,0.0,0.0,0.0,0.0,0.0,0.0,0.0,0.0,0.0,0.0,0.0,0.0,0.0,0.0,0.0,0.0,0.0,0.0,0.0,0.0,0.0,0.0,0.0,0.0,5.1453,5.1866,5.2923,5.3062,5.2816,5.2291,5.3121,5.3756,5.3756,5.4641,5.4743,5.3808,5.3256,5.1863,4.9308,4.8762,4.7802,4.6301,4.6301,4.6301,4.6301,4.6301,4.6301,4.6301,4.5924,4.5773,4.5723,4.5171,4.492,4.4869,4.4317,4.3865,4.3489,4.3112,4.2986,4.2986,4.2986,4.2986,4.2986,4.2986,4.2986,4.2911,4.2615,4.2489,4.2193,4.0807,4.0018,3.9466,3.8859,3.7907,3.6946,3.625,3.5242,3.4205,3.3195,3.2573,3.2229,3.2229,3.1953,3.1738,3.1738,3.1269,3.0898,3.0898,3.0898,3.0937,3.1074,3.0976,3.0937,3.1074,3.0976,3.0898,3.0898,3.0898,3.0898,3.0898,3.0898,3.0898,3.0898,3.0898,3.0898,3.0898,3.0898,3.0898,3.0898,3.0898,3.0898,3.0898,0.0,0.0,0.0,0.0,0.0,0.0,0.0,0.0,0.0,0.0,0.0,0.0,0.0,0.0,0.0,0.0,0.0,0.0,0.0,0.0,0.0,0.0,0.0,5.2255,5.222,5.2946,5.4938,5.5179,5.5179,5.5179,5.5179,5.5179,5.5179,5.5179,5.5179,5.5179,5.3808,5.2295,5.0768,4.9308,4.7802,4.6301,4.6301,4.6301,4.6301,4.6301,4.6301,4.6301,4.6301,4.6301,4.6276,4.5748,4.5522,4.5472,4.4895,4.4644,4.4543,4.3438,4.3011,4.3011,4.2986,4.2986,4.2986,4.2986,4.2986,4.2986,4.2986,4.2986,4.2986,4.2986,4.1899,4.0899,4.1867,3.9888,3.7743,3.8742,3.6732,3.4425,3.4484,3.3355,3.2268,3.2268,3.2268,3.2248,3.2248,3.1504,3.0937,3.0937,3.0937,3.1074,3.1484,3.1191,0.0,3.1465,3.1152,3.0898,3.0918,3.0898,3.0898,3.0918,3.0898,3.0898,3.0898,3.0898,3.0898,3.0898,3.0898,3.0898,3.0898,3.0898,3.0898,3.0898,0.0,0.0,0.0,0.0,0.0,0.0,0.0,0.0,0.0,0.0,0.0,0.0,0.0,0.0,0.0,0.0,0.0,0.0,0.0,0.0,0.0,5.3506,5.4501,5.4374,5.4345,5.4535,5.5128,5.5179,5.5179,5.5179,5.5179,5.5179,5.5179,5.5179,5.5179,5.5179,5.3808,5.2295,5.0768,4.9308,4.7802,4.6301,4.6301,4.6301,4.6301,4.6301,4.6301,4.6301,4.6301,4.6301,4.6301,4.615,4.6075,4.605,4.5472,4.5246,4.5146,4.4016,4.3589,4.3539,4.3112,4.2986,4.2986,4.2986,4.2986,4.2986,4.2986,4.2986,4.2986,4.2986,4.2681,4.2182,4.1306,4.0378,3.9291,3.7229,3.6071,3.5145,3.3959,3.3378,3.3086,3.3086,3.2832,3.2617,3.2617,3.2187,3.1816,3.1816,3.1816,3.1855,3.1973,3.1621,3.1387,3.1504,3.1152,3.0996,3.1309,3.1074,3.1016,3.1328,3.1074,3.0898,3.0898,3.0898,3.0898,3.0898,3.0898,3.0898,3.0898,3.0898,3.0898,0.0,0.0,0.0,0.0,0.0,0.0,0.0,0.0,0.0,0.0,0.0,0.0,0.0,0.0,0.0,0.0,0.0,0.0,0.0,0.0,0.0,0.0,5.4252,5.5179,5.5179,5.5179,5.5179,5.5179,5.4641,5.4509,5.5128,5.4641,5.4509,5.5128,5.5179,5.4926,5.4304,5.3466,5.2026,4.9847,4.8965,4.7802,4.6301,4.6301,4.6301,4.6301,4.6301,4.6301,4.6301,4.6301,4.6301,4.6301,4.6301,4.6301,4.6276,4.5974,4.5824,4.5723,0.0,0.0,0.0,0.0,4.3162,4.2986,4.2986,4.2986,4.2986,4.2986,4.2986,4.2986,4.2986,4.2986,4.2793,4.1842,4.065,3.9347,3.8141,3.6295,3.4736,3.4487,3.3902,3.3418,3.3418,3.3223,3.3066,3.3066,3.2851,0.0,3.2695,3.2402,3.2287,3.2402,3.207,3.1855,3.2031,3.1523,3.125,3.1484,3.1133,3.0996,3.123,3.1035,0.0,0.0,0.0,3.0898,3.0898,3.0898,0.0,0.0,0.0,3.0898,3.0898,3.0898,0.0,0.0,3.0762,3.0742,0.0,0.0,0.0,0.0,0.0,0.0,0.0,0.0,0.0,0.0,0.0,0.0,0.0,0.0,0.0,0.0,5.4355,5.5209,5.5299,5.5299,5.5269,5.5209,5.4016,5.3756,5.5167,5.3948,5.3664,5.5053,5.4981,5.4303,5.3005,5.2791,0.0,0.0,0.0,4.7748,4.6401,4.6401,4.6376,4.6301,4.6301,4.6301,4.6301,4.6301,4.6301,4.6301,4.6301,4.6301,4.6301,4.6301,4.6301,4.62,4.5146,4.4694,4.4568,4.4016,4.3489,4.3062,4.3011,0.0,0.0,4.2986,4.2986,4.2986,4.2986,4.2986,4.2905,4.2569,4.0419,3.8461,3.9522,3.6599,3.3776,3.5211,3.4425,3.3418,3.3418,3.3418,3.3418,3.3418,3.3418,3.3418,3.3418,3.2793,3.2441,3.2812,3.2519,3.2383,3.2754,3.209,3.1621,3.166,3.125,0.0,3.1035,3.0957,3.0898,3.0898,3.0898,3.0898,3.0898,3.0898,3.0898,3.0898,3.0898,3.0898,3.0898,3.0898,3.0898,3.0898,3.0898,3.0898,0.0,0.0,0.0,0.0,0.0,0.0,0.0,0.0,0.0,0.0,0.0,0.0,0.0,0.0,0.0,5.4794,5.5027,5.5388,5.5897,5.5987,5.5777,5.5239,5.4976,5.5104,5.5927,5.4568,5.3996,5.484,5.3692,5.2827,5.2545,5.1401,5.0495,4.9871,4.8634,4.7688,4.6979,4.6979,4.6753,4.6301,4.6301,0.0,4.6301,4.6301,4.6301,4.6301,4.6301,4.6301,4.6301,4.6301,4.6301,4.625,4.5573,4.5045,4.4568,4.4016,4.374,4.3589,4.3137,4.2986,4.2986,4.2986,4.2986,4.2986,4.2986,4.2986,0.0,3.9873,3.8698,3.7686,3.5396,3.407,3.3481,3.3776,3.3607,3.3418,3.3418,3.3418,3.3418,3.3418,3.3418,3.3418,3.3418,3.3281,3.3203,3.3281,3.2949,3.2695,3.2793,3.2363,3.2168,3.2519,3.1855,3.1543,3.1894,3.1289,3.0898,3.0898,3.0898,3.0898,3.0898,3.0898,3.0898,3.0898,3.0898,3.0898,3.0898,3.0898,3.0898,3.0898,3.0898,3.0898,0.0,0.0,0.0,0.0,0.0,0.0,0.0,0.0,0.0,0.0,0.0,5.386,5.3121,0.0,5.5688,5.5688,5.5927,5.6256,5.6585,5.6012,5.5389,5.5014,5.4342,5.3946,5.4291,5.2883,5.2459,5.3501,5.2849,5.2103,5.1346,5.0605,4.9853,4.909,4.8317,4.7782,4.7531,4.7193,4.7004,4.6728,4.6451,4.6301,4.6301,4.6301,4.6301,4.6301,4.6301,4.6301,4.6301,4.6301,4.6301,4.6276,4.5999,4.5547,4.502,4.4744,4.4292,4.3765,4.3489,4.3212,4.2986,4.2986,4.2986,4.2986,4.2986,4.2986,4.2513,4.0071,3.9405,3.8876,3.6417,3.5211,3.4612,3.4612,3.4027,3.3418,3.3418,3.3418,3.3418,3.3418,3.3418,3.3418,3.3418,3.3418,3.3418,3.3418,3.3242,3.3105,3.3105,3.2734,3.2559,3.2773,3.2031,3.1601,3.1816,3.1269,3.0898,3.0898,3.0898,3.0898,3.0898,3.0898,3.0898,3.0898,3.0898,3.0898,3.0898,3.0898,3.0898,3.0898,3.0898,3.0898,0.0,0.0,0.0,0.0,0.0,0.0,0.0,4.9702,5.0488,5.0823,5.3116,5.4687,5.3177,5.4808,5.6191,5.5558,5.616,5.6568,5.6421,5.5282,5.4427,5.4261,5.3188,5.2506,5.2586,5.1239,5.0937,5.2198,5.2022,5.1341,5.0132,5.0072,4.9548,4.8297,4.8234,4.8184,4.8083,4.7657,4.733,4.7068,4.6677,4.6426,4.6301,4.6301,4.6301,4.6301,4.6301,4.6301,4.6301,4.6301,4.6301,4.6301,4.6301,4.605,4.5623,4.5522,4.492,4.4091,4.389,4.3514,4.3112,4.3011,4.2986,4.2986,4.2986,4.2793,4.2206,4.0592,3.9931,3.9288,3.7686,3.6295,3.5335,3.5335,3.432,3.3418,3.3418,3.3418,3.3418,3.3418,3.3418,3.3418,3.3418,3.3418,3.3418,3.3418,3.3418,3.3418,3.3418,3.3125,3.291,3.291,3.2226,3.1699,3.1523,3.1133,3.0898,3.0898,3.0898,3.0898,3.0898,3.0898,3.0898,3.0898,3.0898,3.0898,3.0898,3.0898,3.0898,3.0898,3.0898,3.0898,4.6361,4.6301,4.6576,4.7919,4.7357,4.7239,0.0,4.9943,4.9827,5.1203,5.3271,5.4359,5.274,5.4963,5.6072,5.3304,5.4116,5.4761,5.3917,5.3655,5.3265,5.2432,5.238,5.2641,5.3223,5.183,5.1223,5.1971,5.071,4.9837,4.9645,4.9645,4.9581,4.9414,4.9414,4.9163,4.8686,4.8611,4.8109,4.7068,4.7079,4.6778,4.6301,4.6301,4.6301,4.6301,4.6301,4.6301,4.6301,4.6301,4.6301,4.6301,4.6301,4.6276,4.615,4.5673,4.5422,4.5171,4.4141,4.3765,4.3639,4.3137,4.2986,4.2986,4.2986,4.2012,4.0534,3.8935,3.7424,3.599,3.4383,3.3776,3.365,3.365,3.3544,3.3418,3.3418,3.3418,3.3418,3.3418,3.3418,3.3418,3.3418,3.3418,3.3418,3.3418,3.3418,3.3418,3.3418,3.3379,3.3359,3.3359,3.293,3.2344,3.1582,3.1133,3.0898,3.0898,3.0898,3.0898,3.0898,3.0898,3.0898,3.0898,3.0898,3.0898,3.0898,3.0898,3.0898,3.0898,3.0898,3.0898,4.6541,4.7138,4.7999,4.7752,4.7846,4.8255,4.8897,4.9456,4.9996,5.0644,5.2198,5.319,5.2506,5.381,5.4516,5.3204,5.3856,5.4422,5.4031,5.3169,5.2406,5.2059,5.1259,5.089,5.1188,5.0555,5.0306,5.06,4.995,4.959,4.959,4.959,4.959,4.959,4.959,4.949,4.9264,4.8937,4.8535,4.8083,4.7431,4.7004,4.6778,4.6451,4.6301,4.6301,4.6301,4.6301,4.6301,4.6301,4.6301,4.6301,4.6301,4.6301,4.6276,4.605,4.5773,4.5422,4.4945,4.4342,4.3765,4.3539,4.3237,4.2986,4.2986,4.2544,4.1672,4.0071,3.9814,3.9616,3.8022,3.7604,3.7604,3.7604,3.6173,3.4798,3.4798,3.407,3.3418,3.3418,3.3418,3.3418,3.3418,3.3418,3.3418,3.3418,3.3418,3.3418,3.3418,3.3418,3.332,3.3086,3.2891,3.2441,3.1582,3.1367,3.1152,3.0898,3.0898,3.0898,3.0898,3.0898,3.0898,3.0898,3.0898,3.0898,3.0898,3.0898,3.0898,3.0898,3.0898,3.0898,4.7031,4.7803,4.8687,4.7576,4.8135,4.873,4.8055,4.8912,4.9785,4.9785,5.113,5.2185,5.1713,5.2775,5.343,5.2539,5.313,5.3549,5.3126,5.2051,5.133,5.133,5.0308,4.959,4.959,4.959,4.959,4.959,4.959,4.959,4.959,4.959,4.959,4.959,4.959,4.959,4.959,4.9188,4.8912,4.8761,4.7807,4.728,4.7043,4.6552,4.6301,4.6301,4.6301,4.6301,4.6301,4.6301,4.6301,4.6301,4.6301,4.6301,4.6301,4.6301,4.605,4.5698,4.5547,4.4945,4.4217,4.389,4.3539,4.3162,4.3011,4.2681,4.2093,4.0961,4.1133,4.1419,4.0245,3.9931,3.9814,3.9405,3.7484,3.5683,3.5211,3.4195,3.3418,3.3418,3.3418,3.3418,3.3418,3.3418,3.3418,3.3418,3.3418,3.3418,3.3418,3.3418,3.3301,3.3008,3.2871,3.25,3.1758,3.1582,3.1348,3.0918,3.0898,3.0898,3.0898,3.0898,3.0898,3.0898,3.0898,3.0898,3.0898,3.0898,3.0898,3.0898,3.0898,3.0898,4.7857,4.792,4.7945,4.7883,4.7883,4.7945,4.7908,4.8397,4.8863,4.8863,5.054,5.1502,4.9964,5.2271,5.3341,5.0219,5.1016,5.1518,4.995,4.9719,4.9654,4.9654,4.9654,4.959,4.959,4.959,4.959,4.959,4.959,4.959,4.959,4.959,4.959,4.959,4.959,4.959,4.959,4.9565,4.9289,4.8761,4.8159,4.7631,4.7043,4.6552,4.6301,4.6301,4.6301,4.6301,4.6301,4.6301,4.6301,4.6301,4.6301,4.6301,4.6301,4.6301,4.6301,4.62,4.5673,4.5472,4.5246,4.4166,4.379,4.3689,4.3137,4.1899,4.065,4.0592,3.9522,3.8342,3.8283,3.8283,3.7865,3.6335,3.5867,3.5376,3.3839,3.3418,3.3418,3.3418,3.3418,3.3418,3.3418,3.3418,3.3418,3.3418,3.3418,3.3418,3.3418,3.3418,3.3418,3.3398,3.3047,3.2617,3.2187,3.1758,3.1348,3.0918,3.0898,3.0898,3.0898,3.0898,3.0898,3.0898,3.0898,3.0898,3.0898,3.0898,3.0898,3.0898,3.0898,3.0898,4.8008,4.8184,4.8485,4.8485,4.8485,4.8586,4.8937,4.9188,4.9314,4.9314,4.9888,5.0245,4.9719,5.0499,5.0853,4.9783,5.0078,5.0181,4.9654,4.959,4.959,4.959,4.959,4.959,4.959,4.959,4.959,4.959,4.959,4.959,4.959,4.959,4.959,4.959,4.959,4.959,4.959,4.959,4.9515,4.9314,4.836,4.7431,4.6577,4.6401,4.6301,4.6301,4.6301,4.6301,4.6301,4.6301,4.6301,4.6301,4.6301,4.6301,4.6301,4.6301,4.6301,4.6276,4.61,4.5799,4.5422,4.5045,4.4418,4.3765,4.3589,4.2899,4.2206,4.2206,4.1019,3.9756,3.9756,3.8994,3.8045,3.7484,3.6578,3.5622,3.5088,3.4133,3.3418,3.3418,3.3418,3.3418,3.3418,3.3418,3.3418,3.3418,3.3418,3.3418,3.3418,3.3418,3.3418,3.3418,3.3301,3.293,3.2287,3.2031,3.1641,3.0937,3.0898,3.0898,3.0898,3.0898,3.0898,3.0898,3.0898,3.0898,3.0898,3.0898,3.0898,3.0898,3.0898,3.0898,4.8611,4.8786,4.9063,4.9063,4.9063,4.9163,4.9515,4.959,4.959,4.959,4.959,4.959,4.959,4.959,4.959,4.959,4.959,4.959,4.959,4.959,4.959,4.959,4.959,4.959,4.959,4.959,4.959,4.959,4.959,4.959,4.959,4.959,4.959,4.959,4.959,4.959,4.959,4.959,4.9389,4.8987,4.8259,4.7355,4.6301,4.6301,4.6301,4.6301,4.6301,4.6301,4.6301,4.6301,4.6301,4.6301,4.6301,4.6301,4.6301,4.6301,4.5914,4.5464,4.6059,4.6075,4.5748,4.5547,4.4844,4.3926,4.3185,4.2992,4.2849,4.2319,4.1362,4.0592,4.0592,3.9405,3.8045,3.7506,3.6539,3.5622,3.5088,3.4133,3.3418,3.3418,3.3418,3.3418,3.3418,3.3418,3.3418,3.3418,3.3418,3.3418,3.3418,3.3418,3.3418,3.3418,3.3418,3.3086,3.2246,3.2229,3.1797,3.0937,3.0898,3.0898,3.0898,3.0898,3.0898,3.0898,3.0898,3.0898,3.0898,3.0898,3.0898,3.0898,3.0898,3.0898,4.959,4.959,4.959,4.959,4.959,4.959,4.959,4.959,4.959,4.959,4.959,4.959,4.959,4.959,4.959,4.959,4.959,4.959,4.959,4.959,4.959,4.959,4.959,4.959,4.959,4.959,4.959,4.959,4.959,4.959,4.959,4.959,4.959,4.959,4.959,4.959,4.959,4.959,4.9038,4.7908,4.7908,4.7355,4.6301,4.6301,4.6301,4.6301,4.6301,4.6301,4.6301,4.6301,4.6301,4.6301,4.6301,4.6301,4.6301,4.6301,4.522,4.3917,4.5586,4.612,4.596,4.5579,4.5003,4.4087,4.2062,4.211,4.2544,4.0961,4.0419,4.0361,4.0361,3.917,3.7566,3.6051,3.5683,3.5273,3.3713,3.3418,3.3418,3.3418,3.3418,3.3418,3.3418,3.3418,3.3418,3.3418,3.3418,3.3418,3.3418,3.3418,3.3418,3.3418,3.3418,3.3086,3.2266,3.2187,3.1816,3.0976,3.0898,3.0898,3.0898,3.0898,3.0898,3.0898,3.0898,3.0898,3.0898,3.0898,3.0898,3.0898,3.0898,3.0898,4.959,4.959,4.959,4.959,4.959,4.959,4.959,4.959,4.959,4.959,4.959,4.959,4.959,4.959,4.959,4.959,4.959,4.959,4.959,4.959,4.959,4.959,4.959,4.959,4.959,4.959,4.959,4.959,4.959,4.959,4.959,4.959,4.959,4.959,4.959,4.959,4.959,4.959,4.9038,4.7908,4.7908,4.7355,4.6301,4.6301,4.6301,4.6301,4.6301,4.6301,4.6301,4.6301,4.6301,4.6301,4.6301,4.6301,4.6301,4.6301,4.522,4.3793,4.4189,4.3544,4.2706,4.3836,4.353,4.2639,4.2198,4.1705,4.088,3.9288,3.7963,3.7002,3.7002,3.5806,3.4507,3.4133,3.4027,3.3902,3.3481,3.3418,3.3418,3.3418,3.3418,3.3418,3.3418,3.3418,3.3418,3.3418,3.3418,3.3418,3.3418,3.3418,3.3418,3.3418,3.3418,3.3203,3.2676,3.2344,3.1934,3.1387,3.1055,3.0898,3.0898,3.0898,3.0898,3.0898,3.0898,3.0898,3.0898,3.0898,3.0898,3.0898,3.0898,3.0898,4.959,4.959,4.959,4.959,4.959,4.959,4.959,4.959,4.959,4.959,4.959,4.959,4.959,4.959,4.959,4.959,4.959,4.959,4.959,4.959,4.959,4.959,4.959,4.959,4.959,4.959,4.959,4.959,4.959,4.959,4.959,4.959,4.959,4.959,4.959,4.959,4.959,4.9364,4.8786,4.7908,4.7682,4.7129,4.6301,4.6301,4.6301,4.6301,4.6301,4.6301,4.6301,4.6301,4.6301,4.6301,4.6301,4.5853,4.5135,4.5135,4.3606,4.1478,4.1478,4.0343,3.9322,4.1797,4.1885,4.093,4.0318,3.9854,3.9229,3.7604,3.6478,3.5806,3.5806,3.4612,3.3418,3.3418,3.3418,3.3418,3.3418,3.3418,3.3418,3.3418,3.3418,3.3418,3.3418,3.3418,3.3418,3.3418,3.3418,3.3418,3.3418,3.3418,3.3418,3.3418,3.3418,3.3242,3.2832,3.2402,3.1992,3.1543,3.1133,3.0898,3.0898,3.0898,3.0898,3.0898,3.0898,3.0898,3.0898,3.0898,3.0898,3.0898,3.0898,3.0898,4.959,4.959,4.959,4.959,4.959,4.959,4.959,4.959,4.959,4.959,4.959,4.959,4.959,4.959,4.959,4.959,4.959,4.959,4.959,4.959,4.959,4.959,4.959,4.959,4.959,4.959,4.959,4.959,4.959,4.959,4.959,4.959,4.959,4.959,4.959,4.959,4.959,4.9063,4.8485,4.7908,4.738,4.6853,4.6301,4.6301,4.618,4.5914,4.5914,4.5853,4.5611,4.5611,4.5611,4.5611,4.5611,4.4706,4.3333,4.3333,4.1351,3.8597,3.8597,3.7441,3.6539,3.9823,4.0193,3.9081,3.7699,3.7598,3.7566,3.5928,3.5499,3.5499,3.5499,3.4445,3.3418,3.3418,3.3418,3.3418,3.3418,3.3418,3.3418,3.3418,3.3418,3.3418,3.3418,3.3418,3.3418,3.3418,3.3418,3.3418,3.3418,3.3418,3.3418,3.3418,3.3418,3.3281,3.291,3.2441,3.2012,3.1621,3.1152,3.0898,3.0898,3.0898,3.0898,3.0898,3.0898,3.0898,3.0898,3.0898,3.0898,3.0898,3.0898,3.0898,4.959,4.959,4.959,4.959,4.959,4.959,4.959,4.959,4.959,4.959,4.959,4.959,4.959,4.959,4.959,4.959,4.959,4.959,4.959,4.959,4.959,4.959,4.959,4.959,4.959,4.959,4.959,4.959,4.959,4.959,4.959,4.959,4.959,4.959,4.959,4.959,4.959,4.9063,4.8485,4.7908,4.738,4.6853,4.6301,4.6301,4.5525,4.4165,4.4165,4.3357,4.2074,4.2074,4.2074,4.2074,4.2074,4.1884,4.1629,4.1629,4.0343,3.8597,3.8597,3.7441,3.6355,3.842,3.8357,3.753,3.7318,3.679,3.5867,3.4258,3.3839,3.3839,3.3839,3.3607,3.3418,3.3418,3.3418,3.3418,3.3418,3.3418,3.3418,3.3418,3.3418,3.3418,3.3418,3.3418,3.3418,3.3418,3.3418,3.3418,3.3418,3.3418,3.3418,3.3418,3.3418,3.3398,3.332,3.2598,3.2148,3.207,3.1328,3.0898,3.0898,3.0898,3.0898,3.0898,3.0898,3.0898,3.0898,3.0898,3.0898,3.0898,3.0898,3.0898,4.959,4.959,4.959,4.959,4.959,4.959,4.959,4.959,4.959,4.959,4.959,4.959,4.959,4.959,4.959,4.959,4.959,4.959,4.959,4.959,4.959,4.959,4.959,4.959,4.959,4.959,4.959,4.959,4.959,4.959,4.959,4.959,4.959,4.959,4.959,4.9464,4.9163,4.7735,4.6724,4.6186,4.475,4.3906,4.3669,4.3669,4.3169,4.2391,4.2391,4.1947,4.1181,4.1181,4.1181,4.1181,4.1181,4.0666,3.9823,3.9823,3.8729,3.726,3.726,3.6674,3.6112,3.673,3.6451,3.584,3.5949,3.5258,3.4383,3.3607,3.3418,3.3418,3.3418,3.3418,3.3418,3.3418,3.3418,3.3418,3.3418,3.3418,3.3418,3.3418,3.3418,3.3418,3.3418,3.3418,3.3418,3.3418,3.3418,3.3418,3.3418,3.3418,3.3418,3.3418,3.3418,3.3418,3.3418,3.2656,3.2229,3.2229,3.1367,3.0898,3.0898,3.0898,3.0898,3.0898,3.0898,3.0898,3.0898,3.0898,3.0898,3.0898,3.0898,3.0898,4.959,4.959,4.959,4.959,4.959,4.959,4.959,4.959,4.959,4.959,4.959,4.959,4.959,4.959,4.959,4.959,4.959,4.959,4.959,4.959,4.959,4.959,4.959,4.959,4.959,4.959,4.959,4.959,4.959,4.959,4.959,4.959,4.959,4.959,4.959,4.9185,4.8228,4.6335,4.4951,4.4008,4.2134,4.1181,4.1181,4.1181,4.0988,4.0666,4.0666,4.0408,4.0083,4.0083,4.0083,4.0083,4.0083,3.9256,3.8021,3.8021,3.7193,3.6016,3.6016,3.6016,3.5957,3.5527,3.5078,3.4687,3.459,3.4023,3.3418,3.3418,3.3418,3.3418,3.3418,3.3418,3.3418,3.3418,3.3418,3.3418,3.3418,3.3418,3.3418,3.3418,3.3418,3.3418,3.3418,3.3418,3.3418,3.3418,3.3418,3.3418,3.3418,3.3418,3.3418,3.3418,3.3418,3.3418,3.3418,3.2734,3.2266,3.2229,3.1445,3.0976,3.0898,3.0898,3.0898,3.0898,3.0898,3.0898,3.0898,3.0898,3.0898,3.0898,3.0898,3.0898,4.959,4.959,4.959,4.959,4.959,4.959,4.959,4.959,4.959,4.959,4.959,4.959,4.959,4.959,4.959,4.959,4.959,4.959,4.959,4.959,4.959,4.959,4.959,4.959,4.959,4.959,4.959,4.959,4.959,4.959,4.959,4.959,4.959,4.959,4.959,4.8556,4.6453,4.5732,4.4349,4.2246,4.1556,4.1181,4.1181,4.1181,4.0343,3.8861,3.8861,3.7955,3.6471,3.6471,3.6471,3.6471,3.6471,3.6403,3.6219,3.6219,3.6152,3.6016,3.6016,3.6016,3.5957,3.5527,3.5078,3.4629,3.4238,3.3789,3.3418,3.3418,3.3418,3.3418,3.3418,3.3418,3.3418,3.3418,3.3418,3.3418,3.3418,3.3418,3.3418,3.3418,3.3418,3.3418,3.3418,3.3418,3.3418,3.3418,3.3418,3.3418,3.3418,3.3418,3.3418,3.3418,3.3418,3.3418,3.3418,3.3008,3.2578,3.2187,3.1719,3.1289,3.0918,3.0898,3.0898,3.0898,3.0898,3.0898,3.0898,3.0898,3.0898,3.0898,3.0898,3.0898,4.959,4.959,4.959,4.959,4.959,4.959,4.959,4.959,4.959,4.959,4.959,4.959,4.959,4.959,4.959,4.959,4.959,4.959,4.959,4.959,4.959,4.959,4.959,4.959,4.959,4.959,4.9112,4.7994,4.7904,4.7443,4.6355,4.7311,4.7904,4.7904,4.6603,4.5295,4.4058,4.2568,4.1155,3.9908,3.8702,3.8088,3.8088,3.8088,3.7709,3.7059,3.7059,3.6674,3.6016,3.6016,3.6016,3.6016,3.6016,3.6016,3.6016,3.6016,3.6016,3.6016,3.6016,3.6016,3.5898,3.5195,3.4844,3.4609,3.4199,3.3769,3.3418,3.3418,3.3418,3.3418,3.3418,3.3418,3.3418,3.3418,3.3418,3.3418,3.3418,3.3418,3.3418,3.3418,3.3418,3.3418,3.3418,3.3418,3.3418,3.3418,3.3418,3.3418,3.3418,3.3418,3.3418,3.3418,3.3418,3.3418,3.3418,3.3027,3.2617,3.2268,3.1758,3.1328,3.0918,3.0898,3.0898,3.0898,3.0898,3.0898,3.0898,3.0898,3.0898,3.0898,3.0898,3.0898,4.9461,4.959,4.959,4.959,4.9177,4.8763,4.8763,4.8763,4.8763,4.8763,4.9242,4.959,4.959,4.959,4.959,4.959,4.959,4.959,4.959,4.959,4.959,4.959,4.959,4.959,4.959,4.9112,4.7994,4.613,4.5996,4.5388,4.3983,4.4618,4.5226,4.5786,4.4209,4.2861,4.1705,4.0177,3.8858,3.7822,3.6606,3.6016,3.6016,3.6016,3.6016,3.6016,3.6016,3.6016,3.6016,3.6016,3.6016,3.6016,3.6016,3.6016,3.6016,3.6016,3.6016,3.6016,3.6016,3.6016,3.5898,3.5156,3.4805,3.4609,3.4199,3.3769,3.3418,3.3418,3.3418,3.3418,3.3418,3.3418,3.3418,3.3418,3.3418,3.3418,3.3418,3.3418,3.3418,3.3418,3.3418,3.3418,3.3418,3.3418,3.3418,3.3418,3.3418,3.3418,3.3418,3.3418,3.3418,3.3418,3.3418,3.3418,3.3418,3.3144,3.2754,3.2207,3.1875,3.1465,3.0918,3.0898,3.0898,3.0898,3.0898,3.0898,3.0898,3.0898,3.0898,3.0898,3.0898,3.0898,4.9112,4.959,4.959,4.959,4.8191,4.6798,4.6798,4.6798,4.6798,4.6798,4.8347,4.959,4.959,4.959,4.959,4.959,4.959,4.959,4.959,4.959,4.959,4.959,4.959,4.959,4.959,4.7929,4.6063,4.4253,4.4116,4.3983,4.3557,4.1762,4.1624,4.3467,4.3444,4.21,3.9445,3.9424,3.8274,3.6016,3.6016,3.6016,3.6016,3.6016,3.6016,3.6016,3.6016,3.6016,3.6016,3.6016,3.6016,3.6016,3.6016,3.6016,3.6016,3.6016,3.6016,3.6016,3.6016,3.6016,3.5957,3.5527,3.5078,3.4609,3.4199,3.3769,3.3418,3.3418,3.3418,3.3418,3.3418,3.3418,3.3418,3.3418,3.3418,3.3418,3.3418,3.3418,3.3418,3.3418,3.3418,3.3418,3.3418,3.3418,3.3418,3.3418,3.3418,3.3418,3.3418,3.3418,3.3418,3.3418,3.3418,3.3418,3.3418,3.3418,3.3066,3.2226,3.2229,3.1777,3.0918,3.0898,3.0898,3.0898,3.0898,3.0898,3.0898,3.0898,3.0898,3.0898,3.0898,3.0898,4.5683,4.5818,4.5818,4.5818,4.5412,4.4914,4.4914,4.4914,4.4914,4.4914,4.5412,4.5818,4.5818,4.5818,4.5818,4.5818,4.5818,4.5818,4.5818,4.5818,4.5818,4.5818,4.5818,4.5818,4.5818,4.5321,4.4096,4.193,4.177,4.1023,3.9355,3.8707,3.9265,4.1151,3.9625,3.8397,3.7517,3.7217,3.6745,3.6016,3.6016,3.6016,3.6016,3.6016,3.6016,3.6016,3.6016,3.6016,3.6016,3.6016,3.6016,3.6016,3.6016,3.6016,3.6016,3.6016,3.6016,3.6016,3.6016,3.6016,3.5957,3.5527,3.5293,3.5039,3.4297,3.3769,3.3418,3.3418,3.3418,3.3418,3.3418,3.3418,3.3418,3.3418,3.3418,3.3418,3.3418,3.3418,3.3418,3.3418,3.3418,3.3418,3.3418,3.3418,3.3418,3.3418,3.3418,3.3418,3.3418,3.3418,3.3418,3.3418,3.3418,3.3418,3.3418,3.3418,3.3066,3.2226,3.2229,3.1777,3.0918,3.0898,3.0898,3.0898,3.0898,3.0898,3.0898,3.0898,3.0898,3.0898,3.0898,3.0898,4.3703,4.4116,4.4116,4.4116,4.3565,4.3057,4.3057,4.3057,4.3057,4.3057,4.3611,4.4116,4.4116,4.4116,4.4116,4.4116,4.4116,4.4116,4.4116,4.4116,4.4116,4.4116,4.3937,4.3551,4.2864,4.271,4.1736,3.954,3.9543,3.897,3.7395,3.7441,3.8006,3.8991,3.75,3.6601,3.6426,3.6152,3.6016,3.6016,3.6016,3.6016,3.6016,3.6016,3.6016,3.6016,3.6016,3.6016,0.0,3.6016,3.6016,3.6016,3.6016,3.6016,3.6016,3.6016,3.6016,3.6016,3.6016,3.6016,3.5976,3.5723,3.541,3.5,3.4297,3.3769,3.3418,3.3418,3.3418,3.3418,3.3418,3.3418,3.3418,3.3418,3.3418,3.3418,3.3418,3.3418,3.3418,3.3418,3.3418,3.3418,3.3418,3.3418,3.3418,3.3418,3.3418,3.3418,3.3418,3.3418,3.3418,3.3418,3.3418,3.3418,3.3418,3.3418,3.3066,3.2226,3.2229,3.1777,3.0918,3.0898,3.0898,3.0898,3.0898,3.0898,3.0898,3.0898,3.0898,3.0898,3.0898,3.0898,0.0,4.3703,4.3703,4.3703,4.2382,4.1134,4.1134,4.1134,0.0,4.1134,4.2522,4.3703,4.3703,4.3703,4.3703,4.3703,4.3658,4.3636,4.3636,4.3614,4.3592,4.3592,4.326,4.2292,4.0612,4.0097,3.9178,3.7426,3.7656,3.7715,3.7324,3.7676,3.7695,3.7305,3.6914,3.6523,3.6113,3.6113,3.6113,3.6113,3.6113,3.6094,3.6074,3.6074,3.6055,3.6016,3.6016,3.6016,3.6016,3.6016,3.6016,3.6016,3.6016,3.6016,3.6016,3.6016,3.6016,3.6016,3.6016,3.6016,3.6016,3.6016,3.5449,3.4668,3.4238,3.3789,3.3418,3.3418,3.3418,3.3418,3.3418,3.3418,3.3418,3.3418,3.3418,3.3418,3.3418,3.3418,3.3418,3.3418,3.3418,3.3418,3.3418,3.3418,3.3418,3.3418,3.3418,3.3418,3.3418,3.3418,3.3418,3.3418,3.3418,3.3418,3.3418,3.3418,3.3066,3.2266,3.2248,3.1797,3.0976,3.0918,3.0898,3.0898,3.0898,3.0898,3.0898,3.0898,3.0898,3.0898,3.0898,3.0898,3.9694,0.0,3.989,3.989,3.955,3.9261,0.0,3.9261,3.9261,3.9261,3.9622,3.989,3.989,3.989,3.989,3.989,3.9607,3.9384,3.9384,3.9101,3.8878,3.8878,3.8797,3.8597,3.8127,3.8027,3.7777,3.7305,3.7383,3.7402,3.7305,3.7383,3.7402,3.7305,3.7207,3.7109,3.6992,3.6992,3.6992,3.6992,3.6992,3.6836,3.6523,3.6523,3.6328,3.6016,3.6016,3.6016,3.6016,3.6016,3.6016,3.6016,3.6016,3.6016,3.6016,3.6016,3.6016,3.6016,3.6016,3.6016,3.6016,3.6016,3.5664,3.5137,3.4687,3.4023,3.3418,3.3418,3.3418,3.3418,3.3418,3.3418,3.3418,3.3418,3.3418,3.3418,3.3418,3.3418,3.3418,3.3418,3.3418,3.3418,3.3418,3.3418,3.3418,3.3418,3.3418,3.3418,3.3418,3.3418,3.3418,3.3418,3.3418,3.3418,3.3418,3.3418,3.3203,3.2676,3.2344,3.1934,3.1387,3.1055,3.0898,3.0898,3.0898,3.0898,3.0898,3.0898,3.0898,3.0898,3.0898,3.0898,3.8281,3.8418,3.8574,3.8574,3.8574,3.8574,3.8574,3.8574,3.8574,3.8574,3.8418,3.8281,3.8281,3.8125,3.7988,3.7988,3.7793,3.7637,3.7637,3.7441,3.7305,3.7305,3.7129,3.7012,3.7012,3.7012,3.7012,3.7012,3.7363,3.7578,3.7578,3.7773,3.7891,3.7891,3.7891,3.7695,3.7305,3.7305,3.7305,3.7305,3.7305,3.7187,3.6953,3.6953,3.6719,3.6309,3.6309,3.6211,3.6016,3.6016,3.6016,3.6016,3.6016,3.6016,3.6016,3.6016,3.6016,3.6016,3.6016,3.6016,3.6016,3.6016,3.5742,3.5351,3.5098,3.4414,3.3672,3.3476,3.3418,3.3418,3.3418,3.3418,3.3418,3.3418,3.3418,3.3418,3.3418,3.3418,3.3418,3.3418,3.3418,3.3418,3.3418,3.3418,3.3418,3.3418,3.3418,3.3418,3.3418,3.3418,3.3418,3.3418,3.3418,3.3418,3.3418,3.3418,3.3242,3.2832,3.2402,3.1973,3.1543,3.1113,3.0898,3.0898,3.0898,3.0898,3.0898,3.0898,3.0898,3.0898,3.0898,3.0898,3.7832,3.8105,3.8379,3.8379,3.8379,3.8379,3.8379,3.8379,3.8379,3.8379,3.8086,3.7832,3.7832,3.7539,3.7305,3.7305,3.7246,3.7168,3.7109,3.7109,3.7109,3.7109,3.6797,3.6601,3.666,3.668,3.6719,3.6855,3.7519,3.7949,3.8027,3.8379,3.8574,3.8574,3.8574,3.8223,3.75,3.75,3.75,3.75,3.75,3.7461,3.7402,3.7402,3.7129,3.668,3.668,3.6426,3.6016,3.6016,3.6016,3.6016,3.6016,3.6016,3.6016,3.6016,3.6016,3.6016,3.6016,3.6016,3.6016,3.6016,3.5781,3.5488,3.541,3.4824,3.4082,3.3652,3.3476,3.3418,3.3418,3.3418,3.3418,3.3418,3.3418,3.3418,3.3418,3.3418,3.3418,3.3418,3.3418,3.3418,3.3418,3.3418,3.3418,3.3418,3.3418,3.3418,3.3418,3.3418,3.3418,3.3418,3.3418,3.3418,3.3418,3.3418,3.3262,3.291,3.25,3.2031,3.1543,3.1113,3.0898,3.0898,3.0898,3.0898,3.0898,3.0898,3.0898,3.0898,3.0898,3.0898,3.7402,3.7441,3.75,3.75,3.75,3.75,3.75,3.75,3.75,3.75,3.7441,3.7402,3.7402,3.7344,3.7305,3.7305,3.6992,3.6641,3.6269,3.6211,3.6211,3.6211,3.6152,3.6269,3.6641,3.668,3.6973,3.7676,3.7851,3.8086,3.8457,3.8535,3.8574,3.8574,3.8574,3.8516,3.8379,3.8379,3.8379,3.8379,3.8379,3.8184,3.7832,3.7832,3.7402,3.668,3.668,3.6426,3.6016,3.6016,3.6016,3.6016,3.6016,3.6016,3.6016,3.6016,3.6016,3.6016,3.6016,3.6016,3.6016,3.6016,3.5976,3.5859,3.5508,3.5019,3.4512,3.4101,3.3711,3.3418,3.3418,3.3418,3.3418,3.3418,3.3418,3.3418,3.3418,3.3418,3.3418,3.3418,3.3418,3.3418,3.3418,3.3418,3.3418,3.3418,3.3418,3.3418,3.3418,3.3418,3.3418,3.3418,3.3418,3.3418,3.3418,3.3418,3.3398,3.332,3.293,3.2344,3.1543,3.1113,3.0898,3.0898,3.0898,3.0898,3.0898,3.0898,3.0898,3.0898,3.0898,3.0898,3.6953,3.6777,3.6601,3.6601,3.6953,3.7305,3.7305,3.7305,3.7305,3.7305,3.7109,3.6953,3.6953,3.6758,3.6601,3.6601,3.6445,3.625,3.6055,3.6016,3.6016,3.6016,3.6016,3.6191,3.6621,3.6875,3.7266,3.7871,3.8144,3.8359,3.8555,3.8574,3.8574,3.8574,3.8574,3.8574,3.8574,3.8574,3.8574,3.8574,3.7492,3.6791,3.6604,3.5484,3.4645,3.4018,3.3875,3.3625,3.3248,3.4112,3.4521,3.459,3.5587,3.6016,3.6016,3.6016,3.6016,3.6016,3.6016,3.6016,3.6016,3.6016,3.6016,3.5996,3.5801,3.5254,3.4668,3.4473,3.3926,3.3418,3.3418,3.3418,3.3418,3.3418,3.3418,3.3418,3.3418,3.3418,3.3418,3.3418,3.3418,3.3418,3.3418,3.3418,3.3418,3.3418,3.3418,3.3418,3.3418,3.3418,3.3418,3.3418,3.3418,3.3418,3.3418,3.3418,3.332,3.3105,3.2695,3.2168,3.1543,3.1113,3.0898,3.0898,3.0898,3.0898,3.0898,3.0898,3.0898,3.0898,3.0898,3.0898,3.5426,3.5268,3.5226,3.4796,3.5862,3.6992,3.6992,3.6992,3.6992,3.6992,3.6738,3.6523,3.6523,3.625,3.6016,3.6016,3.6016,3.6016,3.6016,3.6016,3.6016,3.6016,3.6113,3.6348,3.6777,3.7187,3.7617,3.8047,3.8379,3.8574,3.8574,3.8574,3.8574,3.8574,3.8574,3.8355,3.7878,3.7878,3.7878,3.7878,3.6275,3.5274,3.4751,3.3171,3.2232,3.1778,3.1548,3.1185,3.091,3.2034,3.2525,3.2665,3.4089,3.4952,3.5382,3.5382,3.5587,3.6016,3.6016,3.6016,3.6016,3.6016,3.6016,3.6016,3.6016,3.5469,3.4844,3.4726,3.416,3.3555,3.3437,3.3418,3.3418,3.3418,3.3418,3.3418,3.3418,3.3418,3.3418,3.3418,3.3418,3.3418,3.3418,3.3418,3.3418,3.3418,3.3418,3.3418,3.3418,3.3418,3.3418,3.3418,3.3418,3.3418,3.3418,3.3418,3.3281,3.2969,3.2461,3.2012,3.168,3.1172,3.0898,3.0898,3.0898,3.0898,3.0898,3.0898,3.0898,3.0898,3.0898,3.0898,3.1702,3.2036,3.2943,3.1158,3.3415,3.6113,3.6113,3.6113,3.6113,3.6113,3.6094,3.6074,3.6074,3.6035,3.6016,3.6016,3.6016,3.6016,3.6016,3.6016,3.6016,3.6016,3.6367,3.6797,3.7207,3.7637,3.8066,3.8496,3.8555,3.8574,3.8574,3.8574,3.8574,3.8574,3.8574,3.7658,3.5738,3.5738,3.5738,3.5738,3.5571,3.4526,3.2717,3.2581,3.2232,3.1778,3.1548,3.1185,3.0749,3.0601,3.0522,3.0522,3.0664,3.1808,3.3378,3.3378,3.4521,3.6016,3.6016,3.6016,3.6016,3.6016,3.6016,3.6016,3.6016,3.5703,3.5254,3.4824,3.4375,3.3926,3.3535,3.3418,3.3418,3.3418,3.3418,3.3418,3.3418,3.3418,3.3418,3.3418,3.3418,3.3418,3.3418,3.3418,3.3418,3.3418,3.3418,3.3418,3.3418,3.3418,3.3418,3.3418,3.3418,3.3418,3.3418,3.3418,3.3418,3.3379,3.2617,3.2148,3.2129,3.1328,3.0898,3.0898,3.0898,3.0898,3.0898,3.0898,3.0898,3.0898,3.0898,3.0898,3.0664,3.0805,3.1245,3.0451,3.1369,3.2455,3.2455,3.2455,3.2455,3.2455,3.2455,3.2804,3.402,3.4245,3.4659,3.5811,3.6016,3.6016,3.6016,3.6016,3.6016,3.6016,3.6406,3.6836,3.7266,3.7676,3.8105,3.8535,3.8574,3.8024,3.6737,3.6645,3.6127,3.4843,3.4769,3.4469,3.3624,3.3624,3.302,3.1711,3.1711,3.1344,3.0515,2.9293,2.8628,2.8405,2.7944,2.7653,2.7582,2.8282,2.8557,2.8701,2.9812,3.1527,3.317,3.317,3.4383,3.6016,3.6016,3.6016,3.6016,3.6016,3.6016,3.6016,3.6016,3.5723,3.5293,3.4824,3.4394,3.3965,3.3535,3.3418,3.3418,3.3418,3.3418,3.3418,3.3418,3.3418,3.3418,3.3418,3.3418,3.3418,3.3418,3.3418,3.3418,3.3418,3.3418,3.3418,3.3418,3.3418,3.3418,3.3418,3.3418,3.3418,3.3418,3.3418,3.3418,3.3418,3.2871,3.2441,3.2187,3.1601,3.1152,3.0898,3.0898,3.0898,3.0898,3.0898,3.0898,3.0898,3.0898,3.0898,2.8828,2.8972,2.9258,2.8685,2.847,2.847,2.847,2.9456,3.031,3.031,3.031,3.0734,3.2018,3.2316,3.2665,3.402,3.4727,3.5089,3.5089,3.5655,3.6016,3.6016,3.6523,3.6992,3.7266,3.7812,3.8262,3.8555,3.8574,3.7951,3.6571,3.5886,3.49,3.3473,3.2792,3.2201,3.1513,3.1513,3.0515,2.8452,2.8452,2.8452,2.8374,2.7004,2.6386,2.636,2.5772,2.5518,2.5541,2.6259,2.6575,2.6721,2.7981,3.0026,3.2316,3.2316,3.3882,3.6016,3.6016,3.6016,3.6016,3.6016,3.6016,3.6016,3.6016,3.582,3.5469,3.4863,3.4492,3.4141,3.3574,3.3418,3.3418,3.3418,3.3418,3.3418,3.3418,3.3418,3.3418,3.3418,3.3418,3.3418,3.3418,3.3418,3.3418,3.3418,3.3418,3.3418,3.3418,3.3418,3.3418,3.3418,3.3418,3.3418,3.3418,3.3418,3.3418,3.3418,3.3144,3.2734,3.2187,3.1758,3.1328,3.0898,3.0898,3.0898,3.0898,3.0898,3.0898,3.0898,3.0898,3.0898,2.5625,2.6005,2.6997,2.5065,2.4636,2.4636,2.4636,2.7548,3.0239,3.0239,3.0239,3.0239,3.0239,3.0239,3.031,3.031,3.1948,3.317,3.317,3.4727,3.5947,3.5947,3.6708,3.7234,3.7234,3.7994,3.8574,3.8574,3.8574,3.8501,3.8501,3.6571,3.5422,3.5422,3.3473,3.1437,2.9371,2.9371,2.8374,2.6386,2.6386,2.6386,2.6386,2.6386,2.6386,2.636,2.5772,2.5518,2.5464,2.4877,2.4636,2.4636,2.4636,2.691,3.031,3.031,3.2735,3.5947,3.6016,3.6016,3.6016,3.6016,3.6016,3.6016,3.6016,3.6016,3.582,3.4941,3.4687,3.4492,3.3652,3.3418,3.3418,3.3418,3.3418,3.3418,3.3418,3.3418,3.3418,3.3418,3.3418,3.3418,3.3418,3.3418,3.3418,3.3418,3.3418,3.3418,3.3418,3.3418,3.3418,3.3418,3.3418,3.3418,3.3418,3.3418,3.3418,3.3418,3.3418,3.3047,3.2207,3.1758,3.1328,3.0898,3.0898,3.0898,3.0898,3.0898,3.0898,3.0898,3.0898,3.0898,2.4918,2.4991,2.5359,2.471,2.4636,2.4636,2.4636,2.5492,2.6269,2.6269,2.6269,2.6707,2.8068,2.8341,2.8772,3.0097,3.0805,3.1158,3.1158,3.1667,3.2052,3.2313,3.2783,3.3183,3.3405,3.3948,3.4319,3.4319,3.4319,3.3624,3.2184,3.1574,3.0577,2.9123,2.853,2.7919,2.7305,2.7305,2.7004,2.6386,2.6386,2.6386,2.6386,2.6386,2.6386,2.636,2.5772,2.5518,2.5464,2.4877,2.4636,2.4636,2.4636,2.6137,2.8485,2.9812,3.1878,3.4245,3.5519,3.6016,3.6016,3.6016,3.6016,3.6016,3.6016,3.582,3.5449,3.4863,3.4492,3.4121,3.3574,3.3418,3.3418,3.3418,3.3418,3.3418,3.3418,3.3418,3.3418,3.3418,3.3418,3.3418,3.3418,3.3418,3.3418,3.3418,3.3418,3.3418,3.3418,3.3418,3.3418,3.3418,3.3418,3.3418,3.3418,3.3418,3.3418,3.3418,3.3418,3.3047,3.2207,3.2051,3.1641,3.0898,3.0898,3.0898,3.0898,3.0898,3.0898,3.0898,3.0898,3.0898,2.4636,2.4636,2.4636,2.4636,2.4636,2.4636,2.4636,2.4636,2.4636,2.4636,2.4636,2.4991,2.6137,2.6357,2.6707,2.7837,2.8685,2.9186,2.9186,2.9812,3.0442,3.0733,3.1168,3.1531,3.1762,3.2215,3.2505,3.2505,3.2505,3.1972,3.0669,2.9821,2.8827,2.7619,2.6847,2.6386,2.6386,2.6386,2.6386,2.6386,2.6386,2.6386,2.6386,2.6386,2.6333,2.6186,2.5598,2.5277,2.513,2.4783,2.4636,2.4636,2.4636,2.621,2.8772,2.9884,3.2018,3.4452,3.5587,3.6016,3.6016,3.6016,3.6016,3.6016,3.6016,3.5723,3.5293,3.4824,3.4394,3.3965,3.3535,3.3418,3.3418,3.3418,3.3418,3.3418,3.3418,3.3418,3.3418,3.3418,3.3418,3.3418,3.3418,3.3418,3.3418,3.3418,3.3418,3.3418,3.3418,3.3418,3.3418,3.3418,3.3418,3.3418,3.3418,3.3418,3.3418,3.3418,3.3418,3.3047,3.2207,3.2229,3.1758,3.0918,3.0898,3.0898,3.0898,3.0898,3.0898,3.0898,3.0898,3.0898,2.4636,2.4636,2.4636,2.4636,2.4636,2.4636,2.4636,2.4636,2.4636,2.4636,2.4636,2.4636,2.4636,2.4636,2.4636,2.4636,2.6078,2.7215,2.7215,2.8685,2.9887,3.0276,3.0616,3.0956,3.1286,3.1701,3.1972,3.1972,3.1972,3.1972,3.1972,3.013,2.9138,2.9138,2.7384,2.6386,2.6386,2.6386,2.6386,2.6386,2.6386,2.6386,2.6386,2.6386,2.6213,2.5892,2.5331,2.4917,2.4636,2.4636,2.4636,2.4636,2.4636,2.6692,2.9812,3.0168,3.2525,3.5519,3.5879,3.6016,3.6016,3.6016,3.6016,3.6016,3.6016,3.5703,3.5234,3.4824,3.4375,3.3926,3.3516,3.3418,3.3418,3.3418,3.3418,3.3418,3.3418,3.3418,3.3418,3.3418,3.3418,3.3418,3.3418,3.3418,3.3418,3.3418,3.3418,3.3418,3.3418,3.3418,3.3418,3.3418,3.3418,3.3418,3.3418,3.3418,3.3418,3.3418,3.3418,3.3047,3.2207,3.2229,3.1758,3.0918,3.0898,3.0898,3.0898,3.0898,3.0898,3.0898,3.0898,3.0898,2.4636,2.4636,2.4636,2.4636,2.4636,2.4636,2.4636,2.4636,2.4636,2.4636,2.4636,2.4636,2.4636,2.4636,2.4636,2.4636,2.4918,2.5212,2.5212,2.5566,2.6055,2.6603,2.6729,2.6982,2.7544,2.7656,2.7698,2.7698,2.7698,2.7698,2.7698,2.7305,2.7083,2.7083,2.6623,2.6386,2.6386,2.6386,2.6386,2.6386,2.6386,2.6386,2.6386,2.6386,2.6106,2.5585,2.5237,2.4917,2.4636,2.4636,2.4636,2.4636,2.4636,2.5139,2.6196,2.9171,3.0805,3.1948,3.4952,3.6016,3.6016,3.6016,3.6016,3.6016,3.6016,3.5469,3.4824,3.4726,3.4141,3.3535,3.3437,3.3418,3.3418,3.3418,3.3418,3.3418,3.3418,3.3418,3.3418,3.3418,3.3418,3.3418,3.3418,3.3418,3.3418,3.3418,3.3418,3.3418,3.3418,3.3418,3.3418,3.3418,3.3418,3.3418,3.3418,3.3418,3.3418,3.3418,3.3418,3.3047,3.2207,3.2229,3.1758,3.0918,3.0898,3.0898,3.0898,3.0898,3.0898,3.0898,3.0898,3.0898,2.4636,2.4636,2.4636,2.4636,2.4636,2.4636,2.4636,2.4636,2.4636,2.4636,2.4636,2.4636,2.4636,2.4636,2.4636,2.4636,2.4636,2.4636,2.4636,2.4756,2.501,2.5464,2.5638,2.5905,2.6346,2.6386,2.6386,2.6386,2.6386,2.6386,2.6386,2.6386,2.6386,2.6386,2.6386,2.6386,2.6386,2.6386,2.6386,2.6386,2.6386,2.6319,2.6172,2.6039,2.5732,2.5291,2.4997,2.4783,2.4636,2.4636,2.4636,2.4636,2.4636,2.5139,2.6357,2.9242,3.0876,3.2088,3.5021,3.6016,3.6016,3.6016,3.6016,3.5976,3.5781,3.5234,3.4668,3.4453,3.3926,3.3418,3.3418,3.3418,3.3418,3.3418,3.3418,3.3418,3.3418,3.3418,3.3418,3.3418,3.3418,3.3418,3.3418,3.3418,3.3418,3.3418,3.3418,3.3418,3.3418,3.3418,3.3418,3.3418,3.3418,3.3418,3.3418,3.3418,3.3418,3.3418,3.3418,3.3047,3.2207,3.2229,3.1758,3.0918,3.0898,3.0898,3.0898,3.0898,3.0898,3.0898,3.0898,3.0898,2.4636,2.4636,2.4636,2.4636,2.4636,2.4636,2.4636,2.4636,2.4636,2.4636,2.4636,2.4636,2.4636,2.4636,2.4636,2.4636,2.4636,2.4649,2.4703,2.493,2.5211,2.5545,2.5798,2.6079,2.636,2.6386,2.6386,2.6386,2.6386,2.6386,2.6386,2.6386,2.6386,2.6386,2.6386,2.6386,2.6386,2.6386,2.6386,2.6386,2.6333,2.6159,2.5865,2.5571,2.5304,2.5064,2.477,2.4636,2.4636,2.4636,2.4636,2.4636,2.4636,2.5566,2.7215,2.9115,3.1034,3.2943,3.4883,3.5743,3.6016,3.6016,3.5976,3.584,3.5508,3.5019,3.4512,3.416,3.375,3.3418,3.3418,3.3418,3.3418,3.3418,3.3418,3.3418,3.3418,3.3418,3.3418,3.3418,3.3418,3.3418,3.3418,3.3418,3.3418,3.3418,3.3418,3.3418,3.3418,3.3418,3.3418,3.3418,3.3418,3.3418,3.3418,3.3418,3.3418,3.3418,3.3418,3.3047,3.2207,3.2229,3.1758,3.0918,3.0898,3.0898,3.0898,3.0898,3.0898,3.0898,3.0898,3.0898,2.4636,2.4636,2.4636,2.4636,2.4636,2.4636,2.4636,2.4636,2.4636,2.4636,2.4636,2.4636,2.4636,2.4636,2.4636,2.4636,2.4636,2.473,2.4983,2.505,2.5291,2.5838,2.601,2.6079,2.636,2.6386,2.6386,2.6386,2.6386,2.6386,2.6386,2.6386,2.6386,2.6386,2.6386,2.6386,2.6386,2.6386,2.6386,2.6386,2.6132,2.5865,2.5558,2.5277,2.5117,2.5064,2.477,2.4636,2.4636,2.4636,2.4636,2.4636,2.4636,2.4784,2.5212,2.7143,2.9043,3.0946,3.2874,3.4659,3.6016,3.6016,3.5781,3.5469,3.541,3.4805,3.4141,3.4082,3.375,3.3418,3.3418,3.3418,3.3418,3.3418,3.3418,3.3418,3.3418,3.3418,3.3418,3.3418,3.3418,3.3418,3.3418,3.3418,3.3418,3.3418,3.3418,3.3418,3.3418,3.3418,3.3418,3.3418,3.3418,3.3418,3.3418,3.3418,3.3418,3.3418,3.3418,3.3047,3.2207,3.2229,3.1758,3.0918,3.0898,3.0898,3.0898,3.0898,3.0898,3.0898,3.0898,3.0898,2.4636,2.4636,2.4636,2.4636,2.4636,2.4636,2.4636,2.4636,2.4636,2.4636,2.4636,2.4636,2.4636,2.4636,2.4636,2.4636,2.4636,2.4743,2.5037,2.5224,2.5478,2.5983,2.6106,2.6253,2.6373,2.6386,2.6386,2.6386,2.6386,2.6386,2.6386,2.6386,2.6386,2.6386,2.6386,2.6386,2.6386,2.6386,2.6306,2.6146,2.5852,2.5558,2.5264,2.497,2.4836,2.4823,2.469,2.4636,2.4636,2.4636,2.4636,2.4636,2.4636,2.4636,2.4991,2.7981,2.9599,3.0734,3.3725,3.5314,3.6016,3.6016,3.5742,3.5351,3.5078,3.457,3.4023,3.3769,3.3574,3.3418,3.3418,3.3418,3.3418,3.3418,3.3418,3.3418,3.3418,3.3418,3.3418,3.3418,3.3418,3.3418,3.3418,3.3418,3.3418,3.3418,3.3418,3.3418,3.3418,3.3418,3.3418,3.3418,3.3418,3.3418,3.3418,3.3418,3.3418,3.3418,3.3418,3.3047,3.2207,3.2229,3.1758,3.0918,3.0898,3.0898,3.0898,3.0898,3.0898,3.0898,3.0898,3.0898,2.4636,2.4636,2.4636,2.4636,2.4636,2.4636,2.4636,2.4636,2.4636,2.4636,2.4636,2.4636,2.4636,2.4636,2.4636,2.4636,2.4636,2.477,2.513,2.5371,2.5651,2.6026,2.6253,2.6386,2.6386,2.6386,2.6386,2.6386,2.6386,2.6386,2.6386,2.6386,2.6386,2.6386,2.6386,2.6386,2.6386,2.6319,2.6172,2.6037,2.5585,2.5291,2.5064,2.477,2.4636,2.4636,2.4636,2.4636,2.4636,2.4636,2.4636,2.4636,2.4636,2.4636,2.4991,2.8341,2.9884,3.0805,3.4158,3.5587,3.5996,3.5898,3.5566,3.5137,3.4668,3.4238,3.3848,3.3516,3.3418,3.3418,3.3418,3.3418,3.3418,3.3418,3.3418,3.3418,3.3418,3.3418,3.3418,3.3418,3.3418,3.3418,3.3418,3.3418,3.3418,3.3418,3.3418,3.3418,3.3418,3.3418,3.3418,3.3418,3.3418,3.3418,3.3418,3.3418,3.3418,3.3418,3.3418,3.3047,3.2207,3.2229,3.1758,3.0918,3.0898,3.0898,3.0898,3.0898,3.0898,3.0898,3.0898,3.0898,2.4636,2.4636,2.4636,2.4636,2.4636,2.4636,2.4636,2.4636,2.4636,2.4636,2.4636,2.4636,2.4636,2.4636,2.4636,2.4636,2.4636,2.4836,2.5411,2.5504,2.5718,2.6293,2.6373,2.6386,2.6386,2.6386,2.6386,2.6386,2.6386,2.6386,2.6386,2.6386,2.6386,2.6386,2.6386,2.6386,2.6386,2.6119,2.605,2.6023,2.5371,2.509,2.5064,2.477,2.4636,2.4636,2.4636,2.4636,2.4636,2.4636,2.4636,2.4636,2.4636,2.4636,2.4857,2.6852,2.8772,3.0593,3.2665,3.4521,3.5957,3.5547,3.5117,3.4648,3.4238,3.3809,3.3457,3.3437,3.3418,3.3418,3.3418,3.3418,3.3418,3.3418,3.3418,3.3418,3.3418,3.3418,3.3418,3.3418,3.3418,3.3418,3.3418,3.3418,3.3418,3.3418,3.3418,3.3418,3.3418,3.3418,3.3418,3.3418,3.3418,3.3418,3.3418,3.3418,3.3418,3.3418,3.3418,3.3047,3.2207,3.2229,3.1758,3.0918,3.0898,3.0898,3.0898,3.0898,3.0898,3.0898,3.0898,3.0898,2.4636,2.3648,2.2657,2.2657,2.2657,2.2657,2.2657,2.3648,2.4636,2.4636,2.4636,2.4636,2.4636,2.4636,2.4636,2.4636,2.4636,2.4836,2.5424,2.5518,2.5732,2.6319,2.6386,2.6386,2.6386,2.6386,2.6386,2.6386,2.6386,2.6386,2.6386,2.6386,2.6386,2.6386,2.6386,2.6306,2.6106,2.5812,2.5571,2.5384,2.5184,2.4983,2.4796,2.469,2.4636,2.4636,2.4636,2.4636,2.4636,2.4636,2.4636,2.4636,2.4636,2.4636,2.4844,2.6779,2.8701,3.056,3.2173,3.3991,3.5547,3.5098,3.4648,3.4258,3.4121,3.3769,3.3418,3.3418,3.3418,3.3418,3.3418,3.3418,3.3418,3.3418,3.3418,3.3418,3.3418,3.3418,3.3418,3.3418,3.3418,3.3418,3.3418,3.3418,3.3418,3.3418,3.3418,3.3418,3.3418,3.3418,3.3418,3.3418,3.3418,3.3418,3.3418,3.3418,3.3418,3.3418,3.3418,3.3047,3.2207,3.2229,3.1758,3.0918,3.0898,3.0898,3.0898,3.0898,3.0898,3.0898,3.0898,3.0898,2.3796,2.2583,2.144,2.0767,2.0617,2.0767,2.1452,2.2657,2.3796,2.4488,2.4636,2.4414,2.3722,2.3574,2.3574,2.3574,2.3574,2.3766,2.4406,2.5045,2.5732,2.6319,2.6386,2.6386,2.6386,2.6386,2.6386,2.6386,2.6386,2.6386,2.6386,2.6386,2.6346,2.6253,2.6146,2.5999,2.5812,2.5518,2.5277,2.5077,2.4983,2.4823,2.4636,2.4636,2.4636,2.4636,2.4636,2.4636,2.4636,2.4636,2.4636,2.4636,2.4636,2.4636,2.4844,2.6779,2.8623,3.0306,3.1961,3.3674,3.5078,3.4629,3.4297,3.4043,3.3906,3.3652,3.3418,3.3418,3.3418,3.3418,3.3418,3.3418,3.3418,3.3418,3.3418,3.3418,3.3418,3.3418,3.3418,3.3418,3.3418,3.3418,3.3418,3.3418,3.3418,3.3418,3.3418,3.3418,3.3418,3.3418,3.3418,3.3418,3.3418,3.3418,3.3418,3.3418,3.3418,3.3418,3.3281,3.2891,3.2268,3.2031,3.1621,3.0898,3.0898,3.0898,3.0898,3.0898,3.0898,3.0898,3.0898,3.0898,0.0,0.0,0.0,1.9025,1.8497,1.9025,2.0991,2.144,2.2049,2.4105,2.4488,2.3944,2.1975,2.1527,2.1527,2.144,2.144,2.1702,2.2283,2.4086,2.5564,2.6148,2.6294,2.6294,2.6307,2.6386,2.6386,2.6386,2.6386,2.6386,2.6373,2.6373,2.6239,2.5959,2.5651,2.5504,2.5504,2.5211,2.5064,2.5064,2.477,2.4636,2.4636,2.4636,2.4636,2.4636,2.4636,2.4636,2.4636,2.4636,2.4636,2.4636,2.4636,2.4636,2.4844,2.6707,2.8411,2.999,3.1769,3.3382,3.4609,3.4199,3.4062,3.3965,3.3555,3.3418,3.3418,3.3418,3.3418,3.3418,3.3418,3.3418,3.3418,3.3418,3.3418,3.3418,3.3418,3.3418,3.3418,3.3418,3.3418,3.3418,3.3418,3.3418,3.3418,3.3418,3.3418,3.3418,3.3418,3.3418,3.3418,3.3418,3.3418,3.3418,3.3418,3.3418,3.3418,3.3418,3.3027,3.2598,3.2248,3.1758,3.1328,3.0898,3.0898,3.0898,3.0898,3.0898,3.0898,3.0898,3.0898,3.0898,2.0005,0.0,0.0,0.0,0.0,0.0,1.7056,1.8345,2.0005,2.2049,2.2434,2.2273,2.1676,2.0391,1.895,1.7436,1.8421,1.9584,1.9958,2.0462,2.1024,2.1523,2.2937,2.3891,2.4007,2.5489,2.6386,2.6386,2.6386,2.6306,2.6092,2.5879,2.5718,2.5638,2.5358,2.5197,2.5197,2.4903,2.4756,2.4756,2.4676,2.4636,2.4636,2.4636,2.4636,2.4636,2.4636,2.4636,2.4636,2.4636,2.4636,2.4636,2.4636,2.4636,2.4609,2.4966,2.7072,2.9699,2.9664,3.1703,3.418,3.375,3.3594,3.3574,3.3457,3.3418,3.3418,3.3418,3.3418,3.3418,3.3418,3.3418,3.3418,3.3418,3.3418,3.3418,3.3418,3.3418,3.3418,3.3418,3.3418,3.3418,3.3418,3.3418,3.3418,3.3418,3.3418,3.3418,3.3418,3.3418,3.3418,3.3418,3.3418,3.3418,3.3418,3.3418,3.3418,3.3418,3.3027,3.2598,3.2248,3.1758,3.1328,3.0898,3.0898,3.0898,3.0898,3.0898,3.0898,3.0898,3.0898,3.0898,1.7891,1.6447,1.531,1.4475,0.0,0.0,1.6371,1.7739,1.9403,2.2273,2.2198,2.1365,2.0542,1.8648,1.6675,1.4552,1.5234,1.6442,1.7557,1.8434,1.9492,2.073,2.1951,2.3128,2.4004,2.5296,2.6026,2.6026,2.6026,2.5945,2.5785,2.5491,2.5331,2.5331,2.505,2.489,2.489,2.4716,2.4636,2.4636,2.4636,2.4636,2.4636,2.4636,2.4636,2.4636,2.4636,2.4636,2.4636,2.4636,2.4636,2.4623,2.4502,2.4449,2.4422,2.4128,2.622,2.9201,2.8773,3.0882,3.375,3.3496,3.3418,3.3418,3.3418,3.3418,3.3418,3.3418,3.3418,3.3418,3.3418,3.3418,3.3418,3.3418,3.3418,3.3418,3.3418,3.3418,3.3418,3.3418,3.3418,3.3418,3.3418,3.3418,3.3418,3.3418,3.3418,3.3418,3.3418,3.3418,3.3418,3.3418,3.3418,3.3418,3.3418,3.3418,3.3418,3.3418,3.2871,3.2422,3.2187,3.1582,3.1133,3.0898,3.0898,3.0898,3.0898,3.0898,3.0898,3.0898,3.0898,3.0898,1.5769,1.5157,1.4705,1.2958,1.2501,0.0,1.7056,1.7891,1.9025,2.2806,2.2211,2.038,1.8572,1.6751,1.4859,1.2804,1.2501,1.3233,1.5302,1.7171,1.9178,2.151,2.1932,2.2882,2.4956,2.5352,2.5518,2.5518,2.5478,2.5464,2.5464,2.5184,2.5037,2.5037,2.477,2.4636,2.4636,2.4636,2.4636,2.4636,2.4636,2.4636,2.4636,2.4636,2.4636,2.4636,2.4636,2.4549,2.4596,2.4596,2.4596,2.4569,2.4302,2.4182,2.4115,2.3834,2.5794,2.8625,2.8592,3.0686,3.3418,3.3418,3.3418,3.3418,3.3418,3.3418,3.3418,3.3418,3.3418,3.3418,3.3418,3.3418,3.3418,3.3418,3.3418,3.3418,3.3418,3.3418,3.3418,3.3418,3.3418,3.3418,3.3418,3.3418,3.3418,3.3418,3.3418,3.3418,3.3418,3.3418,3.3418,3.3418,3.3418,3.3418,3.3418,3.3418,3.3398,3.3359,3.2598,3.2209,3.209,3.1328,3.0898,3.0898,3.0898,3.0898,3.0898,3.0898,3.0898,3.0898,3.0898,3.0898,1.4099,1.3112,1.2958,1.2579,1.2501,0.0,1.3491,1.3722,1.4406,1.6751,1.698,1.6599,1.6142,1.5769,1.4859,1.2804,1.2501,1.2663,1.3155,1.3535,1.4593,1.6865,1.8658,2.0506,2.2751,2.4495,2.5518,2.5518,2.5291,2.5157,2.5157,2.4877,2.4716,2.4716,2.4663,2.4636,2.4636,2.4636,2.4636,2.4636,2.4636,2.4636,2.4636,2.4636,2.4636,2.4636,2.4636,2.4502,2.4289,2.4289,2.4289,2.4289,2.4222,2.4062,2.3821,2.3527,2.5604,2.8592,2.8378,3.052,3.3418,3.3418,3.3418,3.3418,3.3418,3.3418,3.3418,3.3418,3.3418,3.3418,3.3418,3.3418,3.3418,3.3418,3.3418,3.3418,3.3418,3.3418,3.3418,3.3418,3.3418,3.3418,3.3418,3.3418,3.3418,3.3418,3.3418,3.3418,3.3418,3.3418,3.3418,3.3418,3.3418,3.3418,3.3418,3.3418,3.3281,3.293,3.2441,3.2012,3.166,3.1152,3.0898,3.0898,3.0898,3.0898,3.0898,3.0898,3.0898,3.0898,3.0898,3.0898,1.3337,1.2501,1.2501,1.2501,1.2501,0.0,0.0,1.4022,1.4552,1.6599,1.6218,1.5463,1.5463,1.4705,1.3645,1.2656,1.3337,1.3645,1.2656,1.2501,1.4053,1.819,1.8734,2.0005,2.314,2.4386,2.5077,2.5077,2.4943,2.4863,2.4863,2.4716,2.4636,2.4636,2.4636,2.4636,2.4636,2.4636,2.4636,2.4636,2.4636,2.4636,2.4636,2.4636,2.4636,2.4549,2.4489,2.4342,2.4195,2.4048,2.3901,2.3768,2.3768,2.3674,2.3514,2.3207,2.4764,2.7142,2.7899,2.993,3.2237,3.3082,3.3418,3.3418,3.3418,3.3418,3.3418,3.3418,3.3418,3.3418,3.3418,3.3418,3.3418,3.3418,3.3418,3.3418,3.3418,3.3418,3.3418,3.3418,3.3418,3.3418,3.3418,3.3418,3.3418,3.3418,3.3418,3.3418,3.3418,3.3418,3.3418,3.3418,3.3418,3.3418,3.3418,3.3418,3.3242,3.2832,3.2402,3.1973,3.1543,3.1113,3.0898,3.0898,3.0898,3.0898,3.0898,3.0898,3.0898,3.0898,3.0898,3.0898,1.319,1.2501,1.2501,1.2501,1.2501,1.2958,0.0,0.0,0.0,1.7056,1.6066,1.4935,1.4935,1.3568,1.2501,1.2501,1.3868,1.4475,1.3259,1.2726,1.4475,1.9779,1.9025,1.9553,2.3648,2.4327,2.4636,2.4636,2.4636,2.4636,2.4636,2.4636,2.4636,2.4636,2.4636,2.4636,2.4636,2.4636,2.4636,2.4636,2.4636,2.4636,2.4636,2.4583,2.4556,2.4529,2.4249,2.4088,2.4022,2.3781,2.3514,2.3247,2.33,2.3287,2.3207,2.2953,2.4196,2.6239,2.7701,2.954,3.1497,3.2956,3.3418,3.3418,3.3418,3.3418,3.3418,3.3418,3.3418,3.3418,3.3418,3.3418,3.3418,3.3418,3.3418,3.3418,3.3418,3.3418,3.3418,3.3418,3.3418,3.3418,3.3418,3.3418,3.3418,3.3418,3.3418,3.3418,3.3418,3.3418,3.3418,3.3418,3.3418,3.3418,3.3418,3.334,3.3125,3.2695,3.2285,3.1855,3.1406,3.1074,3.0898,3.0898,3.0898,3.0898,3.0898,3.0898,3.0898,3.0898,3.0898,3.0898,1.3568,1.2501,1.2501,1.2501,1.2501,1.2579,1.2804,0.0,1.2881,1.3112,0.0,1.2804,1.2804,0.0,0.0,1.2501,1.2656,1.3414,1.4935,1.3645,1.3414,1.5922,1.5989,1.7436,2.1515,2.3574,2.4636,2.4636,2.4636,2.4636,2.4636,2.4636,2.4636,2.4636,2.4636,2.4636,2.4636,2.4636,2.4636,2.4636,2.4636,2.4636,2.4549,2.4369,2.4249,2.4235,2.3941,2.3674,2.342,2.3394,2.3193,2.2939,2.322,2.3153,2.2913,2.2873,2.4993,2.79,2.8098,3.0337,3.3165,3.3355,3.3418,3.3418,3.3418,3.3418,3.3418,3.3418,3.3418,3.3418,3.3418,3.3418,3.3418,3.3418,3.3418,3.3418,3.3418,3.3418,3.3418,3.3418,3.3418,3.3418,3.3418,3.3418,3.3418,3.3418,3.3418,3.3418,3.3418,3.3418,3.3418,3.3418,3.3418,3.3418,3.3418,3.3086,3.2695,3.2266,3.1836,3.1406,3.0976,3.0918,3.0898,3.0898,3.0898,3.0898,3.0898,3.0898,3.0898,3.0898,3.0898,3.0898,1.3288,1.2501,1.2501,1.2501,1.2501,1.2501,1.2501,1.2501,1.2501,1.2501,0.0,0.0,0.0,0.0,0.0,0.0,1.3491,1.4099,1.3791,1.4022,1.5012,1.7056,1.6218,1.7132,2.1216,2.236,2.3339,2.4488,2.35,2.3339,2.4562,2.4636,2.4636,2.4636,2.4636,2.4636,2.4636,2.4636,2.4636,2.4636,2.4636,2.4556,2.4382,2.4262,2.4115,2.3941,2.3634,2.3447,2.3313,2.3126,2.2979,2.2873,2.3006,2.2979,2.2928,2.2928,2.3856,2.5263,2.6306,2.8295,3.0725,3.2765,3.3418,3.3418,3.3418,3.3418,3.3418,3.3418,3.3418,3.3418,3.3418,3.3418,3.3418,3.3418,3.3418,3.3418,3.3418,3.3418,3.3418,3.3418,3.3418,3.3418,3.3418,3.3418,3.3418,3.3418,3.3418,3.3418,3.3418,3.3418,3.3418,3.3418,3.3418,3.332,3.3086,3.2891,3.25,3.1836,3.1387,3.1074,3.0898,3.0898,3.0898,3.0898,3.0898,3.0898,3.0898,3.0898,3.0898,3.0898,3.0898,3.0898,1.4129,1.3373,1.3197,1.2704,1.2535,1.2501,1.2501,1.2501,1.2501,1.2501,1.2501,0.0,0.0,0.0,1.2501,1.2501,0.0,1.4176,1.2733,1.3791,1.5234,1.6751,1.6066,1.6675,1.9629,2.0916,2.2211,2.3648,2.2967,2.3042,2.4488,2.4636,2.4636,2.4636,2.4636,2.4636,2.4636,2.4636,2.4596,2.4516,2.4516,2.4369,2.4075,2.3995,2.3848,2.3634,2.3327,2.3193,2.318,2.2953,2.2928,2.2928,2.2928,2.2928,2.2928,2.2928,2.3201,2.3788,2.5046,2.6706,2.8689,3.1707,3.2702,3.2765,3.3292,3.3418,3.3418,3.3418,3.3418,3.3418,3.3418,3.3418,3.3418,3.3418,3.3418,3.3418,3.3418,3.3418,3.3418,3.3418,3.3418,3.3228,3.2765,3.3082,3.3418,3.3418,3.3418,3.3418,3.3418,3.3418,3.3418,3.3418,3.332,3.3125,3.2812,3.2578,3.2129,3.1387,3.1055,3.0898,3.0898,3.0898,3.0898,3.0898,3.0898,3.0898,3.0898,3.0898,3.0898,3.0898,3.0898,3.0898,1.682,1.5529,1.4976,1.3148,1.261,1.2501,1.2501,1.2501,1.2501,1.2501,1.2501,1.2501,1.2501,1.2501,1.2501,1.2501,1.2579,0.0,0.0,1.2579,1.2656,1.2656,1.433,1.554,1.5693,1.9252,2.1601,2.1676,2.3426,2.4562,2.4636,2.4636,2.4636,2.4636,2.4636,2.4636,2.4636,2.4636,2.4489,2.4222,2.4222,2.4062,2.3768,2.3487,2.3354,2.3327,2.3006,2.2873,2.2873,2.2928,2.2928,2.2928,2.2928,2.2928,2.2928,2.2928,2.3992,2.545,2.545,2.6706,2.8492,3.0319,3.09,3.1176,3.2892,3.3418,3.3418,3.3418,3.3418,3.3418,3.3418,3.3418,3.3418,3.3418,3.3418,3.3418,3.3418,3.3418,3.3418,3.3418,3.3418,3.2892,3.1176,3.2301,3.3418,3.3418,3.3418,3.3418,3.3418,3.3418,3.3418,3.3418,3.3066,3.2812,3.2793,3.2031,3.1367,3.0937,3.0898,3.0898,3.0898,3.0898,3.0898,3.0898,3.0898,3.0898,3.0898,3.0898,3.0898,3.0898,3.0898,3.0898,1.8612,1.8029,1.7346,1.5343,1.4687,1.4176,1.2804,1.2501,1.2501,1.2501,1.2501,1.2501,1.2501,1.2501,1.2501,1.2501,1.2501,1.2501,0.0,1.242,1.2325,1.2223,1.4088,1.5404,1.5523,1.7967,2.0155,2.1527,2.2198,2.319,2.4562,2.4636,2.4636,2.4636,2.4636,2.4543,2.4356,2.4356,2.4209,2.3915,2.3915,2.3768,2.3474,2.3367,2.322,2.3006,2.2913,2.2928,2.2928,2.2928,2.2928,2.2928,2.2928,2.2928,2.2928,2.2928,2.3992,2.5651,2.6839,2.6906,2.6706,2.8492,2.9083,2.9409,3.1176,3.1689,3.1899,3.3082,3.2556,3.1689,3.1689,3.0854,2.9947,2.9947,3.0854,3.1368,3.0207,3.0854,3.1368,3.0207,2.9947,2.9735,2.9213,2.954,2.9947,2.9947,3.0918,3.1689,3.1689,3.2702,3.332,3.3027,3.2871,3.2559,3.1992,3.1426,3.1035,3.0898,3.0898,3.0898,3.0898,3.0898,3.0898,3.0898,3.0898,3.0898,3.0898,3.0898,3.0898,3.0898,3.0898,3.0333,2.0887,2.0436,1.9713,1.762,1.693,1.6153,1.4037,1.3568,1.3568,1.3568,1.3035,1.2733,1.3414,1.2958,1.2501,1.2501,1.2501,1.2481,0.0,1.225,1.2108,1.2067,1.3327,1.4493,1.5345,1.6587,1.855,2.1354,2.1582,2.2362,2.4329,2.4476,2.4436,2.4329,2.4329,2.4235,2.4048,2.4048,2.3901,2.3607,2.3607,2.346,2.3166,2.3166,2.3046,2.2928,2.2928,2.2928,2.2928,2.2928,2.2928,2.2928,2.2928,2.2928,2.2996,2.3597,2.452,2.5651,2.6839,2.6506,2.5704,2.6839,2.7701,2.8427,2.954,3.0319,3.09,3.1387,3.1176,3.0642,3.006,2.9017,2.8163,2.8163,2.9083,2.954,2.8427,2.9083,2.954,2.8427,2.8163,2.7966,2.737,2.7238,2.7701,2.8952,3.006,3.1029,3.1625,3.2568,3.3105,3.2832,3.2519,3.2051,3.1348,3.0487,3.0274,3.084,3.0333,3.0274,3.0898,3.0898,3.0898,3.0898,3.0898,3.0587,3.002,3.002,2.9726,2.9157,2.9157,2.8247]}]]